[[{"header":{"parameterUnit":"m.s-1","parameterCategory":1,"la1":30.6,"la2":29.2853,"lo1":-89.7004,"lo2":-87.6739,"dy":0.0162,"dx":0.0183,"nx":112,"ny":82,"refTime":"2024-09-11T00:00:00:Z","depth":0,"parameterNumber":2,"parameterNumberName":"U-component_of_WINDS"},"data":[0.0,0.0,0.0,0.0,0.0,0.0,0.0,0.0,0.0,0.0,0.0,0.0,0.0,0.0,0.0,0.0,0.0,0.0,0.0,0.0,0.0,0.0,0.0,0.0,0.0,0.0,0.0,0.0,0.0,0.0,0.0,0.0,0.0,0.0,0.0,0.0,0.0,0.0,0.0,0.0,0.0,0.0,0.0,0.0,0.0,0.0,0.0,0.0,0.0,0.0,0.0,0.0,0.0,0.0,0.0,0.0,0.0,0.0,0.0,0.0,0.0,0.0,0.0,0.0,0.0,0.0,0.0,0.0,0.0,0.0,0.0,0.0,0.0,0.0,0.0,0.0,0.0,0.0,0.0,0.0,0.0,0.0,0.0,0.0,0.0,0.0,0.0,0.0,0.0,0.0,0.5544,0.5955,0.631,0.6437,0.6078,0.602,0.5708,0.5161,0.0,0.0,0.0,0.0,0.0,0.0,0.0,0.0,0.0,0.0,0.0,0.0,0.0,0.0,0.0,0.0,0.0,0.0,0.0,0.0,0.0,0.0,0.0,0.0,0.0,0.0,0.0,0.0,0.0,0.0,0.0,0.0,0.0,0.0,0.0,0.0,0.0,0.0,0.0,0.0,0.0,0.0,0.0,0.0,0.0,0.0,0.0,0.0,0.0,0.0,0.0,0.0,0.0,0.0,0.0,0.0,0.0,0.0,0.0,0.0,0.0,0.0,0.0,0.0,0.0,0.0,0.0,0.0,0.0,0.0,0.0,0.0,0.0,0.0,0.0,0.0,0.0,0.0,0.0,0.0,0.0,0.0,0.0,0.0,0.0,0.0,0.0,0.0,0.0,0.0,0.0,0.0,0.0,0.0,0.0,0.0,0.0,0.0,0.0,0.0,0.0,0.0,0.0,0.0,0.6904,0.7225,0.7455,0.7242,0.6304,0.5986,0.5681,0.5384,0.0,0.0,0.0,0.0,0.0,0.0,0.0,0.0,0.0,0.0,0.0,0.0,0.0,0.0,0.0,0.0,0.0,0.0,0.0,0.0,0.0,0.0,0.0,0.0,0.0,0.0,0.0,0.0,0.0,0.0,0.0,0.0,0.0,0.0,0.0,0.0,0.0,0.0,0.0,0.0,0.0,0.0,0.0,0.0,0.0,0.0,0.0,0.0,0.0,0.0,0.0,0.0,0.0,0.0,0.0,0.0,0.0,0.0,0.0,0.0,0.0,0.0,0.0,0.0,0.0,0.0,0.0,0.0,0.0,0.0,0.0,0.0,0.0,0.0,0.0,0.0,0.0,0.0,0.0,0.0,0.0,0.0,0.0,0.0,0.0,0.0,0.0,0.0,0.0,0.0,0.0,0.0,0.0,0.0,0.0,0.0,0.0,0.0,0.0,0.0,0.0,0.0,0.0,0.5768,0.6185,0.6602,0.737,0.7629,0.7176,0.678,0.6503,0.623,0.5144,0.0,0.0,0.0,0.0,0.0,0.0,0.0,0.0,0.0,0.0,0.0,0.0,0.0,0.0,0.0,0.0,0.0,0.0,0.0,0.0,0.0,0.0,0.0,0.0,0.0,0.0,0.0,0.0,0.0,0.0,0.0,0.0,0.0,0.0,0.0,0.0,0.0,0.0,0.0,0.0,0.0,0.0,0.0,0.0,0.0,0.0,0.0,0.0,0.0,0.0,0.0,0.0,0.0,0.0,0.0,0.0,0.0,0.0,0.0,0.0,0.0,0.0,0.0,0.0,0.0,0.0,0.0,0.0,0.0,0.0,0.0,0.0,0.0,0.0,0.0,0.0,0.0,0.0,0.0,0.0,0.0,0.0,0.0,0.0,0.0,0.0,0.0,0.0,0.0,0.0,0.0,0.0,0.0,0.0,0.0,0.0,0.0,0.0,0.0,0.0,0.0,0.0,0.5898,0.6296,0.6396,0.7694,0.8309,0.7859,0.7568,0.7214,0.6876,0.5202,0.0,0.0,0.0,0.0,0.0,0.0,0.0,0.0,0.0,0.0,0.0,0.0,0.0,0.0,0.0,0.0,0.0,0.0,0.0,0.0,0.0,0.0,0.0,0.0,0.0,0.0,0.0,0.0,0.0,0.0,0.0,0.0,0.0,0.0,0.0,0.0,0.0,0.0,0.0,0.0,0.0,0.0,0.0,0.0,0.0,0.0,0.0,0.0,0.0,0.0,0.0,0.0,0.0,0.0,0.0,0.0,0.0,0.0,0.0,0.0,0.0,0.0,0.0,0.0,0.0,0.0,0.0,0.0,0.0,0.0,0.0,0.0,0.0,0.0,0.0,0.0,0.0,0.0,0.0,0.0,0.0,0.0,0.0,0.0,0.0,0.0,0.0,0.0,0.0,0.0,0.0,0.0,0.0,0.0,0.0,0.0,0.0,0.0,0.0,0.0,0.0,0.0,0.8309,0.9237,0.7795,0.9427,0.9809,0.7931,0.7743,0.7395,0.6728,0.5251,0.0,0.0,0.0,0.0,0.0,0.0,0.0,0.0,0.0,0.0,0.0,0.0,0.0,0.0,0.0,0.0,0.0,0.0,0.0,0.0,0.0,0.0,0.0,0.0,0.0,0.0,0.0,0.0,0.0,0.0,0.0,0.0,0.0,0.0,0.0,0.0,0.0,0.0,0.0,0.0,0.0,0.0,0.0,0.0,0.0,0.0,0.0,0.0,0.0,0.0,0.0,0.0,0.0,0.0,0.0,0.0,0.0,0.0,0.0,0.0,0.0,0.0,0.0,0.0,0.0,0.0,0.0,0.0,0.0,0.0,0.0,0.0,0.0,0.0,0.0,0.0,0.0,0.0,0.0,0.0,0.0,0.0,0.0,0.0,0.0,0.0,0.0,0.0,0.0,0.0,0.0,0.0,0.0,0.0,0.0,0.0,0.0,0.0,0.0,0.0,0.0,0.0,0.7976,0.8896,0.0,0.9442,0.9593,0.8765,0.845,0.7831,0.6782,0.0,0.0,0.0,0.0,0.0,0.0,0.0,0.0,0.0,0.0,0.0,0.0,0.0,0.0,0.0,0.0,0.0,0.0,0.0,0.0,0.0,0.0,0.0,0.0,0.0,0.0,0.0,0.0,0.0,0.0,0.0,0.0,0.0,0.0,0.0,0.0,0.0,0.0,0.0,0.0,0.0,0.0,0.0,0.0,0.0,0.0,0.0,0.0,0.0,0.0,0.0,0.0,0.0,0.0,0.0,0.0,0.0,0.0,0.0,0.0,0.0,0.0,0.0,0.0,0.0,0.0,0.0,0.0,0.0,0.0,0.0,0.0,0.0,0.0,0.0,0.0,0.0,0.0,0.0,0.0,0.0,0.0,0.0,0.0,0.0,0.0,0.0,0.0,0.0,0.0,0.0,0.0,0.0,0.0,0.0,0.0,0.0,0.0,0.0,0.0,0.0,0.0,0.6533,0.7941,0.8938,0.929,0.99,0.9976,0.9372,0.8974,0.8164,0.6697,0.0,0.0,0.0,0.0,0.0,0.0,0.0,0.0,0.0,0.0,0.0,0.0,0.0,0.0,0.0,0.0,0.0,0.0,0.0,0.0,0.0,0.0,0.0,0.0,0.0,0.0,0.0,0.0,0.0,0.0,0.0,0.0,0.0,0.0,0.0,0.0,0.0,0.0,0.0,0.0,0.0,0.0,0.0,0.0,0.0,0.0,0.0,0.0,0.0,0.0,0.0,0.0,0.0,0.0,0.0,0.0,0.0,0.0,0.0,0.0,0.0,0.0,0.0,0.0,0.0,0.0,0.0,0.0,0.0,0.0,0.0,0.0,0.0,0.0,0.0,0.0,0.0,0.0,0.0,0.0,0.0,0.0,0.0,0.0,0.0,0.0,0.0,0.0,0.0,0.0,0.0,0.0,0.0,0.0,0.0,0.0,0.0,0.0,0.0,0.0,0.0,0.0,0.6573,0.8682,0.9871,0.9401,1.1099,1.1477,0.9523,0.9319,0.8485,0.0,0.0,0.0,0.0,0.0,0.0,0.0,0.0,0.0,0.0,0.0,0.0,0.0,0.0,0.0,0.0,0.0,0.0,0.0,0.0,0.0,0.0,0.0,0.0,0.0,0.0,0.0,0.0,0.0,0.0,0.0,0.0,0.0,0.0,0.0,0.0,0.0,0.0,0.0,0.0,0.0,0.0,0.0,0.0,0.0,0.0,0.0,0.0,0.0,0.0,0.0,0.0,0.0,0.0,0.0,0.0,0.0,0.0,0.0,0.0,0.0,0.0,0.0,0.0,0.0,0.0,0.0,0.0,0.0,0.0,0.0,0.0,0.0,0.0,0.0,0.0,0.0,0.0,0.0,0.0,0.0,0.0,0.0,0.0,0.0,0.0,0.0,0.0,0.0,0.0,0.0,0.0,0.0,0.0,0.0,0.0,0.0,0.0,0.0,0.0,0.0,0.0,0.0,0.6759,0.8643,1.0072,1.0358,1.0271,1.0196,1.034,0.9967,0.8761,0.6513,0.0,0.0,0.0,0.0,0.0,0.0,0.0,0.0,0.0,0.0,0.0,0.0,0.0,0.0,0.0,0.0,0.0,0.0,0.0,0.0,0.0,0.0,0.0,0.0,0.0,0.0,0.0,0.0,0.0,0.0,0.0,0.0,0.0,0.0,0.0,0.0,0.0,0.0,0.0,0.0,0.0,0.0,0.0,0.0,0.0,0.0,0.0,0.0,0.0,0.0,0.0,0.0,0.0,0.0,0.0,0.0,0.0,0.0,0.0,0.0,0.0,0.0,0.0,0.0,0.0,0.0,0.0,0.0,0.0,0.0,0.0,0.0,0.0,0.0,0.0,0.0,0.0,0.0,0.0,0.0,0.0,0.0,0.0,0.0,0.0,0.0,0.0,0.0,0.0,0.0,0.0,0.0,0.0,0.0,0.0,0.0,0.0,0.0,0.0,0.0,0.0,0.0,0.7418,0.9378,1.0688,1.0816,1.0265,0.9965,1.019,0.9669,0.8684,0.7049,0.0,0.0,0.0,0.0,0.0,0.0,0.0,0.0,0.0,0.0,0.0,0.0,0.0,0.0,0.0,0.0,0.0,0.0,0.0,0.0,0.0,0.0,0.0,0.0,0.0,0.0,0.0,0.0,0.0,0.0,0.0,0.0,0.0,0.0,0.0,0.0,0.0,0.0,0.0,0.0,0.0,0.0,0.0,0.0,0.0,0.0,0.0,0.0,0.0,0.0,0.0,0.0,0.0,0.0,0.0,0.0,0.0,0.0,0.0,0.0,0.0,0.0,0.0,0.0,0.0,0.0,0.0,0.0,0.0,0.0,0.0,0.0,0.0,0.0,0.0,0.0,0.0,0.0,0.0,0.0,0.0,0.0,0.0,0.0,0.0,0.0,0.0,0.0,0.0,0.0,0.0,0.0,0.0,0.0,0.0,0.0,0.0,0.0,0.0,0.0,0.0,0.0,0.8138,1.0281,1.1461,1.076,1.064,1.0265,0.9372,0.8902,0.8366,0.7814,0.0,0.0,0.0,0.0,0.0,0.0,0.0,0.0,0.0,0.0,0.0,0.0,0.0,0.0,0.0,0.0,0.0,0.0,0.0,0.0,0.0,0.0,0.0,0.0,0.0,0.0,0.0,0.0,0.0,0.0,0.0,0.0,0.0,0.0,0.0,0.0,0.0,0.0,0.0,0.0,0.0,0.0,0.0,0.0,0.0,0.0,0.0,0.0,0.0,0.0,0.0,0.0,0.0,0.0,0.0,0.0,0.0,0.0,0.0,0.0,1.0186,0.899,0.0,0.0,0.0,0.0,0.0,0.0,0.0,0.0,0.0,0.0,0.0,0.0,0.0,0.0,0.0,0.0,0.0,0.0,0.0,0.0,0.0,0.0,0.0,0.0,0.0,0.0,0.0,0.0,0.0,0.0,0.0,0.0,0.0,0.0,0.0,0.0,0.0,0.0,0.0,0.0,0.7205,0.9306,1.0434,0.9718,0.9593,0.9523,0.9296,0.896,0.8589,0.8115,0.6738,0.0,0.0,0.0,0.0,0.0,0.0,0.0,0.0,0.0,0.0,0.0,0.0,0.0,0.0,0.0,0.0,0.0,0.0,0.0,0.0,0.0,0.0,0.0,0.0,0.0,0.0,0.0,0.0,0.0,0.0,0.0,0.0,0.0,0.0,0.0,0.0,0.0,0.0,0.0,0.0,0.0,0.0,0.0,0.0,0.0,0.0,0.0,0.0,0.0,0.0,0.0,0.0,0.0,0.0,0.0,0.0,0.0,0.0,0.0,1.2638,1.1388,0.0,0.0,0.0,0.0,0.0,0.0,0.0,0.0,0.0,0.0,0.0,0.0,0.0,0.0,0.0,0.0,0.0,0.0,0.0,0.0,0.0,0.0,0.0,0.0,0.0,0.0,0.0,0.0,0.0,0.0,0.0,0.0,0.0,0.0,0.0,0.0,0.0,0.0,0.0,0.0,0.8278,1.0219,1.1259,1.0529,0.9922,0.9564,0.9463,0.8713,0.8215,0.8305,0.6961,0.0,0.0,0.0,0.0,0.0,0.0,0.0,0.0,0.0,0.0,0.0,0.0,0.0,0.0,0.0,0.0,0.0,0.0,0.0,0.0,0.0,0.0,0.0,0.0,0.0,0.0,0.0,0.0,0.0,0.0,0.0,0.0,0.0,0.0,0.0,0.0,0.0,0.0,0.0,0.0,0.0,0.0,0.0,0.0,0.0,0.0,0.0,0.0,0.0,0.0,0.0,0.0,0.0,1.5631,1.6318,1.7275,1.6982,1.7051,1.7305,1.5508,1.4407,1.3737,1.2825,0.0,0.0,0.0,0.0,0.0,0.0,0.0,0.0,0.0,0.0,0.0,0.0,0.0,0.0,0.0,0.0,0.0,0.0,0.0,0.0,0.0,0.0,1.008,0.0,1.1403,1.1182,0.9726,0.0,0.0,0.0,0.0,0.0,0.0,0.0,0.0,0.0,0.0,0.0,0.9606,1.1382,1.2201,1.1232,1.0353,0.9707,0.9221,0.8238,0.7899,0.8255,0.7015,0.6121,0.0,0.0,0.0,0.0,0.0,0.0,0.0,0.0,0.0,0.0,0.0,0.0,0.0,0.0,0.0,0.0,0.0,0.0,0.0,0.0,0.0,0.0,0.0,0.0,0.0,0.0,0.0,0.0,0.0,0.0,0.0,0.0,0.7786,0.7843,0.0,0.0,0.0,0.0,0.0,0.0,0.0,0.0,0.0,0.0,0.0,0.0,0.0,1.3811,1.5095,1.6398,1.722,1.7552,1.9121,1.9697,1.9502,1.9824,2.001,2.0039,1.9766,0.0,1.5642,1.4683,0.0,0.0,0.0,0.0,0.0,0.0,0.0,0.0,0.0,0.0,0.0,0.0,0.0,0.0,0.0,0.0,0.0,0.0,0.0,0.0,0.0,0.0,1.2258,1.2151,1.2158,1.2124,1.1891,1.1042,1.008,0.9176,0.8493,0.7514,0.0,0.0,0.0,0.0,0.0,0.0,0.9143,1.0631,1.0884,0.8896,0.9375,0.9122,0.7241,0.7729,0.8004,0.7711,0.6535,0.611,0.6697,0.5396,0.0,0.0,0.0,0.0,0.0,0.0,0.0,0.0,0.0,0.0,0.0,0.0,0.0,0.0,0.0,0.0,0.0,0.0,0.0,0.0,0.0,0.0,0.0,0.0,0.0,0.0,0.0,0.0,0.0,0.7375,0.8394,0.9289,0.9024,0.8714,0.0,0.0,0.0,0.0,0.0,0.0,0.0,0.0,0.0,1.5438,1.6103,1.6947,1.8056,1.8858,1.9447,1.9834,2.0586,2.0967,2.1025,2.1221,2.1309,2.1309,2.1309,2.042,1.8877,1.7427,1.5927,1.4373,0.0,0.0,0.0,0.0,1.2707,1.222,1.3324,1.3254,1.2488,1.1927,0.0,0.0,0.0,0.0,0.0,0.0,0.0,1.1603,1.2111,1.2746,1.33,1.35,1.3674,1.3754,1.3587,1.3146,1.2378,1.0989,1.0279,0.9263,0.7187,0.7138,0.0,0.0,0.0,0.9211,1.0088,1.0518,1.0435,0.9634,0.9395,0.8932,0.7915,0.759,0.7398,0.7148,0.6451,0.6212,0.6406,0.5621,0.5047,0.0,0.0,0.0,0.0,0.0,0.0,0.0,0.0,0.0,0.0,0.0,0.0,0.0,0.0,0.0,0.0,0.0,0.0,0.0,0.0,0.0,0.0,0.0,0.0,0.0,0.0,0.0,0.0,0.8534,0.9502,1.0787,1.0619,1.0379,0.0,0.0,0.0,0.0,0.0,0.0,1.4594,1.5385,1.6478,1.8046,1.8841,1.9658,2.041,2.085,2.123,2.1562,2.167,2.1894,2.2207,2.2207,2.2207,2.2207,2.2207,2.1963,2.1435,1.9805,1.8237,1.6886,1.649,1.5865,1.53,1.5809,1.5356,1.4706,1.5799,1.549,1.4515,1.3851,1.3469,1.3136,1.175,0.0,0.0,0.0,0.0,1.2605,1.3353,1.3761,1.4088,1.4529,1.4803,1.4903,1.4683,1.4636,1.4155,1.2525,1.2031,1.1108,0.888,0.9006,0.0,0.8708,0.9253,1.004,1.0678,1.0537,1.0174,0.9726,0.9231,0.8748,0.8349,0.771,0.7215,0.6766,0.6515,0.6322,0.6207,0.5918,0.5586,0.5209,0.0,0.0,0.0,0.0,0.0,0.0,0.0,0.0,0.0,0.0,0.0,0.0,0.0,0.0,0.0,0.0,0.0,0.0,0.0,0.0,0.0,0.0,0.0,0.0,0.0,0.0,0.0,0.0,0.0,1.2384,1.3793,0.0,0.0,0.0,0.0,1.3459,1.5079,1.649,1.7346,1.8428,1.9632,2.0946,2.1014,2.1328,2.1777,2.2207,2.2422,2.2451,2.2852,2.3057,2.3076,2.3076,2.3076,2.3076,2.3076,2.2832,2.2344,2.1016,1.9726,1.8513,1.8119,1.751,1.6957,1.81,1.8455,1.8271,1.751,1.7162,1.6798,1.505,1.4092,1.354,1.35,1.31,0.0,0.0,1.3534,1.4048,1.4369,1.4676,1.4903,1.4937,1.495,1.4963,1.4943,1.4943,1.4583,0.0,1.3133,1.2595,1.0959,0.0,1.0773,1.101,1.132,1.1245,1.0357,1.0454,0.973,0.7485,0.8277,0.8452,0.7305,0.8025,0.8102,0.7001,0.6766,0.6675,0.6668,0.6383,0.6149,0.5976,0.5264,0.0,0.0,0.0,0.0,0.0,0.0,0.0,0.0,0.0,0.0,0.0,0.0,0.0,0.0,0.0,0.0,0.0,0.0,0.0,0.0,0.0,0.0,0.0,0.0,0.0,0.0,0.0,0.0,1.4667,1.497,0.0,1.5019,1.5596,1.6107,1.6615,1.7859,1.8998,1.987,2.0294,2.1006,2.2021,2.206,2.2266,2.2685,2.2842,2.292,2.292,2.3066,2.3135,2.3135,2.3135,2.3135,2.3135,2.3135,2.3057,2.2881,2.2412,2.1642,2.0671,1.9677,1.912,1.8813,1.8533,1.7913,1.7259,1.697,1.6425,1.5691,1.5028,1.4663,1.4496,1.4496,1.4342,1.4235,1.4536,1.477,1.4997,1.5291,1.5444,1.5518,1.5518,1.5518,1.5518,1.5518,1.5518,1.5344,1.4736,1.3608,1.238,1.0947,1.0493,1.0238,0.969,0.9736,0.9803,0.9643,0.9022,0.8341,0.7526,0.7802,0.7851,0.7299,0.7681,0.7566,0.6939,0.6783,0.6658,0.6559,0.6366,0.6186,0.6034,0.5671,0.522,0.0,0.0,0.0,0.0,0.0,0.0,0.0,0.0,0.0,0.0,0.0,0.0,0.0,0.0,0.0,0.0,0.0,0.0,0.0,0.0,0.0,0.0,0.0,0.0,0.0,1.3738,1.5323,1.6573,1.6887,1.7085,1.7304,1.8005,1.8656,1.9203,2.0236,2.1045,2.1641,2.1797,2.2139,2.2705,2.2725,2.2861,2.3135,2.3135,2.3135,2.3135,2.3135,2.3135,2.3135,2.3135,2.3135,2.3047,2.2677,2.2492,2.2492,2.2041,2.1549,2.1077,2.105,2.105,2.0869,1.9644,1.877,1.8057,1.728,1.6223,1.5257,1.5257,1.5257,1.5257,1.5257,1.5257,1.5297,1.5484,1.5538,1.5585,1.5778,1.5832,1.5832,1.5832,1.5439,1.5146,1.5146,1.5146,1.5089,1.491,1.3835,1.2578,1.1548,1.0912,1.0255,0.9598,0.9629,0.957,0.933,0.861,0.8059,0.76,0.76,0.7539,0.7383,0.7322,0.719,0.6946,0.6783,0.663,0.6478,0.6335,0.6186,0.6034,0.5783,0.541,0.4918,0.0,0.0,0.0,0.0,0.0,0.0,0.0,0.0,0.0,0.0,0.0,0.0,0.0,0.0,0.0,0.0,0.0,0.0,0.0,0.0,0.0,0.0,0.0,1.4439,1.629,1.7821,1.8086,1.959,2.0283,1.9463,2.0537,2.1279,2.1289,2.206,2.2529,2.2529,2.292,2.3135,2.3135,2.3135,2.3135,2.3135,2.3135,2.3135,2.3135,2.3135,2.3144,2.3154,2.3144,2.3144,2.3067,2.1854,2.1391,2.1293,2.0124,1.9588,1.9852,2.2041,2.296,2.2775,2.1569,2.1114,2.0755,1.8411,1.6857,1.5832,1.5832,1.5832,1.5832,1.5832,1.5832,1.5832,1.5832,1.5832,1.5832,1.5832,1.5832,1.5832,1.5832,1.4854,1.3878,1.3878,1.3878,1.3878,1.3878,1.3578,1.3234,1.3082,1.1935,1.1104,1.1104,1.1012,0.0,0.9452,0.927,0.8812,0.7705,0.7614,0.755,0.7394,0.7241,0.7088,0.6932,0.6776,0.6627,0.6478,0.6335,0.6193,0.6044,0.5606,0.524,0.4948,0.0,0.0,0.0,0.0,0.0,0.0,0.0,0.0,0.0,0.0,0.0,0.0,0.0,0.0,0.0,0.0,0.0,0.0,0.0,0.0,0.0,1.6334,1.7849,1.6831,1.848,1.9879,2.0245,2.1045,2.1553,2.1621,2.1953,2.2285,2.2588,2.2832,2.2969,2.2969,2.3076,2.3135,2.3135,2.3135,2.3135,2.3135,2.3135,2.3135,2.3135,2.3135,2.3301,2.3603,2.3281,2.331,2.3594,2.2909,2.2589,2.2589,2.2227,2.2138,2.1952,1.996,1.9147,1.9047,1.7755,1.7289,1.7196,1.6567,1.6109,1.5832,1.5832,1.5832,1.5832,1.5832,1.5832,1.5832,1.5832,1.5832,1.5832,1.5832,1.5832,1.5832,1.5832,1.4854,1.3878,1.3878,1.3102,1.2431,1.2431,1.1599,1.154,1.3294,1.1753,1.0325,1.0325,0.9453,0.8683,0.8398,0.8398,0.8206,0.7916,0.7919,0.7814,0.756,0.7499,0.7268,0.6793,0.662,0.6515,0.6474,0.6335,0.6288,0.6349,0.6017,0.5752,0.0,0.0,0.0,0.0,0.0,0.0,0.0,0.0,0.0,0.0,0.0,0.0,0.0,0.0,0.0,0.0,0.0,0.0,0.0,0.0,0.0,0.0,1.8537,1.9984,1.9687,2.0661,2.1475,2.1738,2.2148,2.251,2.2754,2.2773,2.2881,2.3125,2.3135,2.3135,2.3135,2.3135,2.3223,2.3408,2.3408,2.3496,2.3672,2.3672,2.3672,2.3672,2.3124,2.2966,2.3202,2.2382,2.2126,2.2335,2.1538,2.1156,2.1156,2.0593,2.0408,2.0374,0.0,0.0,0.0,0.0,1.6298,1.5832,1.5832,1.5832,1.5832,1.5832,1.5832,1.5832,1.5832,1.5832,1.5832,1.5832,1.5832,1.5832,1.5832,1.5832,1.5832,1.5832,1.437,1.3102,1.3102,1.2042,1.1072,1.1072,1.0974,0.0,1.2813,1.0872,0.9118,0.9118,0.8531,0.8038,0.8038,0.8038,0.8038,0.8038,0.8038,0.7943,0.7709,0.7577,0.0,0.0,0.0,0.6539,0.6474,0.6335,0.0,0.0,0.0,0.0,0.0,0.0,0.0,0.0,0.61,0.6136,0.0,0.0,0.0,0.0,0.0,0.0,0.0,0.0,0.0,0.0,0.0,0.0,0.0,0.0,0.0,0.0,2.0527,2.166,2.2471,2.2578,2.2578,2.2578,2.291,2.3135,2.3135,2.3135,2.3135,2.3135,2.3184,2.3213,2.3213,2.3252,0.0,0.0,0.0,2.4043,2.4414,2.4229,2.4127,2.4127,2.2793,2.2245,2.2185,2.0979,2.0401,2.0434,1.9244,1.8746,1.8656,1.7584,1.6993,1.7138,1.9759,2.0779,2.0508,1.8342,1.6862,1.5925,1.5925,0.0,0.0,1.5879,1.5852,1.5832,1.5832,1.5832,1.5832,1.5832,1.5832,1.5832,1.5832,1.5832,1.5832,1.5832,1.3788,1.1945,1.1945,1.0779,0.9805,0.9805,1.0681,1.1458,1.1458,0.9702,0.8233,0.8233,0.8137,0.8038,0.8038,0.8038,0.8038,0.8038,0.8038,0.0,0.7824,0.7573,0.7346,0.7177,0.6922,0.6709,0.6552,0.6461,0.6464,0.6569,0.6705,0.6844,0.698,0.7241,0.7319,0.7197,0.6366,0.6264,0.0,0.0,0.0,0.0,0.0,0.0,0.0,0.0,0.0,0.0,0.0,0.0,0.0,0.0,0.0,2.0061,2.1416,2.2441,2.2939,2.3018,2.3018,2.3018,2.3086,2.3135,2.3135,2.3135,2.3135,2.3135,2.3467,2.3662,2.3662,2.3984,2.4209,2.4287,2.4297,2.4336,2.4414,2.3374,2.2802,2.2793,2.144,0.0,2.1285,2.0702,2.0532,2.0884,2.0313,1.999,1.9998,1.9805,1.9033,1.8156,1.7738,1.7583,1.7492,1.7119,1.6731,1.654,1.654,1.638,1.6186,1.6186,1.6025,1.5832,1.5832,1.5832,0.0,1.5832,1.5832,1.5832,1.5832,1.5832,1.5832,1.5832,1.3788,1.1945,1.1945,1.0096,0.8432,0.8432,0.8627,0.8726,0.8726,0.9217,0.9608,0.9608,0.8726,0.8038,0.8038,0.8038,0.8038,0.8038,0.8038,0.7977,0.7824,0.7756,0.7611,0.7343,0.7272,0.7173,0.7017,0.7224,0.7295,0.7197,0.7227,0.7258,0.7285,0.7343,0.7478,0.7672,0.7261,0.7129,0.0,0.0,0.0,0.0,0.0,0.0,0.0,0.0,0.0,0.0,0.0,1.6015,1.7241,0.0,2.0138,2.1316,2.2266,2.29,2.3105,2.3135,2.3135,2.3135,2.3135,2.3135,2.3135,2.3135,2.3232,2.3447,2.3662,2.3887,2.4092,2.4307,2.4521,2.4736,2.4746,2.4552,2.4068,2.4087,2.3703,2.3,2.1705,2.1205,2.127,1.9706,1.9123,1.9264,1.91,1.9033,1.9033,1.9033,1.8636,1.7946,1.7346,1.6967,1.6707,1.6707,1.6707,1.6707,1.6707,1.6613,1.6486,1.6486,1.6393,1.6266,1.6266,1.6266,1.6266,1.6266,1.6266,1.6266,1.6266,1.6266,1.6266,1.6266,1.4172,1.2112,1.2112,0.9962,0.8038,0.8038,0.8038,0.8038,0.8038,0.8528,0.9019,0.9019,0.8432,0.8038,0.8038,0.8038,0.8038,0.8038,0.8038,0.8007,0.7933,0.7855,0.7719,0.7499,0.7485,0.7451,0.7373,0.7519,0.7563,0.7489,0.7556,0.759,0.759,0.7668,0.778,0.7923,0.7773,0.7706,0.0,0.0,0.0,0.0,0.0,0.0,0.0,1.4676,1.5278,1.6402,1.7366,1.8255,1.9315,2.0541,2.1738,2.251,2.292,2.3135,2.3135,2.3135,2.3135,2.3135,2.3135,2.3135,2.3135,2.3213,2.3408,2.3769,2.3945,2.4189,2.4521,2.4629,2.473,2.4785,2.509,2.4562,2.3276,2.4402,2.4402,2.3276,2.1651,2.1041,2.1245,1.8708,1.7582,1.7582,1.7582,1.7786,1.7989,1.7687,1.7582,1.7582,1.7582,1.7295,1.6874,1.6874,1.6874,1.6874,1.6874,1.684,1.6794,1.6794,1.6754,1.6707,1.6707,1.6707,1.6707,1.6707,1.6707,1.6707,1.6707,1.6707,1.6707,1.6707,1.4495,1.244,1.244,1.0109,0.8116,0.8089,0.8082,0.8075,0.8045,0.8038,0.8038,0.8038,0.8038,0.8038,0.8038,0.8038,0.8038,0.8038,0.8038,0.8038,0.8038,0.7926,0.7807,0.7692,0.7685,0.7685,0.7685,0.7685,0.7685,0.7685,0.7797,0.7855,0.7855,0.798,0.8038,0.8038,0.8038,0.8038,0.9365,1.0595,1.2237,1.4207,1.5251,1.648,0.0,1.9432,1.9418,1.9944,2.0751,2.1413,2.1559,2.1967,2.2519,2.2988,2.3105,2.3135,2.3135,2.3135,2.3135,2.3135,2.3135,2.3135,2.3135,2.3486,2.374,2.3789,2.4492,2.4941,2.499,2.5371,2.5004,2.3925,2.5051,2.4464,2.1954,2.2055,2.2055,2.1853,1.9317,1.8708,1.9826,1.8297,1.7582,1.7582,1.7582,1.8304,1.9324,1.8094,1.7582,1.7582,1.7582,1.7542,1.7482,1.7482,1.7482,1.7482,1.7482,1.7315,1.7101,1.7101,1.6921,1.6707,1.6707,1.6707,1.6707,1.6707,1.6707,1.6707,1.6707,1.6707,1.6707,1.6707,1.4624,1.2562,1.2562,1.0393,0.8394,0.8269,0.8245,0.8201,0.8062,0.8038,0.8038,0.8038,0.8038,0.8038,0.8038,0.8038,0.8038,0.8038,0.8038,0.8038,0.8038,0.8024,0.8007,0.7991,0.7991,0.7991,0.7991,0.7991,0.7991,0.7991,0.8007,0.8014,0.8014,0.8031,0.8038,0.8038,0.8038,0.8038,1.2062,1.3163,1.4204,1.6012,1.7375,1.856,1.9668,2.0101,2.0557,2.1504,2.1992,2.2324,2.2568,2.2754,2.293,2.3105,2.3135,2.3135,2.3135,2.3135,2.3135,2.3135,2.3135,2.3135,2.3135,2.3535,2.3896,2.4141,2.4727,2.5176,2.5439,2.4916,2.4304,2.3692,2.3484,2.2868,2.1752,2.1752,2.1752,2.1651,2.0531,1.9826,1.9627,1.9013,1.8297,1.7687,1.8401,1.8603,1.8401,1.7786,1.7582,1.7582,1.7582,1.7582,1.7582,1.7582,1.7582,1.7582,1.7582,1.7502,1.7402,1.7402,1.7315,1.7215,1.7215,1.7215,1.7215,1.7215,1.7215,1.7215,1.7215,1.7215,1.7001,1.6154,1.4348,1.2576,1.175,0.9999,0.8465,0.8404,0.8394,0.8374,0.8309,0.8228,0.8174,0.8174,0.8096,0.8038,0.8038,0.8038,0.8038,0.8038,0.8038,0.8038,0.8038,0.8038,0.8038,0.8038,0.8038,0.8038,0.8038,0.8038,0.8038,0.8038,0.8038,0.8038,0.8038,0.8038,0.8085,0.8174,0.8174,0.8218,1.3537,1.4747,1.5721,1.7379,1.9118,2.0411,2.0269,2.078,2.1543,2.249,2.2685,2.2783,2.3086,2.3135,2.3135,2.3135,2.3135,2.3135,2.3135,2.3135,2.3135,2.3135,2.3135,2.3135,2.3135,2.3535,2.3965,2.4385,2.4814,2.5158,2.5099,2.4609,2.3692,2.2576,2.2366,2.1853,2.1143,2.1143,2.1347,2.1752,2.1347,2.0641,1.9627,1.922,1.8708,1.8199,1.8812,1.8708,1.8094,1.7786,1.7582,1.7589,1.7675,1.7709,1.7709,1.7709,1.7655,1.7582,1.7582,1.7582,1.7582,1.7582,1.7582,1.7582,1.7582,1.7582,1.7582,1.7582,1.7582,1.7477,1.7147,1.7041,1.6611,1.5204,1.3667,1.2167,1.122,0.9743,0.8598,0.8554,0.8547,0.853,0.8489,0.8397,0.833,0.833,0.8231,0.8133,0.8052,0.8038,0.8038,0.8038,0.8038,0.8038,0.8038,0.8038,0.8038,0.8038,0.8038,0.8038,0.8038,0.8038,0.8038,0.8038,0.8082,0.8102,0.8102,0.8143,0.8218,0.833,0.833,0.8384,1.2573,1.4388,1.6422,1.8346,2.0375,2.1934,2.2353,2.2773,2.3076,2.3105,2.3125,2.3125,2.3135,2.3135,2.3135,2.3135,2.3135,2.3135,2.3135,2.3135,2.3135,2.3135,2.3135,2.3135,2.3135,2.3535,2.3965,2.4385,2.4814,2.4756,2.3773,2.4922,2.38,1.9826,2.2265,2.2366,1.9731,1.9627,2.0333,2.1651,2.0333,1.9627,1.9524,1.8304,1.8297,1.942,1.8199,1.8401,1.942,1.8094,1.7582,1.7609,1.7916,1.8029,1.8029,1.8029,1.7842,1.7582,1.7582,1.7582,1.7582,1.7582,1.7582,1.7582,1.7582,1.7582,1.7582,1.7582,1.7582,1.7259,1.5849,1.5417,1.5091,1.3696,1.2181,1.1097,1.1097,0.9904,0.8879,0.873,0.8703,0.8655,0.8509,0.8479,0.8476,0.8476,0.8472,0.8364,0.8075,0.8038,0.8038,0.8038,0.8038,0.8038,0.8038,0.8038,0.8038,0.8038,0.8038,0.8038,0.8038,0.8038,0.8038,0.8038,0.8187,0.8262,0.8262,0.8401,0.8472,0.8476,0.8476,0.8479,1.3548,1.4912,1.6237,1.8011,1.9177,2.0192,2.1374,2.1841,2.1933,2.1933,2.1933,2.1585,2.0616,2.1228,2.185,2.1677,2.2495,2.3135,2.3135,2.3389,2.3467,2.3174,2.3389,2.3457,2.3164,2.3535,2.3965,2.4385,2.3937,2.3657,2.3665,2.2374,2.1456,2.1041,2.0128,2.0538,2.2265,2.0546,2.0743,2.2976,2.0877,2.0376,2.1211,2.0074,1.9233,1.8923,1.9334,1.9233,1.8822,1.8401,1.8183,1.8196,1.8303,1.8343,1.8343,1.8343,1.8277,1.813,1.7722,1.7582,1.7582,1.7582,1.7582,1.7582,1.7582,1.7582,1.7582,1.7582,1.7582,1.7252,1.5743,1.5417,1.477,1.2403,1.1428,1.0781,0.9805,0.9265,0.8923,0.8872,0.8862,0.8845,0.8794,0.8703,0.8601,0.8499,0.8482,0.8411,0.8218,0.8194,0.8153,0.8052,0.8038,0.8038,0.8038,0.8038,0.8038,0.8038,0.8038,0.8038,0.8038,0.8038,0.8089,0.8191,0.8245,0.8316,0.8411,0.8459,0.8533,0.8632,0.8632,0.8686,1.4513,1.5464,1.6392,1.824,1.8888,1.9289,2.0425,2.0666,2.0622,2.0491,2.0439,2.0096,1.9075,1.9634,2.0236,2.0271,2.1146,2.2008,2.2621,2.2628,2.2868,2.3444,2.3376,2.3343,2.3534,2.3848,2.3939,2.3727,2.3253,2.277,2.2248,2.1049,2.0333,2.0231,1.9121,2.0008,2.3186,2.1051,2.1115,2.3286,2.0726,2.0201,2.147,2.0308,1.9339,1.8601,1.9442,1.9339,1.849,1.849,1.849,1.8504,1.8604,1.8644,1.8644,1.8644,1.8644,1.8571,1.8083,1.7836,1.7749,1.7749,1.7669,1.7582,1.7582,1.7582,1.7582,1.7582,1.7252,1.6499,1.499,1.4234,1.3264,1.0891,1.0347,1.0025,0.9154,0.894,0.894,0.894,0.894,0.894,0.894,0.8859,0.8757,0.8659,0.8645,0.8574,0.8374,0.8347,0.8306,0.8208,0.8197,0.8197,0.8197,0.8197,0.8197,0.8197,0.8197,0.8197,0.8197,0.8197,0.8245,0.8343,0.8397,0.8472,0.8564,0.8618,0.8696,0.8791,0.8791,0.8845,1.5316,1.6079,1.6733,1.8781,1.9314,1.9314,1.9405,1.9389,1.9266,1.8985,1.87,1.8427,1.8283,1.8229,1.8271,1.8858,1.9241,2.0103,2.1787,2.1131,2.1362,2.4034,2.3196,2.2914,2.4137,2.4341,2.3887,2.247,2.2715,2.1999,1.9738,2.0885,2.038,1.7833,1.9261,2.0778,2.2349,2.13,2.1464,2.2642,1.9895,1.9257,2.0528,1.9168,1.8537,1.8537,1.8537,1.8537,1.8537,1.8537,1.8537,1.8564,1.8838,1.8945,1.8945,1.8945,1.8945,1.8905,1.8631,1.833,1.807,1.807,1.7869,1.7629,1.7629,1.7615,1.7609,1.7609,1.6511,1.5091,1.3696,1.2186,1.0781,0.9265,0.894,0.894,0.894,0.894,0.894,0.894,0.894,0.894,0.894,0.894,0.894,0.894,0.894,0.8832,0.8533,0.8492,0.8489,0.8482,0.8482,0.8482,0.8482,0.8482,0.8482,0.8482,0.8482,0.8482,0.8482,0.8482,0.8486,0.8492,0.8635,0.8713,0.8723,0.8869,0.894,0.894,0.894,0.894,1.4916,1.5542,1.6088,1.6598,1.6749,1.7023,1.7956,1.7934,1.7655,1.7156,1.6761,1.6131,1.4518,1.5666,1.6745,1.6752,1.8418,2.0298,2.1823,2.1353,2.1362,2.2735,2.2858,2.2826,2.2923,2.4135,2.404,2.1852,2.1862,2.1269,2.0084,1.9606,1.9419,1.9722,1.9178,2.0077,2.2405,2.2167,2.2215,2.2536,2.0963,2.0427,2.0759,1.97,1.9145,1.9145,1.9145,1.9145,1.9145,1.9145,1.9145,1.9152,1.9225,1.9252,1.9252,1.9252,1.9252,1.9239,1.9172,1.8811,1.8377,1.8377,1.8323,1.8257,1.8257,1.8103,1.7929,1.7929,1.6668,1.5091,1.3696,1.2186,1.0781,0.9265,0.894,0.894,0.894,0.894,0.894,0.894,0.894,0.894,0.894,0.894,0.894,0.894,0.894,0.8869,0.8676,0.8652,0.8608,0.8496,0.8482,0.8482,0.8482,0.8482,0.8482,0.8482,0.8482,0.8482,0.8482,0.8482,0.8537,0.8652,0.8693,0.8767,0.8879,0.892,0.894,0.894,0.894,0.894,1.4983,1.5484,1.5832,1.5832,1.5832,1.5913,1.6246,1.6178,1.5748,1.477,1.4417,1.3895,1.2445,1.3669,1.4972,1.4936,1.6692,1.869,2.0334,1.9881,2.0006,2.1841,2.1725,2.1668,2.2054,2.3082,2.2994,2.106,2.1385,2.1026,1.9485,1.8824,1.8809,1.9552,1.9042,1.9828,2.2127,2.2127,2.2127,2.2135,2.0786,2.0217,2.0217,1.9625,1.9366,1.9366,1.9366,1.9366,1.9366,1.9366,1.9366,1.9366,1.9366,1.9366,1.9366,1.9366,1.9366,1.9366,1.9366,1.9152,1.8858,1.8724,1.8597,1.849,1.849,1.837,1.8018,1.7334,1.5991,1.4433,1.2894,1.1458,1.0134,0.9356,0.9133,0.9133,0.9133,0.9079,0.9015,0.895,0.894,0.894,0.894,0.894,0.894,0.894,0.894,0.8906,0.8821,0.8811,0.8777,0.8693,0.8682,0.8682,0.8682,0.8682,0.8682,0.8682,0.8682,0.8682,0.8682,0.8682,0.8723,0.8808,0.8811,0.8852,0.894,0.894,0.894,0.894,0.9001,0.9032,1.5378,1.5638,1.5832,1.5832,1.5798,1.5551,1.471,1.4429,1.3935,1.2485,1.2124,1.1904,1.1356,1.2225,1.3153,1.3527,1.4816,1.6457,1.8453,1.7851,1.8263,2.1103,2.0333,2.0048,2.131,2.1816,2.1522,2.0248,2.1301,2.0918,1.8642,1.8584,1.8611,1.8611,1.8851,1.977,2.1252,2.1365,2.1365,2.1252,2.0033,1.9366,1.9366,1.9366,1.9366,1.9366,1.9366,1.9366,1.9366,1.9366,1.9366,1.9366,1.9366,1.9366,1.9366,1.9366,1.9366,1.9366,1.9366,1.9366,1.9325,1.9065,1.8811,1.8611,1.8611,1.8577,1.8203,1.6594,1.509,1.3477,1.188,1.0405,0.9381,0.9381,0.9381,0.9381,0.9381,0.9262,0.9117,0.8991,0.895,0.894,0.894,0.894,0.894,0.894,0.894,0.894,0.894,0.894,0.894,0.894,0.894,0.894,0.894,0.894,0.894,0.894,0.894,0.894,0.894,0.894,0.894,0.894,0.894,0.894,0.894,0.894,0.8947,0.8971,0.9093,0.9164,1.5671,1.5792,1.5832,1.5832,1.5651,1.5304,1.4663,1.3961,1.3086,1.183,1.1196,1.0755,1.0408,1.1303,1.2365,1.3153,1.4516,1.6223,1.8424,1.7851,1.786,1.9686,1.9731,1.9843,2.0324,2.145,2.1722,2.0883,2.1031,2.0412,1.8951,1.9078,1.9212,1.9212,1.9265,1.9428,1.9815,1.9815,1.9815,1.9815,1.9482,1.9366,1.9366,1.9366,1.9366,1.9366,1.9366,1.9366,1.9366,1.9366,1.9366,1.9366,1.9366,1.9366,1.9366,1.9366,1.9366,1.9366,1.9366,1.9366,1.9359,1.9305,1.9259,1.9212,1.9212,1.9045,1.8499,1.6864,1.5216,1.3477,1.188,1.0405,0.9381,0.9381,0.9381,0.9381,0.9381,0.9262,0.9147,0.912,0.9018,0.894,0.894,0.894,0.894,0.894,0.894,0.894,0.894,0.894,0.894,0.894,0.894,0.894,0.894,0.894,0.894,0.894,0.894,0.894,0.894,0.894,0.894,0.894,0.894,0.894,0.894,0.894,0.8998,0.9117,0.914,0.9222,1.5752,1.5832,1.5832,1.5832,1.5498,1.4937,1.4041,1.3153,1.2131,1.0795,1.0301,0.9967,0.9519,1.0641,1.1784,1.2211,1.352,1.5014,1.6711,1.6655,1.698,1.8189,1.8555,1.8816,1.8963,1.9917,2.023,1.9878,2.0054,1.9811,1.9152,1.9292,1.9366,1.9366,1.9366,1.9366,1.9366,1.9366,1.9366,1.9366,1.9366,1.9366,1.9366,1.9366,1.9366,1.9366,1.9366,1.9366,1.9366,1.9366,1.9366,1.9366,1.9366,1.9366,1.9366,1.9366,1.9366,1.9366,1.9366,1.9366,1.9366,1.9366,1.9366,1.9366,1.9366,1.9265,1.8679,1.6204,1.4945,1.3698,1.1244,1.0076,0.9608,0.9608,0.9608,0.9591,0.9517,0.9442,0.9367,0.9286,0.915,0.9049,0.9049,0.9049,0.9049,0.9049,0.9049,0.9049,0.9049,0.8984,0.894,0.894,0.894,0.894,0.894,0.894,0.894,0.894,0.894,0.894,0.894,0.894,0.894,0.894,0.9011,0.9049,0.9052,0.913,0.9205,0.9273,0.9354,0.9432,1.5671,1.5785,1.5832,1.5832,1.5344,1.4563,1.3387,1.2371,1.1283,0.988,0.9539,0.9372,0.8971,1.008,1.1156,1.147,1.2605,1.3908,1.5211,1.5698,1.6233,1.7054,1.7682,1.807,1.8136,1.8617,1.8951,1.9011,1.9232,1.9366,1.9366,1.9366,1.9366,1.9366,1.9366,1.9366,1.9366,1.9366,1.9366,1.9366,1.9366,1.9366,1.9366,1.9366,1.9366,1.9366,1.9366,1.9366,1.9366,1.9366,1.9366,1.9366,1.9366,1.9366,1.9366,1.9366,1.9366,1.9366,1.9366,1.9366,1.9366,1.9366,1.9366,1.9366,1.9366,1.9366,1.8765,1.5553,1.4604,1.3889,1.066,0.9822,0.9822,0.9822,0.9822,0.9791,0.968,0.9632,0.9574,0.9452,0.9306,0.9201,0.9201,0.9201,0.9201,0.9201,0.9201,0.9201,0.9201,0.9103,0.9035,0.9035,0.8977,0.894,0.894,0.894,0.894,0.894,0.894,0.894,0.894,0.8967,0.8984,0.8984,0.9127,0.9201,0.9201,0.9323,0.9398,0.9435,0.9554,0.9625,1.5431,1.5625,1.5832,1.5832,1.519,1.4255,1.3086,1.1917,1.0735,0.9469,0.9072,0.8951,0.9103,0.9552,1.0281,1.1617,1.2466,1.3434,1.515,1.5879,1.646,1.7074,1.7682,1.8156,1.8424,1.8738,1.9038,1.9305,1.9352,1.9366,1.9366,1.9366,1.9366,1.9366,1.9366,1.9366,1.9366,1.9366,1.9366,1.9366,1.9366,1.9366,1.9366,1.9366,1.9366,1.9366,1.9366,1.9366,1.9366,1.9366,1.9366,1.9366,1.9366,1.9366,1.9366,1.9366,1.9366,1.9366,1.9366,1.9366,1.9366,1.9366,1.9366,1.9366,1.9366,1.9366,1.8765,1.5553,1.4604,1.3889,1.066,0.9822,0.9822,0.9822,0.9822,0.9819,0.9805,0.97,0.9605,0.9591,0.9466,0.9361,0.9361,0.9361,0.9361,0.9361,0.9361,0.9361,0.9361,0.9351,0.934,0.934,0.91,0.894,0.894,0.894,0.894,0.894,0.894,0.894,0.894,0.9062,0.9133,0.9133,0.9283,0.9361,0.9361,0.9374,0.9452,0.9588,0.9602,0.968,1.5257,1.5611,1.5832,1.5832,1.5037,1.4001,1.3006,1.1717,1.0448,0.9389,0.9011,0.8844,0.8958,0.9218,0.978,1.0902,1.1423,1.2251,1.3854,1.4736,1.5504,1.6266,1.7355,1.8163,1.8464,1.8918,1.9239,1.9359,1.9366,1.9366,1.9366,1.9366,1.9366,1.9366,1.9366,1.9366,1.9366,1.9366,1.9366,1.9366,1.9366,1.9366,1.9366,1.9366,1.9366,1.9366,1.9366,1.9366,1.9366,1.9366,1.9366,1.9366,1.9366,1.9366,1.9366,1.9366,1.9366,1.9366,1.9366,1.9366,1.9366,1.9366,1.9366,1.9366,1.9366,1.9366,1.8887,1.6733,1.5311,1.4242,1.3048,1.1976,1.102,1.0061,0.9822,0.9822,0.9822,0.9778,0.9737,0.9737,0.9618,0.9517,0.9517,0.9517,0.9517,0.9517,0.9517,0.9517,0.9517,0.9439,0.9381,0.9381,0.9191,0.9103,0.9198,0.912,0.9106,0.9198,0.9205,0.9205,0.9205,0.9259,0.9289,0.9289,0.9442,0.9517,0.9517,0.9605,0.9676,0.9737,0.9737,0.9768,1.479,1.5284,1.5571,1.5571,1.4696,1.3594,1.2712,1.143,1.018,0.9292,0.8945,0.8804,0.8804,0.8971,0.9406,1.0287,1.0748,1.1543,1.312,1.4095,1.4977,1.5858,1.7041,1.7936,1.8323,1.8971,1.9366,1.9366,1.9366,1.9366,1.9366,1.9366,1.9366,1.9366,1.9366,1.9366,1.9366,1.9366,1.9366,1.9366,1.9366,1.9366,1.9366,1.9366,1.9366,1.9366,1.9366,1.9366,1.9366,1.9366,1.9366,1.9366,1.9366,1.9366,1.9366,1.9366,1.9366,1.9366,1.9366,1.9366,1.9366,1.9366,1.9366,1.9366,1.9366,1.9366,1.9004,1.7443,1.5784,1.4604,1.4604,1.3412,1.1856,1.0781,1.0179,0.9822,0.9822,0.9822,0.9822,0.9822,0.9741,0.9673,0.9673,0.9673,0.9673,0.9673,0.9673,0.9673,0.9673,0.9578,0.951,0.951,0.9378,0.9313,0.9374,0.9283,0.9266,0.9374,0.9381,0.9381,0.9381,0.9425,0.9449,0.9449,0.9595,0.9673,0.9673,0.9771,0.9822,0.9822,0.9822,0.9846,1.3941,1.4529,1.497,1.497,1.4088,1.2986,1.2084,1.0969,0.9873,0.8991,0.8811,0.8804,0.8804,0.8811,0.9098,0.998,1.0615,1.1617,1.3387,1.4402,1.5284,1.6166,1.6794,1.7395,1.7989,1.8851,1.9366,1.9366,1.9366,1.9366,1.9366,1.9366,1.9366,1.9366,1.9366,1.9366,1.9366,1.9366,1.9366,1.9366,1.9366,1.9366,1.9366,1.9366,1.9366,1.9366,1.9366,1.9366,1.9366,1.9366,1.9366,1.9366,1.9366,1.9366,1.9366,1.9366,1.9366,1.9366,1.9366,1.9366,1.9366,1.9366,1.9366,1.9366,1.9366,1.9366,1.9004,1.7443,1.5784,1.4604,1.4604,1.3412,1.2213,1.2217,1.102,0.9822,0.9822,0.9822,0.9822,0.9822,0.9819,0.9819,0.9819,0.9819,0.9819,0.9819,0.9819,0.9819,0.9819,0.9819,0.9815,0.9815,0.969,0.9544,0.9395,0.9381,0.9381,0.9381,0.9381,0.9381,0.9381,0.9527,0.9608,0.9608,0.9747,0.9819,0.9819,0.9822,0.9822,0.9822,0.9822,0.99,1.2465,1.2999,1.3481,1.3193,1.2712,1.2058,1.1243,1.0528,0.9866,0.8991,0.8804,0.8804,0.8804,0.8804,0.9292,1.0768,1.1169,1.1911,1.3694,1.4703,1.5438,1.5912,1.7208,1.8297,1.8891,1.9205,1.9366,1.9366,1.9366,1.9366,1.9366,1.9366,1.9366,1.9366,1.9366,1.9366,1.9366,1.9366,1.9366,1.9366,1.9366,1.9366,1.9366,1.9366,1.9366,1.9366,1.9366,1.9366,1.9366,1.9366,1.9366,1.9366,1.9366,1.9366,1.9366,1.9366,1.9366,1.9366,1.9366,1.9366,1.9366,1.9366,1.9366,1.9366,1.9366,1.9366,1.9004,1.7443,1.6615,1.602,1.4842,1.3412,1.2213,1.2213,1.102,0.9822,0.9822,0.9822,0.9822,0.9822,0.9822,0.9822,0.9822,0.9822,0.9822,0.9822,0.9822,0.9822,0.9822,0.9822,0.9822,0.9822,0.9781,0.9734,0.9686,0.9591,0.9578,0.9676,0.9683,0.9683,0.9683,0.9727,0.9754,0.9754,0.9798,0.9822,0.9822,0.9822,0.9876,0.9978,0.9978,1.0059,1.1369,1.1884,1.2204,1.2017,1.167,1.1202,1.0541,1.008,0.9599,0.8945,0.8804,0.8804,0.8804,0.8804,0.9239,1.0555,1.1042,1.1844,1.352,1.4609,1.5504,1.6239,1.7508,1.851,1.8991,1.9239,1.9366,1.9366,1.9366,1.9366,1.9366,1.9366,1.9366,1.9366,1.9366,1.9366,1.9366,1.9366,1.9366,1.9366,1.9366,1.9366,1.9366,1.9366,1.9366,1.9366,1.9366,1.9366,0.0,1.9366,1.9366,1.9366,1.9366,1.9366,1.9366,1.9366,1.9366,1.9366,1.9366,1.9366,1.9366,1.9366,1.9366,1.9366,1.9366,1.9366,1.9243,1.8163,1.7443,1.6733,1.5784,1.3885,1.2213,1.2213,1.102,0.9822,0.9822,0.9822,0.9822,0.9822,0.9822,0.9822,0.9822,0.9822,0.9822,0.9822,0.9822,0.9822,0.9822,0.9822,0.9822,0.9822,0.9822,0.9822,0.9822,0.9741,0.9727,0.9815,0.9822,0.9822,0.9822,0.9822,0.9822,0.9822,0.9822,0.9822,0.9822,0.988,0.9985,1.0137,1.0192,1.0266,0.0,1.1035,1.1263,1.1243,1.0848,1.0388,1.0094,0.9619,0.0,0.8871,0.8804,0.8824,0.8884,0.8864,0.9072,0.9786,1.0588,1.1637,1.3126,1.4349,1.5625,1.7074,1.7736,1.8203,1.8524,1.9045,1.9366,1.9366,1.9366,1.9366,1.9366,1.9366,1.9366,1.9366,1.9366,1.9366,1.9366,1.9366,1.9366,1.9366,1.9366,1.9366,1.9366,1.9366,1.9366,1.9366,1.9366,1.9366,1.9366,1.9366,1.9366,1.9366,1.9366,1.9366,1.9366,1.9366,1.9366,1.9366,1.9366,1.9366,1.9366,1.9366,1.9366,1.9366,1.9366,1.9366,1.9366,1.9366,1.8163,1.685,1.6968,1.447,1.2097,1.2217,1.102,0.9822,0.9822,0.9822,0.9822,0.9822,0.9822,0.9822,0.9822,0.9822,0.9822,0.9822,0.9822,0.9822,0.9822,0.9822,0.9822,0.9822,0.9822,0.9822,0.9822,0.9822,0.9822,0.9822,0.9822,0.9822,0.9822,0.9822,0.9822,0.9822,0.9832,0.9836,0.9836,0.9992,1.0144,1.0297,1.0429,1.0497,0.8918,0.0,0.9641,0.9479,0.9486,0.9472,0.0,0.9178,0.9103,0.8871,0.8804,0.9011,0.9686,0.9439,0.9773,1.178,1.2271,1.2852,1.4342,1.5558,1.6767,1.8023,1.8303,1.8591,1.9112,1.9285,1.9366,1.9366,1.9366,1.9366,1.9366,1.9366,1.9366,1.9366,1.9366,1.9366,1.9366,1.9366,1.9366,1.9366,1.9366,1.9366,1.9366,1.9366,1.9366,1.9366,1.9366,1.9366,1.9366,1.9366,1.9366,1.9366,1.9366,1.9366,1.9366,1.9366,1.9366,1.9366,1.9366,1.9366,1.9366,1.9366,1.9366,1.9366,1.9366,1.9366,1.9366,1.9366,1.7337,1.5429,1.6727,1.3756,1.066,1.1856,1.102,0.9822,0.9822,0.9822,0.9822,0.9822,0.9822,0.9822,0.9822,0.9822,0.9822,0.9822,0.9822,0.9822,0.9822,0.9822,0.9822,0.9822,0.9822,0.9822,0.9822,0.9822,0.9822,0.9822,0.9822,0.9822,0.9822,0.9822,0.9822,0.9822,0.9934,0.9995,0.9995,1.0151,1.03,1.0443,1.0477,1.0555,0.8427,0.8798,0.9176,0.9218,0.9225,0.9176,0.9218,0.9125,0.8998,0.8838,0.8804,0.8991,0.9599,0.9673,1.0187,1.1864,1.2599,1.3567,1.5317,1.6226,1.7101,1.8163,1.841,1.8671,1.9118,1.9285,1.9366,1.9366,1.9366,1.9366,1.9366,1.9366,1.9366,1.9366,1.9366,1.9366,1.9366,1.9366,1.9366,1.9366,1.9366,1.9366,1.9366,1.9366,1.9366,1.9366,1.9366,1.9366,1.9366,1.9366,1.9366,1.9366,1.9366,1.9366,1.9366,1.9366,1.9366,1.9366,1.9366,1.9366,1.9366,1.9366,1.9366,1.9243,1.8525,1.8286,1.8286,1.8286,1.6503,1.4599,1.4708,1.2329,1.0061,1.0899,1.0418,0.9822,0.9822,0.9822,0.9822,0.9822,0.9822,0.9822,0.9822,0.9822,0.9822,0.9822,0.9822,0.9822,0.9822,0.9822,0.9822,0.9822,0.9822,0.9822,0.9822,0.9822,0.9822,0.9822,0.9822,0.9822,0.9822,0.9822,0.9852,0.9924,1.0008,1.0117,1.0253,1.0337,1.0453,1.0599,1.0599,1.0639,0.8404,0.8864,0.9345,0.9506,0.9392,0.925,0.9559,0.9232,0.8884,0.8931,0.8945,0.9085,0.9552,1.0007,1.0648,1.1663,1.2792,1.4202,1.6072,1.6593,1.7088,1.7943,1.831,1.8604,1.8891,1.9192,1.9366,1.9366,1.9366,1.9366,1.9366,1.9366,1.9366,1.9366,1.9366,1.9366,1.9366,1.9366,1.9366,1.9366,1.9366,1.9366,1.9366,1.9366,1.9366,1.9366,1.9366,1.9366,1.9366,1.9366,1.9366,1.9366,1.9366,1.9366,1.9366,1.9366,1.9366,1.9366,1.9366,1.9366,1.9366,1.9366,1.9366,1.9127,1.7449,1.6968,1.685,1.6374,1.5306,1.3885,1.2573,1.102,0.9822,0.9822,0.9822,0.9822,0.9822,0.9822,0.9822,0.9822,0.9822,0.9822,0.9822,0.9822,0.9822,0.9822,0.9822,0.9822,0.9822,0.9822,0.9822,0.9822,0.9822,0.9822,0.9822,0.9822,0.9822,0.9822,0.9822,0.9822,0.9822,0.9842,0.9917,1.0046,1.0093,1.0239,1.049,1.0514,1.0595,1.0721,1.0721,1.0721,0.8537,0.9172,0.9506,0.9058,0.9092,0.9196,0.9243,0.9183,0.9245,0.9499,0.9546,0.994,1.1229,1.1336,1.1764,1.3414,1.4456,1.5431,1.6493,1.6894,1.7321,1.7969,1.831,1.8604,1.8891,1.9192,1.9366,1.9366,1.9366,1.9366,1.9366,1.9366,1.9366,1.9366,1.9366,1.9366,1.9366,1.9366,1.9366,1.9366,1.9366,1.9366,1.9366,1.9366,1.9366,1.9366,1.9366,1.9366,1.9366,1.9366,1.9366,1.9366,1.9366,1.9366,1.9366,1.9366,1.9366,1.9366,1.9366,1.9366,1.9366,1.9366,1.9366,1.9127,1.7449,1.6968,1.6486,1.376,1.2808,1.2453,1.2213,1.102,0.9822,0.9822,0.9822,0.9822,0.9822,0.9822,0.9822,0.9822,0.9822,0.9822,0.9822,0.9822,0.9822,0.9822,0.9822,0.9822,0.9822,0.9822,0.9822,0.9822,0.9822,0.9822,0.9822,0.9822,0.9822,0.9822,0.9822,0.9822,0.9822,0.9944,1.0025,1.0049,1.0297,1.0446,1.049,1.0622,1.0697,1.0721,1.0721,1.0721,0.8176,0.8764,0.9218,0.9265,0.974,1.0187,1.0187,1.0187,1.0227,1.0361,1.0514,1.0882,1.1717,1.2151,1.2966,1.4736,1.5504,1.6126,1.6847,1.7061,1.7315,1.7742,1.8063,1.837,1.8657,1.8958,1.9192,1.9359,1.9366,1.9366,1.9366,1.9366,1.9366,1.9366,1.9366,1.9366,1.9366,1.9366,1.9366,1.9366,1.9366,1.9366,1.9366,1.9366,1.9366,1.9366,1.9366,1.9366,1.9366,1.9366,1.9366,1.9366,1.9366,1.9366,1.9366,1.9366,1.9366,1.9366,1.9366,1.9366,1.9366,1.9366,1.8765,1.7806,1.6144,1.5069,1.3875,1.1615,1.1499,1.1976,1.114,1.0301,0.9822,0.9822,0.9822,0.9822,0.9822,0.9822,0.9822,0.9822,0.9822,0.9822,0.9822,0.9822,0.9822,0.9822,0.9822,0.9822,0.9822,0.9822,0.9822,0.9822,0.9822,0.9822,0.9822,0.9822,0.9822,0.9822,0.9822,0.9859,0.9941,1.0012,1.0124,1.0283,1.0422,1.0531,1.0616,1.0683,1.0721,1.0721,1.0721,1.0721,0.7996,0.8464,0.8965,0.9619,1.0187,1.0688,1.1102,1.1089,1.1089,1.1436,1.169,1.1957,1.2325,1.312,1.4208,1.5691,1.6186,1.6553,1.7074,1.7208,1.7335,1.7555,1.7856,1.8136,1.8364,1.8651,1.8918,1.9145,1.9165,1.9165,1.9165,1.9165,1.9165,1.9165,1.9225,1.9265,1.9265,1.9332,1.9366,1.9366,1.9366,1.9366,1.9366,1.9366,1.9366,1.9366,1.9366,1.9366,1.9366,1.9004,1.8881,1.8881,1.8881,1.912,1.9366,1.9366,1.9366,1.9366,1.9366,1.9366,1.9366,1.9004,1.8046,1.6615,1.4599,1.3172,1.1856,1.0301,1.066,1.1378,1.0058,0.9822,0.9822,0.9822,0.9822,0.9822,0.9822,0.9822,0.9822,0.9822,0.9822,0.9822,0.9822,0.9822,0.9822,0.9822,0.9822,0.9822,0.9822,0.9822,0.9822,0.9822,0.9822,0.9822,0.9822,0.9822,0.9836,0.9873,0.9873,0.9944,1.0097,1.0137,1.0259,1.0487,1.0527,1.0602,1.0721,1.0721,1.0721,1.0721,1.0721,1.0721,0.8437,0.8778,0.9011,0.9873,0.9719,0.9793,1.1436,1.1383,1.1383,1.2766,1.3066,1.3253,1.3821,1.4649,1.5458,1.6132,1.6486,1.6787,1.7108,1.7382,1.7562,1.7582,1.7856,1.8056,1.8076,1.8343,1.8531,1.8551,1.8551,1.8551,1.8551,1.8551,1.8551,1.8551,1.8818,1.8958,1.8958,1.9232,1.9366,1.9366,1.9366,1.9366,1.9366,1.9366,1.9366,1.9366,1.9366,1.9366,1.9249,1.7806,1.7202,1.7202,1.7202,1.8046,1.9366,1.9366,1.9366,1.9366,1.9366,1.9366,1.9127,1.7683,1.7085,1.6374,1.3283,1.2333,1.1856,1.0301,0.994,0.994,0.9819,0.9822,0.9822,0.9822,0.9822,0.9822,0.9822,0.9822,0.9822,0.9822,0.9822,0.9822,0.9822,0.9822,0.9822,0.9822,0.9822,0.9822,0.9822,0.9822,0.9822,0.9822,0.9822,0.9822,0.9822,0.9822,0.9883,1.0025,1.0032,1.0103,1.0256,1.0388,1.047,1.049,1.0629,1.0711,1.0721,1.0721,1.0721,1.0721,1.0721,1.0721,0.8036,0.8657,0.9245,0.994,1.0221,1.0601,1.1637,1.2271,1.2906,1.3834,1.4175,1.4422,1.4823,1.517,1.5645,1.6413,1.6633,1.6874,1.7348,1.7515,1.7582,1.7582,1.7689,1.7836,1.8029,1.815,1.829,1.8477,1.849,1.849,1.849,1.849,1.849,1.849,1.8597,1.8738,1.8925,1.9038,1.9185,1.9366,1.9366,1.9366,1.9366,1.9366,1.9366,1.9366,1.8286,1.8525,1.9243,1.6621,1.6138,1.6968,1.6968,1.7923,1.9366,1.9366,1.8765,1.7923,1.7923,1.7214,1.6267,1.5671,1.4831,1.376,1.2573,1.1495,1.0539,0.994,0.9822,0.9822,0.9822,0.9822,0.9822,0.9822,0.9822,0.9822,0.9822,0.9822,0.9822,0.9822,0.9822,0.9822,0.9822,0.9822,0.9822,0.9822,0.9822,0.9822,0.9822,0.9822,0.9822,0.9822,0.9822,0.9859,0.9954,0.9964,1.0066,1.031,1.0151,1.0158,1.0402,1.0463,1.0534,1.0633,1.069,1.0721,1.0721,1.0721,1.0721,1.0721,1.0721,1.0721,0.7903,0.851,0.9172,1.004,1.0695,1.1363,1.2231,1.2986,1.3781,1.4736,1.509,1.5297,1.5498,1.5531,1.5792,1.658,1.6707,1.6907,1.7502,1.7582,1.7582,1.7582,1.7582,1.7662,1.7883,1.7903,1.7983,1.819,1.8203,1.8203,1.8203,1.8203,1.8203,1.8203,1.8303,1.845,1.8644,1.8738,1.8891,1.9092,1.9092,1.9192,1.9366,1.9366,1.9366,1.9366,1.7689,1.7923,1.9127,1.5435,1.4475,1.5419,1.5419,1.6497,1.7929,1.7929,1.7214,1.6256,1.6256,1.5548,1.4485,1.4009,1.3053,1.2093,1.1615,1.066,0.9822,0.9822,0.9822,0.9822,0.9822,0.9822,0.9822,0.9822,0.9822,0.9822,0.9822,0.9822,0.9822,0.9822,0.9822,0.9822,0.9822,0.9822,0.9822,0.9822,0.9822,0.9822,0.9822,0.9822,0.9822,0.9822,0.9866,0.9934,1.0039,1.0093,1.0229,1.0477,1.03,1.0304,1.0555,1.0565,1.0612,1.0717,1.0721,1.0721,1.0721,1.0721,1.0721,1.0721,1.0721,1.0721,0.8259,0.8383,0.879,1.0255,1.1002,1.183,1.3307,1.3427,1.3721,1.5471,1.5832,1.5832,1.5832,1.5832,1.6019,1.6607,1.67,1.6907,1.7495,1.7582,1.7582,1.7582,1.7582,1.7582,1.7582,1.7582,1.7582,1.7582,1.7582,1.7582,1.7582,1.7582,1.7582,1.7582,1.7883,1.8043,1.805,1.8337,1.849,1.849,1.849,1.8791,1.9359,1.9359,1.9359,1.9359,1.7677,1.7923,1.9004,1.4237,1.2213,1.2213,1.2213,1.3168,1.4604,1.4604,1.4604,1.4604,1.4604,1.4604,1.4247,1.2693,1.2217,1.1856,1.0301,0.9822,0.9822,0.9822,0.9822,0.9822,0.9822,0.9822,0.9822,0.9822,0.9822,0.9822,0.9822,0.9822,0.9822,0.9822,0.9822,0.9822,0.9822,0.9822,0.9822,0.9822,0.9822,0.9822,0.9822,0.9822,0.9822,0.9822,0.9961,1.0053,1.0053,1.0195,1.0344,1.0483,1.0493,1.0561,1.0714,1.0721,1.0721,1.0721,1.0721,1.0721,1.0721,1.0721,1.0721,1.0721,1.0721,1.0721,0.8016,0.8811,0.9753,1.0401,1.163,1.2906,1.3761,1.4208,1.471,1.5638,1.5832,1.5832,1.5832,1.5832,1.5952,1.6339,1.6573,1.684,1.7221,1.7455,1.7582,1.7582,1.7582,1.7582,1.7582,1.7582,1.7582,1.7582,1.7582,1.7582,1.7582,1.7582,1.7582,1.7582,1.7669,1.7822,1.8043,1.8136,1.8283,1.849,1.849,1.8584,1.8751,1.8751,1.8751,1.8645,1.6149,1.5876,1.7062,1.358,1.2213,1.2213,1.2213,1.3168,1.4604,1.4604,1.3885,1.2933,1.2933,1.2217,1.1137,1.066,1.0539,1.0418,0.994,0.9822,0.9822,0.9822,0.9822,0.9822,0.9822,0.9822,0.9822,0.9822,0.9822,0.9822,0.9822,0.9822,0.9822,0.9822,0.9822,0.9822,0.9822,0.9822,0.9822,0.9822,0.9822,0.9822,0.9822,0.9917,0.9981,0.9981,1.012,1.0253,1.0351,1.0402,1.0493,1.0643,1.0653,1.0673,1.0717,1.0721,1.0721,1.0721,1.0721,1.0721,1.0721,1.0721,1.0721,1.0721,1.0721,1.0721,0.899,0.9841,1.0746,1.1798,1.2702,1.3627,1.4563,1.5057,1.5404,1.5758,1.5832,1.5832,1.5832,1.5832,1.5925,1.6226,1.642,1.668,1.7094,1.7301,1.7455,1.7569,1.7582,1.7582,1.7582,1.7582,1.7582,1.7582,1.7582,1.7582,1.7582,1.7582,1.7582,1.7582,1.7582,1.7669,1.7862,1.7862,1.762,1.7239,1.7239,1.7014,1.6466,1.724,1.768,1.7464,1.521,1.4009,1.3558,1.2534,1.1688,1.116,1.116,1.1795,1.2693,1.2693,1.2097,1.1257,1.1257,1.066,0.9822,0.9822,0.9822,0.9822,0.9822,0.9822,0.9822,0.9822,0.9822,0.9822,0.9822,0.9822,0.9822,0.9822,0.9822,0.9822,0.9822,0.9822,0.9822,0.9822,0.9822,0.9822,0.9822,0.9822,0.9822,0.9822,0.9822,0.9822,0.9822,0.9954,1.0049,1.0049,1.0239,1.0399,1.0483,1.0548,1.0622,1.0714,1.0721,1.0721,1.0721,1.0721,1.0721,1.0721,1.0721,1.0721,1.0721,1.0721,1.0721,1.0721,1.0721,1.0721,1.067,1.1083,1.16,1.3643,1.3937,1.4122,1.5511,1.5832,1.5832,1.5832,1.5832,1.5832,1.5832,1.5832,1.5919,1.6186,1.6253,1.646,1.6994,1.7094,1.7215,1.7508,1.7542,1.7555,1.7582,1.7582,1.7582,1.7582,1.7582,1.7582,1.7582,1.7582,1.7582,1.7582,1.7582,1.7582,1.7582,1.7477,1.6717,1.5417,1.531,1.4556,1.3388,1.5237,1.6016,1.581,1.4456,1.2205,0.9497,1.0985,1.0732,0.9591,0.9605,0.969,0.9802,0.9815,0.9822,0.9822,0.9822,0.9822,0.9822,0.9822,0.9822,0.9822,0.9822,0.9822,0.9822,0.9822,0.9822,0.9822,0.9822,0.9822,0.9822,0.9822,0.9822,0.9822,0.9822,0.9822,0.9822,0.9822,0.9822,0.9822,0.9822,0.9822,0.9822,0.9822,0.9822,0.9822,0.9822,0.9968,1.007,1.007,1.0334,1.0514,1.0514,1.0639,1.0721,1.0721,1.0721,1.0721,1.0721,1.0721,1.0721,1.0721,1.0721,1.0721,1.0721,1.0721,1.0721,1.0721,1.0721,1.0721,1.0508,1.1141,1.1892,1.3413,1.4261,1.4883,1.5651,1.5832,1.5832,1.5832,1.5832,1.5832,1.5832,1.5832,1.5852,1.5912,1.6119,1.6319,1.6446,1.666,1.6914,1.7208,1.7241,1.7335,1.7562,1.7582,1.7582,1.7582,1.7582,1.7582,1.7582,1.7582,1.7582,1.7582,1.7582,1.7582,1.7582,1.6493,1.5737,1.5417,1.4234,1.3588,1.327,1.38,1.3387,1.232,1.1984,1.0956,0.9381,0.9726,0.9747,0.9442,0.9561,0.9629,0.9666,0.9781,0.9822,0.9822,0.9822,0.9822,0.9822,0.9822,0.9822,0.9822,0.9822,0.9822,0.9822,0.9822,0.9822,0.9822,0.9822,0.9822,0.9822,0.9822,0.9822,0.9822,0.9822,0.9822,0.9822,0.9822,0.9822,0.9822,0.9822,0.9822,0.9822,0.9822,0.9822,0.9822,0.9822,1.0059,1.0232,1.0232,1.0493,1.067,1.067,1.07,1.0721,1.0721,1.0721,1.0721,1.0721,1.0721,1.0721,1.0721,1.0721,1.0721,1.0721,1.0721,1.0721,1.0721,1.0721,1.0731,1.103,1.1611,1.2277,1.4425,1.5398,1.5984,1.6614,1.6669,1.6574,1.592,1.5832,1.5832,1.5832,1.5832,1.5832,1.5832,1.5959,1.6112,1.6253,1.64,1.6607,1.6901,1.6941,1.7054,1.7348,1.7375,1.7435,1.7569,1.7582,1.7582,1.7582,1.7582,1.7582,1.7582,1.6929,1.6499,1.6499,1.5097,1.4019,1.3372,1.262,1.1864,1.1214,1.1973,1.1485,1.0147,1.0147,0.9756,0.9167,0.9167,0.9208,0.9286,0.9442,0.9544,0.9629,0.9768,0.9822,0.9822,0.9822,0.9822,0.9822,0.9822,0.9822,0.9822,0.9822,0.9822,0.9822,0.9822,0.9822,0.9822,0.9822,0.9822,0.9822,0.9822,0.9822,0.9822,0.9822,0.9822,0.9822,0.9822,0.9822,0.9822,0.9822,0.9822,0.9822,0.9822,0.9822,0.9822,0.9822,1.009,1.028,1.028,1.0544,1.0721,1.0721,1.0721,1.0721,1.0721,1.0721,1.0724,1.0734,1.0738,1.0731,1.0721,1.0731,1.0738,1.0738,1.0751,1.0761,1.0761,1.0761,1.0635,1.1374,1.2226,1.3066,1.5493,1.6604,1.7186,1.7452,1.7647,1.7318,1.6015,1.5832,1.5832,1.5832,1.5832,1.5832,1.5832,1.5832,1.5912,1.6159,1.6192,1.6306,1.66,1.6627,1.6747,1.7041,1.7074,1.7174,1.7415,1.7428,1.7428,1.7428,1.7482,1.7508,1.7508,1.615,1.5417,1.5417,1.3804,1.2295,1.1105,1.0891,1.0135,0.8937,1.0131,1.0025,0.894,0.894,0.894,0.894,0.894,0.9008,0.913,0.9283,0.9418,0.9547,0.9693,0.9744,0.9747,0.9774,0.9785,0.9788,0.9812,0.9822,0.9822,0.9822,0.9822,0.9822,0.9822,0.9822,0.9822,0.9822,0.9822,0.9822,0.9822,0.9822,0.9822,0.9822,0.9822,0.9822,0.9822,0.9822,0.9822,0.9822,0.9822,0.9822,0.9822,0.9822,0.9822,0.9822,1.009,1.028,1.028,1.0544,1.0721,1.0721,1.0724,1.0724,1.0724,1.0731,1.0744,1.0761,1.0079,0.9797,0.9782,1.0345,1.0355,0.9806,0.9831,0.9844,0.9844,0.9844,1.012,1.0199,1.2441,1.4657,1.5278,1.6849,1.8001,1.7236,1.7375,1.7318,1.6015,1.5832,1.5832,1.5832,1.5832,1.5832,1.5832,1.5832,1.5845,1.5885,1.5885,1.5999,1.6293,1.6333,1.6446,1.6734,1.6767,1.678,1.682,1.682,1.682,1.682,1.7068,1.7208,1.7208,1.6051,1.5417,1.5417,1.2724,1.1324,1.1105,0.9805,0.9047,0.894,0.9154,0.9047,0.894,0.894,0.894,0.894,0.894,0.895,0.8981,0.9127,0.9195,0.9232,0.9384,0.9439,0.9459,0.9591,0.9639,0.9659,0.9781,0.9822,0.9822,0.9822,0.9822,0.9822,0.9822,0.9822,0.9822,0.9822,0.9822,0.9822,0.9822,0.9822,0.9822,0.9822,0.9822,0.9822,0.9822,0.9822,0.9822,0.9822,0.9822,0.9822,0.9822,0.9822,0.9822,0.9822,1.009,1.028,1.028,1.0544,1.0721,1.0721,1.0738,1.0748,1.0748,1.0645,1.0662,1.0665,0.7791,0.6168,0.6166,0.9154,0.9157,0.6168,0.6172,0.6172,0.6172,0.6172,0.7806,0.9731,1.2266,1.4786,1.6,1.7552,1.8598,1.8161,1.8186,1.7812,1.6163,1.5832,1.5832,1.5832,1.5832,1.5832,1.5832,1.5832,1.5832,1.5832,1.5832,1.5879,1.6012,1.6025,1.6139,1.6433,1.6466,1.6526,1.6693,1.6707,1.6707,1.6707,1.6834,1.6901,1.6901,1.4924,1.3898,1.3927,1.116,0.9821,0.9805,0.9154,0.894,0.894,0.894,0.894,0.894,0.894,0.894,0.894,0.894,0.894,0.8954,0.9096,0.9154,0.9171,0.9323,0.9381,0.9391,0.9459,0.9537,0.9618,0.9683,0.9754,0.9822,0.9822,0.9822,0.9822,0.9822,0.9822,0.9822,0.9822,0.9822,0.9822,0.9822,0.9822,0.9822,0.9822,0.9822,0.9822,0.9822,0.9822,0.9822,0.9822,0.9822,0.9822,0.9822,0.9822,0.9822,0.9822,1.009,1.028,1.028,1.0544,1.0724,1.0738,1.0748,0.9806,0.7915,0.7791,0.8619,1.0555,0.9177,0.7409,0.5383,0.8909,0.9865,0.8357,0.43,0.2417,0.2417,0.2417,0.3226,0.9259,1.1518,1.3769,1.5878,1.7523,1.8576,1.8471,1.87,1.8362,1.6185,1.59,1.6014,1.5812,1.5832,1.5832,1.5832,1.5832,1.5832,1.5832,1.5832,1.5832,1.5832,1.5832,1.5919,1.6139,1.6159,1.6246,1.6466,1.648,1.648,1.648,1.6553,1.66,1.66,1.3999,1.2673,1.274,1.0063,0.8788,0.894,0.894,0.894,0.894,0.894,0.894,0.894,0.894,0.894,0.894,0.894,0.894,0.895,0.9055,0.91,0.9113,0.9225,0.9269,0.9273,0.931,0.9398,0.9507,0.9585,0.9683,0.9774,0.9812,0.9822,0.9822,0.9822,0.9822,0.9822,0.9822,0.9822,0.9822,0.9822,0.9822,0.9822,0.9822,0.9822,0.9822,0.9822,0.9822,0.9822,0.9822,0.9822,0.9822,0.9822,0.9822,0.9822,0.9822,1.009,1.028,1.028,1.0548,1.0734,1.0751,1.0635,0.9555,0.6853,0.5099,0.5242,0.7831,0.975,0.8655,0.4179,0.661,0.7968,0.7968,0.2557,-0.0,-0.0,-0.0,-0.0,0.8464,0.995,1.1664,1.4025,1.6138,1.7586,1.7257,1.834,1.8634,1.6015,1.6211,1.6747,1.5961,1.5832,1.5832,1.5832,1.5832,1.5832,1.5832,1.5832,1.5832,1.5832,1.5832,1.5838,1.5852,1.5852,1.5858,1.5872,1.5872,1.5872,1.5872,1.6146,1.6293,1.6293,1.3909,1.2597,1.2612,1.0004,0.8788,0.894,0.894,0.894,0.894,0.894,0.894,0.894,0.894,0.894,0.894,0.894,0.894,0.894,0.8947,0.895,0.895,0.8957,0.896,0.8981,0.9117,0.9171,0.9225,0.9513,0.9615,0.9646,0.9781,0.9822,0.9822,0.9822,0.9822,0.9822,0.9822,0.9822,0.9822,0.9822,0.9822,0.9822,0.9822,0.9822,0.9822,0.9822,0.9822,0.9822,0.9822,0.9822,0.9822,0.9822,0.9822,0.9822,0.9822,1.009,1.028,1.028,1.0565,1.0751,1.0755,1.0672,1.0564,1.0427,0.4038,0.0404,0.0538,0.7029,0.7437,0.0404,0.0404,0.0538,0.0538,0.0135,-0.0,-0.0,-0.0,-0.0,0.823,0.9649,1.1146,1.2674,1.4462,1.5805,1.5415,1.6213,1.6583,1.5089,1.5335,1.5645,1.5591,1.5705,1.5832,1.5832,1.5832,1.5832,1.5832,1.5832,1.5832,1.5832,1.5832,1.5832,1.5832,1.5832,1.5832,1.5832,1.5832,1.5832,1.5832,1.5925,1.5985,1.5985,1.3515,1.1449,0.9867,0.9111,0.8737,0.8794,0.8893,0.894,0.894,0.894,0.894,0.894,0.894,0.894,0.894,0.894,0.894,0.894,0.894,0.894,0.894,0.894,0.894,0.8947,0.8998,0.9076,0.9171,0.9283,0.9384,0.9473,0.9523,0.9608,0.9686,0.9686,0.9751,0.9822,0.9822,0.9822,0.9822,0.9822,0.9822,0.9822,0.9822,0.9822,0.9822,0.9822,0.9822,0.9822,0.9822,0.9822,0.9822,0.9822,0.9822,0.9856,0.9954,1.0151,1.0324,1.0307,1.0629,1.0635,1.0672,1.0695,0.8784,0.4174,0.148,-0.0,-0.0,0.2425,0.2559,-0.0,-0.0,-0.0,-0.0,-0.0,-0.0,-0.0,-0.0,-0.0,0.7869,0.8834,1.0008,1.156,1.2733,1.3615,1.408,1.479,1.5219,1.4348,1.4708,1.5211,1.5268,1.5404,1.5605,1.5798,1.5832,1.5832,1.5832,1.5832,1.5832,1.5832,1.5832,1.5832,1.5832,1.5832,1.5832,1.5832,1.5832,1.5832,1.5832,1.5832,1.5439,1.4561,1.2818,1.078,0.8371,0.8465,0.8587,0.8635,0.8791,0.8862,0.8862,0.8916,0.894,0.894,0.894,0.894,0.894,0.894,0.894,0.894,0.894,0.894,0.894,0.894,0.894,0.894,0.894,0.9001,0.9089,0.9137,0.9222,0.9313,0.9364,0.9452,0.9544,0.9595,0.9676,0.9761,0.9808,0.9822,0.9822,0.9822,0.9822,0.9822,0.9822,0.9822,0.9822,0.9822,0.9822,0.9822,0.9822,0.9822,0.9822,0.9822,0.9822,0.9876,1.0029,1.0192,1.0226,1.0394,1.0555,1.0665,1.0702,0.8512,0.5119,0.0269,-0.0,-0.0,-0.0,-0.0,-0.0,-0.0,-0.0,-0.0,-0.0,-0.0,-0.0,-0.0,-0.0,-0.0,0.0,0.0,0.0,1.0726,1.103,1.1184,1.3147,1.419,1.4568,1.3732,1.4618,1.5442,1.5082,1.4937,1.513,1.5712,1.5812,1.5818,1.5832,1.5832,1.5832,1.5832,1.5832,1.5832,1.5832,1.5832,1.5832,1.5832,1.5832,1.5832,1.5832,1.5832,1.4567,1.1945,1.1945,1.0775,0.8364,0.8269,0.834,0.8479,0.8632,0.8703,0.871,0.8862,0.893,0.893,0.8937,0.894,0.894,0.894,0.894,0.894,0.894,0.894,0.894,0.894,0.894,0.894,0.894,0.894,0.896,0.91,0.9147,0.9174,0.9323,0.9371,0.9405,0.9561,0.9605,0.9642,0.9785,0.9822,0.9822,0.9822,0.9822,0.9822,0.9822,0.9822,0.9822,0.9822,0.9822,0.9822,0.9822,0.9822,0.9822,0.9822,0.9822,0.9876,1.0029,1.0072,1.0236,1.0397,1.0585,1.0564,1.043,0.4039,-0.0,-0.0,-0.0,-0.0,-0.0,-0.0,-0.0,-0.0,-0.0,-0.0,-0.0,-0.0,-0.0,-0.0,-0.0,-0.0,0.7081,0.0,0.0,0.0,0.0,0.0,1.0704,1.1468,1.2112,1.2344,1.2811,1.3485,1.4226,1.4329,1.4522,1.511,1.5378,1.5591,1.5798,1.5832,1.5832,1.5832,1.5832,1.5832,1.5832,1.5832,1.5832,1.5832,1.5832,1.5832,1.5832,1.5832,1.4567,1.1945,1.1945,1.0708,0.8102,0.8214,0.8289,0.833,0.8476,0.8547,0.855,0.8703,0.8774,0.8777,0.8893,0.894,0.894,0.894,0.894,0.894,0.894,0.894,0.894,0.894,0.894,0.894,0.894,0.894,0.8947,0.8984,0.8998,0.9005,0.9049,0.9133,0.9249,0.9401,0.9523,0.9642,0.9785,0.9822,0.9822,0.9822,0.9822,0.9822,0.9822,0.9822,0.9822,0.9822,0.9822,0.9822,0.9822,0.9822,0.9822,0.9822,0.9822,0.9883,1.0053,1.0117,1.0263,1.0565,1.0646,0.8552,0.3362,0.1077,-0.0,-0.0,-0.0,-0.0,-0.0,-0.0,-0.0,-0.0,-0.0,-0.0,-0.0,-0.0,-0.0,-0.0,-0.0,-0.0,0.7361,0.7789,0.8237,0.838,0.0,0.0,0.9753,1.0167,1.0648,1.1356,1.1737,1.2265,1.3333,1.3527,1.3761,1.4482,1.4743,1.5037,1.5571,1.5651,1.5691,1.5812,1.5832,1.5832,1.5832,1.5832,1.5832,1.5832,1.5832,1.5534,1.5045,1.5534,1.437,1.1165,1.1653,1.0681,0.8038,0.813,0.8174,0.8177,0.8323,0.8394,0.8397,0.8547,0.8652,0.8716,0.8804,0.8879,0.894,0.894,0.894,0.894,0.894,0.894,0.894,0.894,0.894,0.894,0.894,0.894,0.894,0.894,0.894,0.894,0.894,0.8998,0.9096,0.9245,0.9442,0.9642,0.9785,0.9822,0.9822,0.9822,0.9822,0.9822,0.9822,0.9822,0.9822,0.9822,0.9822,0.9822,0.9822,0.9822,0.9822,0.9822,0.9829,0.9897,1.0066,0.9978,1.0222,1.0627,0.7998,0.4602,0.04,-0.0,-0.0,-0.0,-0.0,-0.0,-0.0,-0.0,-0.0,-0.0,-0.0,-0.0,-0.0,-0.0,-0.0,-0.0,-0.0,-0.0,0.7963,0.8028,0.8247,0.8957,0.8878,0.0,0.976,0.9826,0.9907,1.0688,1.1056,1.1503,1.2459,1.2654,1.2936,1.3661,1.3901,1.4309,1.5217,1.5351,1.5444,1.5705,1.5758,1.5785,1.5785,1.5812,1.5832,1.5832,1.5832,1.5337,1.4166,1.5146,1.4076,1.0288,1.1268,1.0681,0.8038,0.8137,0.8233,0.8237,0.8578,0.8645,0.8452,0.8802,0.8843,0.8662,0.8783,0.8879,0.8913,0.8913,0.8923,0.894,0.894,0.894,0.894,0.894,0.894,0.894,0.894,0.894,0.894,0.894,0.894,0.894,0.894,0.894,0.8967,0.9113,0.9374,0.9639,0.9764,0.9808,0.9822,0.9822,0.9822,0.9822,0.9822,0.9822,0.9822,0.9822,0.9822,0.9822,0.9822,0.9822,0.9822,0.9825,0.9842,0.9907,1.0053,0.986,0.9684,0.956,0.3864,-0.0,-0.0,-0.0,-0.0,-0.0,-0.0,-0.0,-0.0,-0.0,-0.0,-0.0,-0.0,-0.0,-0.0,-0.0,-0.0,-0.0,-0.0,-0.0,0.8885,0.8985,0.9272,0.8965,0.9339,0.0,0.9172,0.9385,0.9733,0.9907,0.9987,1.0294,1.1176,1.153,1.1744,1.1917,1.2752,1.3774,1.489,1.505,1.507,1.5124,1.5337,1.5478,1.5478,1.5691,1.5832,1.5832,1.5832,1.573,1.5439,1.5635,1.4465,1.1653,1.175,1.0681,0.8038,0.9118,0.9608,0.9608,1.0721,1.0641,0.9669,1.0938,1.0344,0.8467,0.9611,0.9557,0.8754,0.8754,0.8828,0.894,0.894,0.894,0.894,0.894,0.894,0.894,0.894,0.894,0.894,0.894,0.894,0.894,0.894,0.894,0.8967,0.9113,0.9374,0.9615,0.9642,0.9734,0.9822,0.9822,0.9822,0.9822,0.9822,0.9822,0.9822,0.9822,0.9822,0.9822,0.9822,0.9822,0.9829,0.9846,0.9852,0.9761,0.9834,0.9854,0.7762,0.2658,0.0888,-0.0,-0.0,-0.0,-0.0,-0.0,-0.0,-0.0,-0.0,-0.0,-0.0,-0.0,-0.0,-0.0,-0.0,-0.0,-0.0,-0.0,-0.0,-0.0,0.9591,0.9459,0.9646,0.9499,0.9573,0.0,0.0,0.9245,0.9372,0.9806,0.9666,0.9773,1.0802,1.0995,1.1089,1.1376,1.2178,1.2913,1.336,1.4182,1.4796,1.4943,1.5097,1.5177,1.5177,1.5444,1.5671,1.5818,1.5832,1.5242,1.3884,1.5051,1.398,1.0092,1.1843,1.1648,0.9019,0.9706,1.0293,1.0974,1.0974,1.0974,1.0979,1.1663,1.1079,0.9372,1.0671,1.0306,0.8707,0.9422,0.9291,0.8832,0.891,0.894,0.894,0.894,0.894,0.894,0.894,0.894,0.894,0.894,0.894,0.894,0.894,0.894,0.8967,0.9113,0.9262,0.9415,0.9568,0.9663,0.9734,0.9802,0.9822,0.9822,0.9822,0.9822,0.9822,0.9822,0.9822,0.9822,0.9822,0.9832,0.9842,0.9852,0.9757,0.9784,0.9814,0.6934,0.3592,0.0374,-0.0,-0.0,-0.0,-0.0,-0.0,-0.0,-0.0,-0.0,-0.0,-0.0,-0.0,-0.0,-0.0,-0.0,-0.0,-0.0,-0.0,-0.0,-0.0,-0.0,1.0375,1.006,1.0107,1.0114,0.9886,0.9633,0.0,0.0,0.0,0.974,0.9475,0.9469,1.0481,1.0508,1.0528,1.0935,1.159,1.1931,1.1583,1.2959,1.4102,1.4342,1.4569,1.471,1.471,1.4827,1.495,1.5249,1.5271,1.4227,1.1971,1.4148,1.3295,0.8528,1.1741,1.242,0.9998,1.0194,1.0974,1.2237,1.1263,1.1263,1.2334,1.2528,1.184,1.0606,1.1905,1.1121,0.8963,1.014,0.9815,0.8726,0.8879,0.894,0.894,0.894,0.894,0.894,0.894,0.894,0.894,0.894,0.894,0.894,0.894,0.894,0.8964,0.9079,0.913,0.9215,0.9493,0.9588,0.9646,0.9788,0.9822,0.9822,0.9822,0.9822,0.9822,0.9822,0.9825,0.9829,0.9829,0.9842,0.9859,0.9747,0.9787,0.9316,0.8058,0.3333,-0.0,-0.0,-0.0,-0.0,-0.0,-0.0,-0.0,-0.0,-0.0,-0.0,-0.0,-0.0,-0.0,-0.0,-0.0,-0.0,-0.0,-0.0,-0.0,-0.0,-0.0,-0.0,1.1692,1.1423,1.1383,1.0367,1.0648,1.0782,0.9252,0.0,0.9466,0.9045,0.0,0.9223,0.9356,0.0,0.0,0.9462,1.0421,1.0949,1.0394,1.139,1.2184,1.2218,1.3153,1.3794,1.3794,1.3233,1.3053,1.3435,1.341,1.2821,1.1806,1.3273,1.2813,0.9899,1.1263,1.1458,0.9998,1.1072,1.2334,1.368,1.3488,1.3488,1.3686,1.4854,1.3998,1.1785,1.3141,1.2288,0.9994,1.0217,0.96,0.8726,0.8879,0.894,0.894,0.894,0.894,0.894,0.894,0.894,0.894,0.894,0.894,0.894,0.894,0.894,0.8944,0.8957,0.9055,0.9191,0.9364,0.9507,0.9646,0.9788,0.9822,0.9822,0.9822,0.9822,0.9822,0.9822,0.9839,0.9852,0.9852,0.9852,0.9751,0.9801,0.9814,0.768,0.1851,0.0494,-0.0,-0.0,-0.0,-0.0,-0.0,-0.0,-0.0,-0.0,-0.0,-0.0,-0.0,-0.0,-0.0,-0.0,-0.0,-0.0,-0.0,-0.0,-0.0,-0.0,-0.0,-0.0,1.342,1.3332,1.3294,1.1781,1.1652,1.1437,0.9731,0.9239,0.9198,0.9299,0.0,0.0,0.0,0.0,0.0,0.0,1.0053,1.0281,0.9686,1.0474,1.1236,1.157,1.2051,1.2559,1.3073,1.2476,1.25,1.3678,1.2498,1.1581,1.1379,1.2188,1.1419,0.8916,1.0877,1.1263,0.9998,1.0485,1.1843,1.3872,1.3102,1.3494,1.5045,1.5534,1.4758,1.3102,1.368,1.2473,1.0116,1.0222,0.9552,0.8479,0.8713,0.8859,0.894,0.894,0.894,0.894,0.894,0.894,0.894,0.894,0.894,0.894,0.894,0.894,0.894,0.894,0.8981,0.9062,0.9211,0.9361,0.9513,0.9663,0.9761,0.9822,0.9822,0.9832,0.9842,0.9842,0.9744,0.9767,0.9781,0.9781,0.9791,0.9814,0.6559,0.3087,0.037,-0.0,-0.0,-0.0,-0.0,-0.0,-0.0,-0.0,-0.0,-0.0,-0.0,-0.0,-0.0,-0.0,-0.0,-0.0,-0.0,-0.0,-0.0,-0.3887,-0.5726,-0.554,-0.171,-0.0,1.4807,1.4915,1.4783,1.2783,1.2271,1.179,0.9856,0.9299,0.9239,0.9506,0.9479,0.0,0.0,0.0,0.9526,0.9659,0.0,0.9793,0.915,0.9746,1.0354,1.0775,1.0837,1.1188,1.1898,1.0998,1.1081,1.2688,1.1289,1.044,1.0414,1.1174,1.0387,0.8069,1.0164,1.0974,0.9998,0.9998,1.1356,1.3872,1.2528,1.3301,1.5825,1.5439,1.4752,1.3878,1.3488,1.2037,1.001,1.0137,0.9427,0.8296,0.855,0.8743,0.8879,0.8923,0.894,0.894,0.894,0.894,0.894,0.894,0.894,0.894,0.894,0.894,0.894,0.894,0.894,0.8974,0.9117,0.9266,0.9418,0.9571,0.9724,0.9829,0.9829,0.9849,0.9493,0.8616,0.9142,0.9798,0.9814,0.9818,0.9186,0.7431,0.3087,-0.0,-0.0,-0.0,-0.0,-0.0,-0.0,-0.0,-0.0,-0.0,-0.0,-0.0,-0.0,-0.0,-0.0,-0.0,-0.0,-0.0,-0.1728,-0.2717,-0.2717,-0.6625,-0.8946,-0.9722,-0.4003,-0.1308,1.5513,1.5642,1.5512,1.2708,1.2208,1.1784,0.9378,0.9479,0.992,0.9309,1.0147,1.0762,1.0214,1.01,1.0,0.9726,0.9693,0.0,0.0,0.9092,0.923,0.9256,0.9449,0.9651,0.9934,0.8205,0.7755,0.9546,0.9435,0.917,0.8839,1.0234,1.0086,0.7911,0.9319,0.9998,0.9998,0.9998,1.1356,1.3872,1.2528,1.3301,1.573,1.4561,1.3974,1.3872,1.2528,1.1268,0.9998,1.0006,0.9326,0.8286,0.8431,0.8581,0.8733,0.8882,0.894,0.894,0.894,0.894,0.894,0.894,0.894,0.894,0.894,0.894,0.894,0.894,0.894,0.8974,0.9117,0.9266,0.9418,0.9571,0.9734,0.9852,0.9852,0.9757,0.8897,0.5659,0.7662,0.9814,0.9818,0.9818,0.768,0.1234,0.0123,-0.0,-0.0,-0.0,-0.0,-0.0,-0.0,-0.0,-0.0,-0.0,-0.0,-0.0,-0.0,-0.0,-0.0,-0.0,-0.0,-0.0,-0.6185,-0.9442,-0.9442,-0.6539,-0.6657,-0.9675,-0.6349,-0.4753,1.7921,1.8276,1.7926,1.4689,1.3917,1.3108,1.007,0.9766,0.9947,0.9303,1.002,1.0588,1.0187,0.996,0.98,0.9699,0.9519,0.9252,0.0,0.8891,0.8958,0.8958,0.8914,0.8968,0.9058,0.7989,0.8069,0.999,0.9136,0.8782,0.9367,0.9508,0.9066,0.7665,0.8297,0.8627,0.8627,0.8627,0.9604,1.1356,1.0877,1.1556,1.3204,1.2818,1.2624,1.2528,1.1165,1.0391,0.9899,0.9019,0.8464,0.8143,0.8387,0.8513,0.8591,0.8845,0.894,0.894,0.894,0.894,0.894,0.894,0.894,0.894,0.894,0.894,0.8944,0.8846,0.885,0.8866,0.893,0.9047,0.9195,0.9349,0.9625,0.9147,0.6996,0.8275,0.9429,0.8418,0.9066,0.9841,0.9841,0.6192,0.2592,0.037,-0.0,-0.0,-0.0,-0.0,-0.0,-0.0,-0.0,-0.0,-0.0,-0.0,-0.0,-0.0,-0.0,-0.0,-0.0,-0.4199,-0.6434,-0.6434,-0.6544,-0.7656,-0.9794,-0.8634,-0.8744,-0.9751,-0.8694,-0.8154,1.9248,1.959,1.9235,1.6349,1.5604,1.4746,1.1691,1.1171,1.1192,1.0909,1.0884,1.0999,1.1402,1.0554,0.9873,0.998,0.9573,0.9084,0.0,0.8804,0.8804,0.8804,0.8466,0.8279,0.8279,0.7349,0.7516,0.934,0.8748,0.8629,0.9503,0.9418,0.8901,0.8062,0.7994,0.7984,0.8038,0.8038,0.8627,0.9998,1.0485,1.1072,1.1945,1.1945,1.1658,1.117,0.9899,0.9316,0.9213,0.8333,0.8038,0.8065,0.8309,0.8438,0.852,0.8825,0.894,0.894,0.894,0.894,0.894,0.895,0.895,0.8954,0.885,0.8853,0.8856,0.887,0.8187,0.7282,0.7293,0.7381,0.7383,0.7621,0.8722,0.9239,0.7133,0.6425,0.6309,0.6309,0.6317,0.6324,0.6324,0.2842,-0.0,-0.0,-0.0,-0.0,-0.0,-0.0,-0.0,-0.0,-0.0,-0.0,-0.0,-0.0,-0.0,-0.0,-0.0,-0.0987,-0.3334,-0.7557,-0.9814,-0.9804,-0.7768,-0.7635,-0.9764,-0.9859,-0.9842,-0.9842,-0.9829,-0.9764]},{"header":{"parameterUnit":"m.s-1","parameterCategory":1,"la1":30.6,"la2":29.2853,"lo1":-89.7004,"lo2":-87.6739,"dy":0.0162,"dx":0.0183,"nx":112,"ny":82,"refTime":"2024-09-11T00:00:00:Z","depth":0,"parameterNumber":3,"parameterNumberName":"V-component_of_WINDS"},"data":[0.0,0.0,0.0,0.0,0.0,0.0,0.0,0.0,0.0,0.0,0.0,0.0,0.0,0.0,0.0,0.0,0.0,0.0,0.0,0.0,0.0,0.0,0.0,0.0,0.0,0.0,0.0,0.0,0.0,0.0,0.0,0.0,0.0,0.0,0.0,0.0,0.0,0.0,0.0,0.0,0.0,0.0,0.0,0.0,0.0,0.0,0.0,0.0,0.0,0.0,0.0,0.0,0.0,0.0,0.0,0.0,0.0,0.0,0.0,0.0,0.0,0.0,0.0,0.0,0.0,0.0,0.0,0.0,0.0,0.0,0.0,0.0,0.0,0.0,0.0,0.0,0.0,0.0,0.0,0.0,0.0,0.0,0.0,0.0,0.0,0.0,0.0,0.0,0.0,0.0,-2.6656,-2.9602,-3.3234,-3.5158,-3.4468,-3.4141,-3.2372,-2.8541,0.0,0.0,0.0,0.0,0.0,0.0,0.0,0.0,0.0,0.0,0.0,0.0,0.0,0.0,0.0,0.0,0.0,0.0,0.0,0.0,0.0,0.0,0.0,0.0,0.0,0.0,0.0,0.0,0.0,0.0,0.0,0.0,0.0,0.0,0.0,0.0,0.0,0.0,0.0,0.0,0.0,0.0,0.0,0.0,0.0,0.0,0.0,0.0,0.0,0.0,0.0,0.0,0.0,0.0,0.0,0.0,0.0,0.0,0.0,0.0,0.0,0.0,0.0,0.0,0.0,0.0,0.0,0.0,0.0,0.0,0.0,0.0,0.0,0.0,0.0,0.0,0.0,0.0,0.0,0.0,0.0,0.0,0.0,0.0,0.0,0.0,0.0,0.0,0.0,0.0,0.0,0.0,0.0,0.0,0.0,0.0,0.0,0.0,0.0,0.0,0.0,0.0,0.0,0.0,-2.7949,-3.2588,-3.4337,-3.52,-3.5301,-3.3949,-3.2218,-3.0148,0.0,0.0,0.0,0.0,0.0,0.0,0.0,0.0,0.0,0.0,0.0,0.0,0.0,0.0,0.0,0.0,0.0,0.0,0.0,0.0,0.0,0.0,0.0,0.0,0.0,0.0,0.0,0.0,0.0,0.0,0.0,0.0,0.0,0.0,0.0,0.0,0.0,0.0,0.0,0.0,0.0,0.0,0.0,0.0,0.0,0.0,0.0,0.0,0.0,0.0,0.0,0.0,0.0,0.0,0.0,0.0,0.0,0.0,0.0,0.0,0.0,0.0,0.0,0.0,0.0,0.0,0.0,0.0,0.0,0.0,0.0,0.0,0.0,0.0,0.0,0.0,0.0,0.0,0.0,0.0,0.0,0.0,0.0,0.0,0.0,0.0,0.0,0.0,0.0,0.0,0.0,0.0,0.0,0.0,0.0,0.0,0.0,0.0,0.0,0.0,0.0,0.0,0.0,-2.6848,-2.9415,-3.3576,-3.4674,-3.5138,-3.5273,-3.37,-3.1962,-3.0284,-2.7094,0.0,0.0,0.0,0.0,0.0,0.0,0.0,0.0,0.0,0.0,0.0,0.0,0.0,0.0,0.0,0.0,0.0,0.0,0.0,0.0,0.0,0.0,0.0,0.0,0.0,0.0,0.0,0.0,0.0,0.0,0.0,0.0,0.0,0.0,0.0,0.0,0.0,0.0,0.0,0.0,0.0,0.0,0.0,0.0,0.0,0.0,0.0,0.0,0.0,0.0,0.0,0.0,0.0,0.0,0.0,0.0,0.0,0.0,0.0,0.0,0.0,0.0,0.0,0.0,0.0,0.0,0.0,0.0,0.0,0.0,0.0,0.0,0.0,0.0,0.0,0.0,0.0,0.0,0.0,0.0,0.0,0.0,0.0,0.0,0.0,0.0,0.0,0.0,0.0,0.0,0.0,0.0,0.0,0.0,0.0,0.0,0.0,0.0,0.0,0.0,0.0,0.0,-2.9315,-3.0948,-3.4093,-3.4704,-3.4944,-3.5088,-3.3111,-3.1248,-2.9783,-2.557,0.0,0.0,0.0,0.0,0.0,0.0,0.0,0.0,0.0,0.0,0.0,0.0,0.0,0.0,0.0,0.0,0.0,0.0,0.0,0.0,0.0,0.0,0.0,0.0,0.0,0.0,0.0,0.0,0.0,0.0,0.0,0.0,0.0,0.0,0.0,0.0,0.0,0.0,0.0,0.0,0.0,0.0,0.0,0.0,0.0,0.0,0.0,0.0,0.0,0.0,0.0,0.0,0.0,0.0,0.0,0.0,0.0,0.0,0.0,0.0,0.0,0.0,0.0,0.0,0.0,0.0,0.0,0.0,0.0,0.0,0.0,0.0,0.0,0.0,0.0,0.0,0.0,0.0,0.0,0.0,0.0,0.0,0.0,0.0,0.0,0.0,0.0,0.0,0.0,0.0,0.0,0.0,0.0,0.0,0.0,0.0,0.0,0.0,0.0,0.0,0.0,0.0,-2.9963,-3.2482,-3.4802,-3.4578,-3.4492,-3.5051,-3.1946,-2.9658,-2.8855,-2.3443,0.0,0.0,0.0,0.0,0.0,0.0,0.0,0.0,0.0,0.0,0.0,0.0,0.0,0.0,0.0,0.0,0.0,0.0,0.0,0.0,0.0,0.0,0.0,0.0,0.0,0.0,0.0,0.0,0.0,0.0,0.0,0.0,0.0,0.0,0.0,0.0,0.0,0.0,0.0,0.0,0.0,0.0,0.0,0.0,0.0,0.0,0.0,0.0,0.0,0.0,0.0,0.0,0.0,0.0,0.0,0.0,0.0,0.0,0.0,0.0,0.0,0.0,0.0,0.0,0.0,0.0,0.0,0.0,0.0,0.0,0.0,0.0,0.0,0.0,0.0,0.0,0.0,0.0,0.0,0.0,0.0,0.0,0.0,0.0,0.0,0.0,0.0,0.0,0.0,0.0,0.0,0.0,0.0,0.0,0.0,0.0,0.0,0.0,0.0,0.0,0.0,0.0,-2.9507,-3.1543,0.0,-3.4634,-3.4593,-3.4832,-3.2675,-3.0555,-2.8802,0.0,0.0,0.0,0.0,0.0,0.0,0.0,0.0,0.0,0.0,0.0,0.0,0.0,0.0,0.0,0.0,0.0,0.0,0.0,0.0,0.0,0.0,0.0,0.0,0.0,0.0,0.0,0.0,0.0,0.0,0.0,0.0,0.0,0.0,0.0,0.0,0.0,0.0,0.0,0.0,0.0,0.0,0.0,0.0,0.0,0.0,0.0,0.0,0.0,0.0,0.0,0.0,0.0,0.0,0.0,0.0,0.0,0.0,0.0,0.0,0.0,0.0,0.0,0.0,0.0,0.0,0.0,0.0,0.0,0.0,0.0,0.0,0.0,0.0,0.0,0.0,0.0,0.0,0.0,0.0,0.0,0.0,0.0,0.0,0.0,0.0,0.0,0.0,0.0,0.0,0.0,0.0,0.0,0.0,0.0,0.0,0.0,0.0,0.0,0.0,0.0,0.0,-2.8018,-2.9638,-3.1429,-3.4372,-3.4526,-3.4505,-3.4674,-3.2636,-3.0468,-2.8441,0.0,0.0,0.0,0.0,0.0,0.0,0.0,0.0,0.0,0.0,0.0,0.0,0.0,0.0,0.0,0.0,0.0,0.0,0.0,0.0,0.0,0.0,0.0,0.0,0.0,0.0,0.0,0.0,0.0,0.0,0.0,0.0,0.0,0.0,0.0,0.0,0.0,0.0,0.0,0.0,0.0,0.0,0.0,0.0,0.0,0.0,0.0,0.0,0.0,0.0,0.0,0.0,0.0,0.0,0.0,0.0,0.0,0.0,0.0,0.0,0.0,0.0,0.0,0.0,0.0,0.0,0.0,0.0,0.0,0.0,0.0,0.0,0.0,0.0,0.0,0.0,0.0,0.0,0.0,0.0,0.0,0.0,0.0,0.0,0.0,0.0,0.0,0.0,0.0,0.0,0.0,0.0,0.0,0.0,0.0,0.0,0.0,0.0,0.0,0.0,0.0,0.0,-2.8189,-3.0528,-3.254,-3.4484,-3.416,-3.4055,-3.4632,-3.1461,-2.8877,0.0,0.0,0.0,0.0,0.0,0.0,0.0,0.0,0.0,0.0,0.0,0.0,0.0,0.0,0.0,0.0,0.0,0.0,0.0,0.0,0.0,0.0,0.0,0.0,0.0,0.0,0.0,0.0,0.0,0.0,0.0,0.0,0.0,0.0,0.0,0.0,0.0,0.0,0.0,0.0,0.0,0.0,0.0,0.0,0.0,0.0,0.0,0.0,0.0,0.0,0.0,0.0,0.0,0.0,0.0,0.0,0.0,0.0,0.0,0.0,0.0,0.0,0.0,0.0,0.0,0.0,0.0,0.0,0.0,0.0,0.0,0.0,0.0,0.0,0.0,0.0,0.0,0.0,0.0,0.0,0.0,0.0,0.0,0.0,0.0,0.0,0.0,0.0,0.0,0.0,0.0,0.0,0.0,0.0,0.0,0.0,0.0,0.0,0.0,0.0,0.0,0.0,0.0,-2.8988,-3.0904,-3.2437,-3.4147,-3.4398,-3.442,-3.4357,-3.2347,-3.0058,-2.7661,0.0,0.0,0.0,0.0,0.0,0.0,0.0,0.0,0.0,0.0,0.0,0.0,0.0,0.0,0.0,0.0,0.0,0.0,0.0,0.0,0.0,0.0,0.0,0.0,0.0,0.0,0.0,0.0,0.0,0.0,0.0,0.0,0.0,0.0,0.0,0.0,0.0,0.0,0.0,0.0,0.0,0.0,0.0,0.0,0.0,0.0,0.0,0.0,0.0,0.0,0.0,0.0,0.0,0.0,0.0,0.0,0.0,0.0,0.0,0.0,0.0,0.0,0.0,0.0,0.0,0.0,0.0,0.0,0.0,0.0,0.0,0.0,0.0,0.0,0.0,0.0,0.0,0.0,0.0,0.0,0.0,0.0,0.0,0.0,0.0,0.0,0.0,0.0,0.0,0.0,0.0,0.0,0.0,0.0,0.0,0.0,0.0,0.0,0.0,0.0,0.0,0.0,-2.9209,-3.1158,-3.2651,-3.4046,-3.4379,-3.4467,-3.4401,-3.2906,-3.0791,-2.8013,0.0,0.0,0.0,0.0,0.0,0.0,0.0,0.0,0.0,0.0,0.0,0.0,0.0,0.0,0.0,0.0,0.0,0.0,0.0,0.0,0.0,0.0,0.0,0.0,0.0,0.0,0.0,0.0,0.0,0.0,0.0,0.0,0.0,0.0,0.0,0.0,0.0,0.0,0.0,0.0,0.0,0.0,0.0,0.0,0.0,0.0,0.0,0.0,0.0,0.0,0.0,0.0,0.0,0.0,0.0,0.0,0.0,0.0,0.0,0.0,0.0,0.0,0.0,0.0,0.0,0.0,0.0,0.0,0.0,0.0,0.0,0.0,0.0,0.0,0.0,0.0,0.0,0.0,0.0,0.0,0.0,0.0,0.0,0.0,0.0,0.0,0.0,0.0,0.0,0.0,0.0,0.0,0.0,0.0,0.0,0.0,0.0,0.0,0.0,0.0,0.0,0.0,-2.9098,-3.1407,-3.305,-3.4125,-3.4265,-3.4379,-3.4674,-3.3222,-3.1223,-2.8661,0.0,0.0,0.0,0.0,0.0,0.0,0.0,0.0,0.0,0.0,0.0,0.0,0.0,0.0,0.0,0.0,0.0,0.0,0.0,0.0,0.0,0.0,0.0,0.0,0.0,0.0,0.0,0.0,0.0,0.0,0.0,0.0,0.0,0.0,0.0,0.0,0.0,0.0,0.0,0.0,0.0,0.0,0.0,0.0,0.0,0.0,0.0,0.0,0.0,0.0,0.0,0.0,0.0,0.0,0.0,0.0,0.0,0.0,0.0,0.0,-1.9777,-1.8432,0.0,0.0,0.0,0.0,0.0,0.0,0.0,0.0,0.0,0.0,0.0,0.0,0.0,0.0,0.0,0.0,0.0,0.0,0.0,0.0,0.0,0.0,0.0,0.0,0.0,0.0,0.0,0.0,0.0,0.0,0.0,0.0,0.0,0.0,0.0,0.0,0.0,0.0,0.0,0.0,-2.9444,-3.1669,-3.3347,-3.4457,-3.4593,-3.4632,-3.4694,-3.3733,-3.2053,-2.951,-2.7024,0.0,0.0,0.0,0.0,0.0,0.0,0.0,0.0,0.0,0.0,0.0,0.0,0.0,0.0,0.0,0.0,0.0,0.0,0.0,0.0,0.0,0.0,0.0,0.0,0.0,0.0,0.0,0.0,0.0,0.0,0.0,0.0,0.0,0.0,0.0,0.0,0.0,0.0,0.0,0.0,0.0,0.0,0.0,0.0,0.0,0.0,0.0,0.0,0.0,0.0,0.0,0.0,0.0,0.0,0.0,0.0,0.0,0.0,0.0,-2.2918,-2.1418,0.0,0.0,0.0,0.0,0.0,0.0,0.0,0.0,0.0,0.0,0.0,0.0,0.0,0.0,0.0,0.0,0.0,0.0,0.0,0.0,0.0,0.0,0.0,0.0,0.0,0.0,0.0,0.0,0.0,0.0,0.0,0.0,0.0,0.0,0.0,0.0,0.0,0.0,0.0,0.0,-2.985,-3.2411,-3.4396,-3.5544,-3.5778,-3.5694,-3.5317,-3.4624,-3.3258,-3.0996,-2.8719,0.0,0.0,0.0,0.0,0.0,0.0,0.0,0.0,0.0,0.0,0.0,0.0,0.0,0.0,0.0,0.0,0.0,0.0,0.0,0.0,0.0,0.0,0.0,0.0,0.0,0.0,0.0,0.0,0.0,0.0,0.0,0.0,0.0,0.0,0.0,0.0,0.0,0.0,0.0,0.0,0.0,0.0,0.0,0.0,0.0,0.0,0.0,0.0,0.0,0.0,0.0,0.0,0.0,-2.7487,-2.8264,-2.9922,-2.9414,-2.9533,-2.9973,-2.686,-2.5465,-2.53,-2.3994,0.0,0.0,0.0,0.0,0.0,0.0,0.0,0.0,0.0,0.0,0.0,0.0,0.0,0.0,0.0,0.0,0.0,0.0,0.0,0.0,0.0,0.0,-2.7695,0.0,-3.1329,-3.0723,-2.6722,0.0,0.0,0.0,0.0,0.0,0.0,0.0,0.0,0.0,0.0,0.0,-3.07,-3.3531,-3.5687,-3.6739,-3.7017,-3.6869,-3.6308,-3.5682,-3.4558,-3.2805,-3.0693,-2.849,0.0,0.0,0.0,0.0,0.0,0.0,0.0,0.0,0.0,0.0,0.0,0.0,0.0,0.0,0.0,0.0,0.0,0.0,0.0,0.0,0.0,0.0,0.0,0.0,0.0,0.0,0.0,0.0,0.0,0.0,0.0,0.0,-1.8231,-1.8589,0.0,0.0,0.0,0.0,0.0,0.0,0.0,0.0,0.0,0.0,0.0,0.0,0.0,-2.74,-2.8539,-3.0678,-3.1387,-3.0709,-3.3119,-3.4117,-3.3778,-3.4336,-3.4658,-3.4709,-3.4235,0.0,-2.7369,-2.6764,0.0,0.0,0.0,0.0,0.0,0.0,0.0,0.0,0.0,0.0,0.0,0.0,0.0,0.0,0.0,0.0,0.0,0.0,0.0,0.0,0.0,0.0,-3.3678,-3.3385,-3.3403,-3.3311,-3.2669,-3.0338,-2.7695,-2.5384,-2.4321,-2.3126,0.0,0.0,0.0,0.0,0.0,0.0,-3.2691,-3.5044,-3.6742,-3.7414,-3.7256,-3.7279,-3.769,-3.6755,-3.5736,-3.478,-3.3231,-3.1801,-3.0524,-2.7762,0.0,0.0,0.0,0.0,0.0,0.0,0.0,0.0,0.0,0.0,0.0,0.0,0.0,0.0,0.0,0.0,0.0,0.0,0.0,0.0,0.0,0.0,0.0,0.0,0.0,0.0,0.0,0.0,0.0,-1.8485,-2.0517,-2.0621,-2.1652,-2.1841,0.0,0.0,0.0,0.0,0.0,0.0,0.0,0.0,0.0,-2.9814,-3.0126,-3.0891,-3.2241,-3.3673,-3.4372,-3.4353,-3.5656,-3.6315,-3.6417,-3.6755,-3.6907,-3.6907,-3.6907,-3.5368,-3.2696,-3.0802,-2.9334,-2.8209,0.0,0.0,0.0,0.0,-2.8208,-2.8273,-2.975,-3.0123,-2.9963,-2.9707,0.0,0.0,0.0,0.0,0.0,0.0,0.0,-3.188,-3.3275,-3.5018,-3.6541,-3.7092,-3.7569,-3.779,-3.7331,-3.6119,-3.4009,-3.0191,-2.8828,-2.7485,-2.4861,-2.5098,0.0,0.0,0.0,-3.2388,-3.433,-3.6381,-3.7947,-3.8641,-3.876,-3.8689,-3.8472,-3.8159,-3.7619,-3.6773,-3.5235,-3.3928,-3.2957,-3.0701,-2.8621,0.0,0.0,0.0,0.0,0.0,0.0,0.0,0.0,0.0,0.0,0.0,0.0,0.0,0.0,0.0,0.0,0.0,0.0,0.0,0.0,0.0,0.0,0.0,0.0,0.0,0.0,0.0,0.0,-2.0861,-2.2659,-2.2488,-2.4134,-2.4599,0.0,0.0,0.0,0.0,0.0,0.0,-2.8798,-2.8783,-3.0035,-3.2894,-3.3301,-3.4049,-3.5351,-3.6113,-3.6772,-3.7347,-3.7533,-3.7922,-3.8464,-3.8464,-3.8464,-3.8464,-3.8464,-3.8041,-3.7127,-3.4303,-3.2565,-3.1591,-3.085,-3.0803,-3.1196,-3.1882,-3.2015,-3.2083,-3.388,-3.4387,-3.4195,-3.4069,-3.376,-3.3136,-3.1638,0.0,0.0,0.0,0.0,-3.4633,-3.6688,-3.7808,-3.8707,-3.9918,-4.0671,-4.0946,-4.0341,-4.0212,-3.8891,-3.4412,-3.3054,-3.1808,-2.9044,-2.9005,0.0,-2.8933,-3.1745,-3.4445,-3.6049,-3.7675,-3.8987,-3.9745,-3.9983,-3.9872,-3.9279,-3.921,-3.8927,-3.8373,-3.6949,-3.5853,-3.5199,-3.3564,-3.1679,-2.9544,0.0,0.0,0.0,0.0,0.0,0.0,0.0,0.0,0.0,0.0,0.0,0.0,0.0,0.0,0.0,0.0,0.0,0.0,0.0,0.0,0.0,0.0,0.0,0.0,0.0,0.0,0.0,0.0,0.0,-2.3917,-2.6355,0.0,0.0,0.0,0.0,-2.7444,-2.9121,-3.085,-3.2452,-3.2906,-3.4176,-3.6463,-3.6581,-3.6941,-3.7719,-3.8464,-3.8836,-3.8886,-3.958,-3.9935,-3.9969,-3.9969,-3.9969,-3.9969,-3.9969,-3.9546,-3.87,-3.64,-3.5224,-3.4818,-3.4076,-3.3998,-3.4386,-3.477,-3.4893,-3.5099,-3.6506,-3.7016,-3.729,-3.8951,-3.8456,-3.7202,-3.7092,-3.5991,0.0,0.0,-3.7184,-3.8597,-3.9478,-4.0322,-4.0946,-4.1038,-4.1075,-4.1111,-4.1056,-4.1056,-4.0065,0.0,-3.6083,-3.5322,-3.2993,0.0,-3.2911,-3.3634,-3.4581,-3.5938,-3.7988,-3.9014,-3.9764,-4.0386,-4.0232,-4.0195,-4.0399,-3.9446,-3.8951,-3.9204,-3.8373,-3.7853,-3.7815,-3.6199,-3.4872,-3.3891,-2.9852,0.0,0.0,0.0,0.0,0.0,0.0,0.0,0.0,0.0,0.0,0.0,0.0,0.0,0.0,0.0,0.0,0.0,0.0,0.0,0.0,0.0,0.0,0.0,0.0,0.0,0.0,0.0,0.0,-2.6461,-2.8605,0.0,-2.8247,-2.9644,-3.0941,-3.1579,-3.2552,-3.3751,-3.53,-3.5508,-3.6383,-3.8142,-3.821,-3.8565,-3.9292,-3.9563,-3.9698,-3.9698,-3.9952,-4.007,-4.007,-4.007,-4.007,-4.007,-4.007,-3.9935,-3.9631,-3.8819,-3.7865,-3.6911,-3.7008,-3.7123,-3.7324,-3.779,-3.8196,-3.8538,-3.9029,-3.9409,-3.9833,-4.0463,-4.0286,-3.9827,-3.9827,-3.9405,-3.9111,-3.9937,-4.0579,-4.1203,-4.2011,-4.2433,-4.2635,-4.2635,-4.2635,-4.2635,-4.2635,-4.2635,-4.2158,-4.0487,-3.952,-3.8385,-3.6662,-3.6896,-3.7231,-3.7135,-3.8334,-3.9686,-4.095,-4.1551,-4.1932,-4.2146,-4.2096,-4.1848,-4.1393,-4.0946,-4.0332,-3.9354,-3.8469,-3.7757,-3.7199,-3.6103,-3.5084,-3.4218,-3.216,-2.9602,0.0,0.0,0.0,0.0,0.0,0.0,0.0,0.0,0.0,0.0,0.0,0.0,0.0,0.0,0.0,0.0,0.0,0.0,0.0,0.0,0.0,0.0,0.0,0.0,0.0,-2.7108,-2.928,-2.8996,-3.1102,-3.2303,-3.1542,-3.265,-3.383,-3.4822,-3.5586,-3.6451,-3.7483,-3.7753,-3.8345,-3.9326,-3.936,-3.9597,-4.007,-4.007,-4.007,-4.007,-4.007,-4.007,-4.007,-4.007,-4.007,-4.0121,-4.0286,-4.0368,-4.0368,-4.0594,-4.0105,-3.9227,-3.9175,-3.9175,-3.925,-3.9834,-4.0253,-4.0556,-4.0957,-4.145,-4.1919,-4.1919,-4.1919,-4.1919,-4.1919,-4.1919,-4.2029,-4.2543,-4.269,-4.2818,-4.3351,-4.3497,-4.3497,-4.3497,-4.3597,-4.3679,-4.3679,-4.3679,-4.3513,-4.2996,-4.1957,-4.0821,-3.9621,-4.0024,-4.0378,-3.9977,-4.0893,-4.1869,-4.2524,-4.2795,-4.2961,-4.3104,-4.3104,-4.2758,-4.1873,-4.1527,-4.0777,-3.9392,-3.8469,-3.7603,-3.6738,-3.593,-3.5084,-3.4218,-3.2795,-3.0679,-2.789,0.0,0.0,0.0,0.0,0.0,0.0,0.0,0.0,0.0,0.0,0.0,0.0,0.0,0.0,0.0,0.0,0.0,0.0,0.0,0.0,0.0,0.0,0.0,-2.6319,-3.0003,-3.2483,-3.1484,-3.3931,-3.5131,-3.3711,-3.5571,-3.6857,-3.6874,-3.821,-3.9022,-3.9022,-3.9698,-4.007,-4.007,-4.007,-4.007,-4.007,-4.007,-4.007,-4.007,-4.007,-4.0087,-4.0104,-4.0087,-4.0087,-4.0155,-4.0672,-4.0874,-4.0903,-4.149,-4.1768,-4.1621,-4.0594,-4.0171,-4.0254,-4.078,-4.0995,-4.1178,-4.2342,-4.3069,-4.3497,-4.3497,-4.3497,-4.3497,-4.3497,-4.3497,-4.3497,-4.3497,-4.3497,-4.3497,-4.3497,-4.3497,-4.3497,-4.3497,-4.3758,-4.4016,-4.4016,-4.4016,-4.4016,-4.4016,-4.3394,-4.2621,-4.181,-4.1969,-4.2176,-4.2176,-4.22,0.0,-4.2637,-4.2697,-4.2833,-4.3145,-4.3181,-4.2816,-4.1931,-4.1066,-4.02,-3.9315,-3.843,-3.7584,-3.6738,-3.593,-3.5122,-3.4276,-3.1795,-2.9717,-2.8063,0.0,0.0,0.0,0.0,0.0,0.0,0.0,0.0,0.0,0.0,0.0,0.0,0.0,0.0,0.0,0.0,0.0,0.0,0.0,0.0,0.0,-2.9467,-3.1708,-3.0999,-3.3168,-3.4958,-3.5243,-3.6451,-3.733,-3.7449,-3.8024,-3.8599,-3.9123,-3.9546,-3.9783,-3.9783,-3.9969,-4.007,-4.007,-4.007,-4.007,-4.007,-4.007,-4.007,-4.007,-4.007,-4.0358,-4.0882,-4.0324,-4.0375,-4.0865,-4.0492,-4.0336,-4.0336,-4.0514,-4.0563,-4.0642,-4.1613,-4.2015,-4.2038,-4.26,-4.2792,-4.2829,-4.316,-4.3375,-4.3497,-4.3497,-4.3497,-4.3497,-4.3497,-4.3497,-4.3497,-4.3497,-4.3497,-4.3497,-4.3497,-4.3497,-4.3497,-4.3497,-4.3758,-4.4016,-4.4016,-4.4233,-4.4447,-4.4447,-4.4449,-4.4222,-4.3482,-4.3863,-4.4281,-4.4281,-4.4475,-4.4672,-4.4766,-4.4766,-4.4821,-4.4893,-4.4913,-4.4316,-4.2874,-4.2527,-4.1219,-3.8527,-3.7546,-3.6949,-3.6719,-3.593,-3.5661,-3.6007,-3.4122,-3.2622,0.0,0.0,0.0,0.0,0.0,0.0,0.0,0.0,0.0,0.0,0.0,0.0,0.0,0.0,0.0,0.0,0.0,0.0,0.0,0.0,0.0,0.0,-3.2598,-3.4965,-3.5335,-3.6333,-3.7195,-3.7652,-3.8362,-3.8988,-3.9411,-3.9445,-3.9631,-4.0054,-4.007,-4.007,-4.007,-4.007,-4.0223,-4.0544,-4.0544,-4.0696,-4.1001,-4.1001,-4.1001,-4.1001,-4.129,-4.1646,-4.2073,-4.1874,-4.2054,-4.2452,-4.2271,-4.2201,-4.2201,-4.2457,-4.2546,-4.2476,0.0,0.0,0.0,0.0,-4.3304,-4.3497,-4.3497,-4.3497,-4.3497,-4.3497,-4.3497,-4.3497,-4.3497,-4.3497,-4.3497,-4.3497,-4.3497,-4.3497,-4.3497,-4.3497,-4.3497,-4.3497,-4.3899,-4.4233,-4.4233,-4.4553,-4.4825,-4.4825,-4.4849,0.0,-4.4318,-4.4853,-4.5322,-4.5322,-4.5476,-4.5586,-4.5586,-4.5586,-4.5586,-4.5586,-4.5586,-4.5047,-4.372,-4.297,0.0,0.0,0.0,-3.7084,-3.6719,-3.593,0.0,0.0,0.0,0.0,0.0,0.0,0.0,0.0,-3.2519,-3.2711,0.0,0.0,0.0,0.0,0.0,0.0,0.0,0.0,0.0,0.0,0.0,0.0,0.0,0.0,0.0,0.0,-3.5554,-3.7516,-3.892,-3.9106,-3.9106,-3.9106,-3.9681,-4.007,-4.007,-4.007,-4.007,-4.007,-4.0155,-4.0206,-4.0206,-4.0273,0.0,0.0,0.0,-4.1644,-4.2286,-4.2392,-4.2428,-4.2428,-4.3093,-4.3423,-4.3541,-4.3983,-4.4254,-4.4325,-4.4791,-4.498,-4.5039,-4.551,-4.5755,-4.5534,-4.2615,-4.145,-4.1585,-4.2691,-4.336,-4.3754,-4.3754,0.0,0.0,-4.3626,-4.3552,-4.3497,-4.3497,-4.3497,-4.3497,-4.3497,-4.3497,-4.3497,-4.3497,-4.3497,-4.3497,-4.3497,-4.4065,-4.458,-4.458,-4.4896,-4.5159,-4.5159,-4.4919,-4.4707,-4.4707,-4.5161,-4.5531,-4.5531,-4.5568,-4.5586,-4.5586,-4.5586,-4.5586,-4.5586,-4.5586,0.0,-4.4374,-4.2951,-4.1662,-4.07,-3.9258,-3.8046,-3.7161,-3.6642,-3.6661,-3.7257,-3.8027,-3.8815,-3.9585,-4.1066,-4.1508,-4.0816,-3.6103,-3.5526,0.0,0.0,0.0,0.0,0.0,0.0,0.0,0.0,0.0,0.0,0.0,0.0,0.0,0.0,0.0,-3.4922,-3.7094,-3.887,-3.9732,-3.9868,-3.9868,-3.9868,-3.9986,-4.007,-4.007,-4.007,-4.007,-4.007,-4.0646,-4.0984,-4.0984,-4.1542,-4.1931,-4.2066,-4.2083,-4.2151,-4.2286,-4.2826,-4.3111,-4.3093,-4.3717,0.0,-4.4876,-4.4395,-4.4538,-4.5042,-4.4574,-4.4377,-4.4395,-4.4482,-4.4839,-4.5222,-4.5031,-4.4924,-4.498,-4.5186,-4.5352,-4.5443,-4.5443,-4.5002,-4.447,-4.447,-4.403,-4.3497,-4.3497,-4.3497,0.0,-4.3497,-4.3497,-4.3497,-4.3497,-4.3497,-4.3497,-4.3497,-4.4065,-4.458,-4.458,-4.5074,-4.5495,-4.5495,-4.5438,-4.5419,-4.5419,-4.5302,-4.5201,-4.5201,-4.5419,-4.5586,-4.5586,-4.5586,-4.5586,-4.5586,-4.5586,-4.524,-4.4374,-4.3989,-4.3162,-4.1643,-4.1239,-4.0681,-3.9796,-4.0969,-4.1373,-4.0816,-4.0989,-4.1162,-4.1316,-4.1643,-4.2412,-4.3508,-4.1181,-4.0431,0.0,0.0,0.0,0.0,0.0,0.0,0.0,0.0,0.0,0.0,0.0,-3.0439,-3.1264,0.0,-3.5776,-3.7106,-3.8565,-3.9665,-4.002,-4.007,-4.007,-4.007,-4.007,-4.007,-4.007,-4.007,-4.024,-4.0612,-4.0984,-4.1373,-4.1728,-4.21,-4.2472,-4.2844,-4.2861,-4.3175,-4.387,-4.3905,-4.4113,-4.4418,-4.5,-4.5475,-4.5875,-4.6144,-4.6452,-4.6795,-4.6398,-4.6236,-4.6236,-4.6236,-4.6418,-4.6752,-4.7019,-4.6617,-4.5902,-4.5902,-4.5902,-4.5902,-4.5902,-4.5645,-4.5296,-4.5296,-4.5039,-4.469,-4.469,-4.469,-4.469,-4.469,-4.469,-4.469,-4.469,-4.469,-4.469,-4.469,-4.4948,-4.5202,-4.5202,-4.5404,-4.5586,-4.5586,-4.5586,-4.5586,-4.5586,-4.5457,-4.5342,-4.5342,-4.5495,-4.5586,-4.5586,-4.5586,-4.5586,-4.5586,-4.5586,-4.5413,-4.4989,-4.4547,-4.3778,-4.2527,-4.245,-4.2258,-4.1816,-4.2643,-4.2893,-4.247,-4.2854,-4.3047,-4.3047,-4.3489,-4.4124,-4.4932,-4.4085,-4.3701,0.0,0.0,0.0,0.0,0.0,0.0,0.0,-2.7457,-2.8286,-3.0209,-3.1819,-3.3448,-3.5206,-3.6491,-3.7652,-3.8988,-3.9698,-4.007,-4.007,-4.007,-4.007,-4.007,-4.007,-4.007,-4.007,-4.0206,-4.0544,-4.117,-4.1474,-4.1897,-4.2472,-4.2658,-4.3051,-4.3807,-4.3677,-4.4312,-4.5681,-4.5178,-4.5178,-4.5681,-4.643,-4.671,-4.6618,-4.7797,-4.8306,-4.8306,-4.8306,-4.821,-4.8114,-4.8267,-4.8306,-4.8306,-4.8306,-4.7517,-4.6361,-4.6361,-4.6361,-4.6361,-4.6361,-4.6269,-4.614,-4.614,-4.603,-4.5902,-4.5902,-4.5902,-4.5902,-4.5902,-4.5902,-4.5902,-4.5902,-4.5902,-4.5902,-4.5902,-4.5972,-4.6024,-4.6024,-4.6072,-4.6028,-4.5874,-4.5836,-4.5797,-4.5624,-4.5586,-4.5586,-4.5586,-4.5586,-4.5586,-4.5586,-4.5586,-4.5586,-4.5586,-4.5586,-4.5586,-4.5586,-4.4951,-4.4278,-4.3624,-4.3585,-4.3585,-4.3585,-4.3585,-4.3585,-4.3585,-4.422,-4.4547,-4.4547,-4.5259,-4.5586,-4.5586,-4.5586,-4.5586,-2.5731,-2.5737,-2.58,-2.7438,-2.7656,-2.8689,0.0,-3.3999,-3.3804,-3.4718,-3.6124,-3.7276,-3.753,-3.8241,-3.9005,-3.9817,-4.002,-4.007,-4.007,-4.007,-4.007,-4.007,-4.007,-4.007,-4.007,-4.0679,-4.1119,-4.1204,-4.2422,-4.32,-4.3284,-4.3944,-4.4647,-4.5234,-4.4732,-4.5056,-4.6288,-4.624,-4.624,-4.6336,-4.7512,-4.7797,-4.7281,-4.7977,-4.8306,-4.8306,-4.8306,-4.7995,-4.753,-4.8075,-4.8306,-4.8306,-4.8306,-4.8196,-4.8031,-4.8031,-4.8031,-4.8031,-4.8031,-4.7572,-4.6985,-4.6985,-4.6489,-4.5902,-4.5902,-4.5902,-4.5902,-4.5902,-4.5902,-4.5902,-4.5902,-4.5902,-4.5902,-4.5902,-4.6382,-4.6881,-4.6881,-4.7369,-4.7605,-4.6894,-4.6759,-4.6509,-4.572,-4.5586,-4.5586,-4.5586,-4.5586,-4.5586,-4.5586,-4.5586,-4.5586,-4.5586,-4.5586,-4.5586,-4.5586,-4.5509,-4.5413,-4.5316,-4.5316,-4.5316,-4.5316,-4.5316,-4.5316,-4.5316,-4.5413,-4.5451,-4.5451,-4.5547,-4.5586,-4.5586,-4.5586,-4.5586,-2.8765,-2.9052,-2.9123,-3.0595,-3.1346,-3.2473,-3.5301,-3.5528,-3.5605,-3.7246,-3.8091,-3.8667,-3.9089,-3.9411,-3.9715,-4.002,-4.007,-4.007,-4.007,-4.007,-4.007,-4.007,-4.007,-4.007,-4.007,-4.0764,-4.139,-4.1813,-4.2828,-4.3606,-4.4062,-4.4719,-4.5232,-4.5511,-4.5597,-4.5865,-4.6383,-4.6383,-4.6383,-4.643,-4.6937,-4.7281,-4.7385,-4.7656,-4.7977,-4.8267,-4.7937,-4.7838,-4.7937,-4.821,-4.8306,-4.8306,-4.8306,-4.8306,-4.8306,-4.8306,-4.8306,-4.8306,-4.8306,-4.8086,-4.781,-4.781,-4.7572,-4.7297,-4.7297,-4.7297,-4.7297,-4.7297,-4.7297,-4.7297,-4.7297,-4.7297,-4.7353,-4.7587,-4.7673,-4.7767,-4.8017,-4.8073,-4.8009,-4.7663,-4.7605,-4.749,-4.7124,-4.6663,-4.6355,-4.6355,-4.5913,-4.5586,-4.5586,-4.5586,-4.5586,-4.5586,-4.5586,-4.5586,-4.5586,-4.5586,-4.5586,-4.5586,-4.5586,-4.5586,-4.5586,-4.5586,-4.5586,-4.5586,-4.5586,-4.5586,-4.5586,-4.5586,-4.5855,-4.6355,-4.6355,-4.6605,-3.0404,-3.1267,-3.2055,-3.3208,-3.4489,-3.5711,-3.6754,-3.6916,-3.7313,-3.8954,-3.9292,-3.9462,-3.9986,-4.007,-4.007,-4.007,-4.007,-4.007,-4.007,-4.007,-4.007,-4.007,-4.007,-4.007,-4.007,-4.0764,-4.1508,-4.2236,-4.298,-4.3796,-4.4818,-4.5089,-4.5511,-4.6032,-4.6112,-4.6336,-4.6664,-4.6664,-4.6571,-4.6383,-4.6571,-4.691,-4.7385,-4.7572,-4.7797,-4.8035,-4.7756,-4.7797,-4.8075,-4.821,-4.8306,-4.8324,-4.8563,-4.8655,-4.8655,-4.8655,-4.8508,-4.8306,-4.8306,-4.8306,-4.8306,-4.8306,-4.8306,-4.8306,-4.8306,-4.8306,-4.8306,-4.8306,-4.8306,-4.8344,-4.8421,-4.8458,-4.8586,-4.8963,-4.8867,-4.8799,-4.9086,-4.8982,-4.8759,-4.8509,-4.8471,-4.8375,-4.8144,-4.7625,-4.724,-4.724,-4.6682,-4.6124,-4.5663,-4.5586,-4.5586,-4.5586,-4.5586,-4.5586,-4.5586,-4.5586,-4.5586,-4.5586,-4.5586,-4.5586,-4.5586,-4.5586,-4.5586,-4.5586,-4.5836,-4.5951,-4.5951,-4.6182,-4.6605,-4.724,-4.724,-4.7548,-2.98,-3.1391,-3.367,-3.4685,-3.6382,-3.799,-3.8717,-3.9445,-3.9969,-4.002,-4.0054,-4.0054,-4.007,-4.007,-4.007,-4.007,-4.007,-4.007,-4.007,-4.007,-4.007,-4.007,-4.007,-4.007,-4.007,-4.0764,-4.1508,-4.2236,-4.298,-4.398,-4.5425,-4.4961,-4.5477,-4.7281,-4.6161,-4.6112,-4.7342,-4.7385,-4.7044,-4.643,-4.7044,-4.7385,-4.7428,-4.7995,-4.7977,-4.747,-4.8035,-4.7937,-4.747,-4.8075,-4.8306,-4.8379,-4.9224,-4.9536,-4.9536,-4.9536,-4.9022,-4.8306,-4.8306,-4.8306,-4.8306,-4.8306,-4.8306,-4.8306,-4.8306,-4.8306,-4.8306,-4.8306,-4.8306,-4.8402,-4.8779,-4.8897,-4.8978,-4.9386,-4.9781,-5.0054,-5.0054,-5.0363,-5.0356,-4.951,-4.9356,-4.9086,-4.8259,-4.8086,-4.8067,-4.8067,-4.8048,-4.7432,-4.5797,-4.5586,-4.5586,-4.5586,-4.5586,-4.5586,-4.5586,-4.5586,-4.5586,-4.5586,-4.5586,-4.5586,-4.5586,-4.5586,-4.5586,-4.5586,-4.6432,-4.6855,-4.6855,-4.7644,-4.8048,-4.8067,-4.8067,-4.8086,-3.3117,-3.4918,-3.6684,-3.776,-3.8888,-3.9844,-4.0198,-4.0435,-4.0607,-4.0607,-4.0607,-4.0595,-4.0461,-4.0562,-4.0453,-3.9924,-3.9963,-4.007,-4.007,-4.051,-4.0646,-4.0138,-4.051,-4.0629,-4.0121,-4.0764,-4.1508,-4.2236,-4.3407,-4.4492,-4.5459,-4.613,-4.6542,-4.671,-4.7132,-4.6955,-4.6161,-4.6972,-4.6864,-4.5833,-4.7446,-4.8003,-4.764,-4.8764,-4.9458,-4.962,-4.9398,-4.9458,-4.9679,-4.9878,-4.9958,-4.9994,-5.0288,-5.0398,-5.0398,-5.0398,-5.0215,-4.9811,-4.8691,-4.8306,-4.8306,-4.8306,-4.8306,-4.8306,-4.8306,-4.8306,-4.8306,-4.8306,-4.8306,-4.8383,-4.8813,-4.8897,-4.9075,-4.9746,-4.9999,-5.0183,-5.0442,-5.0604,-5.0606,-5.0317,-5.026,-5.0164,-4.9875,-4.9356,-4.8779,-4.8202,-4.8105,-4.7702,-4.6605,-4.6471,-4.624,-4.5663,-4.5586,-4.5586,-4.5586,-4.5586,-4.5586,-4.5586,-4.5586,-4.5586,-4.5586,-4.5586,-4.5874,-4.6451,-4.6759,-4.7163,-4.7702,-4.7971,-4.8394,-4.8952,-4.8952,-4.926,-3.5698,-3.7334,-3.8618,-4.0024,-4.0737,-4.1131,-4.1191,-4.1223,-4.1136,-4.0874,-4.055,-4.0307,-4.0217,-4.0034,-3.9931,-4.0,-4.0406,-4.0745,-4.081,-4.1675,-4.19,-4.1019,-4.1529,-4.1682,-4.0968,-4.1305,-4.1884,-4.2586,-4.3733,-4.4931,-4.6125,-4.6728,-4.7044,-4.7088,-4.7928,-4.7713,-4.6252,-4.7561,-4.7704,-4.6704,-4.8533,-4.9071,-4.8508,-4.9639,-5.038,-5.0762,-5.032,-5.038,-5.0802,-5.0802,-5.0802,-5.0839,-5.1114,-5.1224,-5.1224,-5.1224,-5.1224,-5.1022,-4.9682,-4.9003,-4.8765,-4.8765,-4.8545,-4.8306,-4.8306,-4.8306,-4.8306,-4.8306,-4.8383,-4.8604,-4.9029,-4.9234,-4.9504,-5.0159,-5.0294,-5.0399,-5.0624,-5.0702,-5.0702,-5.0702,-5.0702,-5.0702,-5.0702,-5.024,-4.9663,-4.9106,-4.9029,-4.8625,-4.749,-4.7336,-4.7105,-4.6547,-4.649,-4.649,-4.649,-4.649,-4.649,-4.649,-4.649,-4.649,-4.649,-4.649,-4.6759,-4.7317,-4.7625,-4.8048,-4.8567,-4.8875,-4.9317,-4.9856,-4.9856,-5.0164,-3.7437,-3.858,-3.9661,-4.1451,-4.1895,-4.1895,-4.1853,-4.1817,-4.1552,-4.0713,-3.9876,-3.9292,-3.9208,-3.8651,-3.874,-4.0212,-4.1262,-4.1912,-4.2077,-4.3325,-4.3799,-4.2481,-4.2944,-4.3095,-4.2445,-4.2373,-4.2653,-4.3395,-4.4103,-4.5356,-4.736,-4.6908,-4.7151,-4.8339,-4.8587,-4.8362,-4.7656,-4.8987,-4.9364,-4.8834,-5.0185,-5.0495,-4.9866,-5.0592,-5.093,-5.093,-5.093,-5.093,-5.093,-5.093,-5.093,-5.1004,-5.1756,-5.205,-5.205,-5.205,-5.205,-5.194,-5.1187,-5.0362,-4.9646,-4.9646,-4.9095,-4.8434,-4.8434,-4.8398,-4.8379,-4.8379,-4.8641,-4.8978,-4.9386,-4.98,-5.0183,-5.0604,-5.0702,-5.0702,-5.0702,-5.0702,-5.0702,-5.0702,-5.0702,-5.0702,-5.0702,-5.0702,-5.0702,-5.0702,-5.0702,-5.0087,-4.8394,-4.8163,-4.8144,-4.8105,-4.8105,-4.8105,-4.8105,-4.8105,-4.8105,-4.8105,-4.8105,-4.8105,-4.8105,-4.8105,-4.8125,-4.8163,-4.8971,-4.9413,-4.9471,-5.0298,-5.0702,-5.0702,-5.0702,-5.0702,-3.963,-4.1293,-4.2465,-4.296,-4.3069,-4.294,-4.2559,-4.1995,-4.1094,-3.9693,-3.8779,-3.7774,-3.639,-3.7589,-3.8743,-3.8527,-4.0887,-4.2555,-4.2146,-4.3781,-4.4536,-4.3212,-4.3677,-4.3848,-4.3113,-4.3096,-4.3819,-4.5558,-4.5834,-4.6671,-4.8189,-4.9143,-4.9616,-4.9434,-4.9961,-4.9691,-4.86,-4.8923,-4.903,-4.8884,-5.0298,-5.0877,-5.0742,-5.1999,-5.2601,-5.2601,-5.2601,-5.2601,-5.2601,-5.2601,-5.2601,-5.2619,-5.2821,-5.2894,-5.2894,-5.2894,-5.2894,-5.2858,-5.2674,-5.1683,-5.049,-5.049,-5.0343,-5.016,-5.016,-4.9738,-4.926,-4.926,-4.9103,-4.8978,-4.9386,-4.98,-5.0183,-5.0604,-5.0702,-5.0702,-5.0702,-5.0702,-5.0702,-5.0702,-5.0702,-5.0702,-5.0702,-5.0702,-5.0702,-5.0702,-5.0702,-5.0298,-4.9202,-4.9067,-4.8817,-4.8182,-4.8105,-4.8105,-4.8105,-4.8105,-4.8105,-4.8105,-4.8105,-4.8105,-4.8105,-4.8105,-4.8413,-4.9067,-4.9298,-4.9721,-5.0356,-5.0587,-5.0702,-5.0702,-5.0702,-5.0702,-4.1167,-4.2543,-4.3497,-4.3497,-4.3497,-4.3135,-4.1776,-4.1069,-3.9979,-3.7257,-3.6368,-3.5502,-3.3734,-3.5841,-3.7766,-3.7675,-4.08,-4.3243,-4.3359,-4.4918,-4.5738,-4.4782,-4.5293,-4.5429,-4.4721,-4.5057,-4.5868,-4.7301,-4.7198,-4.7786,-4.9465,-5.0346,-5.0643,-5.0277,-5.0931,-5.0987,-5.0288,-5.0288,-5.0288,-5.0306,-5.1448,-5.1988,-5.1988,-5.284,-5.3206,-5.3206,-5.3206,-5.3206,-5.3206,-5.3206,-5.3206,-5.3206,-5.3206,-5.3206,-5.3206,-5.3206,-5.3206,-5.3206,-5.3206,-5.2619,-5.1811,-5.1444,-5.1096,-5.0802,-5.0802,-5.0472,-5.0184,-5.0341,-5.0333,-5.0335,-5.0771,-5.1154,-5.1532,-5.1739,-5.1798,-5.1798,-5.1798,-5.1491,-5.1125,-5.076,-5.0702,-5.0702,-5.0702,-5.0702,-5.0702,-5.0702,-5.0702,-5.051,-5.0029,-4.9971,-4.9779,-4.9298,-4.924,-4.924,-4.924,-4.924,-4.924,-4.924,-4.924,-4.924,-4.924,-4.924,-4.9471,-4.9952,-4.9971,-5.0202,-5.0702,-5.0702,-5.0702,-5.0702,-5.1048,-5.1221,-4.2249,-4.2965,-4.3497,-4.3497,-4.3406,-4.2727,-4.0414,-3.9643,-3.8285,-3.4302,-3.3311,-3.2706,-3.1201,-3.3587,-3.6138,-3.7165,-4.0708,-4.3724,-4.4827,-4.6202,-4.6964,-4.6575,-4.7044,-4.723,-4.676,-4.7323,-4.8057,-4.8883,-4.8411,-4.8982,-5.0872,-5.1059,-5.1132,-5.1132,-5.1793,-5.2181,-5.2271,-5.2224,-5.2224,-5.2271,-5.2875,-5.3206,-5.3206,-5.3206,-5.3206,-5.3206,-5.3206,-5.3206,-5.3206,-5.3206,-5.3206,-5.3206,-5.3206,-5.3206,-5.3206,-5.3206,-5.3206,-5.3206,-5.3206,-5.3206,-5.3096,-5.238,-5.1683,-5.1132,-5.1132,-5.1041,-5.1051,-5.1453,-5.1771,-5.2113,-5.2501,-5.2912,-5.3203,-5.3203,-5.3203,-5.3203,-5.3203,-5.2529,-5.1702,-5.0991,-5.076,-5.0702,-5.0702,-5.0702,-5.0702,-5.0702,-5.0702,-5.0702,-5.0702,-5.0702,-5.0702,-5.0702,-5.0702,-5.0702,-5.0702,-5.0702,-5.0702,-5.0702,-5.0702,-5.0702,-5.0702,-5.0702,-5.0702,-5.0702,-5.0702,-5.0702,-5.0702,-5.0702,-5.0741,-5.0875,-5.1568,-5.1972,-4.3057,-4.3387,-4.3497,-4.3497,-4.3002,-4.2047,-4.0286,-3.8358,-3.5954,-3.2504,-3.076,-2.9549,-2.8594,-3.1054,-3.3972,-3.6138,-3.9882,-4.3103,-4.4755,-4.6202,-4.714,-4.7234,-4.7342,-4.7612,-4.8173,-4.7897,-4.8503,-5.0416,-5.0461,-5.084,-5.1715,-5.2417,-5.2784,-5.2784,-5.2931,-5.3017,-5.2999,-5.2999,-5.2999,-5.2999,-5.3164,-5.3206,-5.3206,-5.3206,-5.3206,-5.3206,-5.3206,-5.3206,-5.3206,-5.3206,-5.3206,-5.3206,-5.3206,-5.3206,-5.3206,-5.3206,-5.3206,-5.3206,-5.3206,-5.3206,-5.3188,-5.3041,-5.2913,-5.2784,-5.2784,-5.2325,-5.1879,-5.2289,-5.2203,-5.2113,-5.2501,-5.2912,-5.3203,-5.3203,-5.3203,-5.3203,-5.3203,-5.2529,-5.1875,-5.1722,-5.1144,-5.0702,-5.0702,-5.0702,-5.0702,-5.0702,-5.0702,-5.0702,-5.0702,-5.0702,-5.0702,-5.0702,-5.0702,-5.0702,-5.0702,-5.0702,-5.0702,-5.0702,-5.0702,-5.0702,-5.0702,-5.0702,-5.0702,-5.0702,-5.0702,-5.0702,-5.0702,-5.0702,-5.1029,-5.1702,-5.1837,-5.2299,-4.3277,-4.3497,-4.3497,-4.3497,-4.258,-4.1038,-3.8579,-3.6138,-3.333,-2.9659,-2.8301,-2.7383,-2.6153,-2.9237,-3.2375,-3.355,-3.7147,-4.0698,-4.3251,-4.4547,-4.5718,-4.7077,-4.8024,-4.8698,-4.9081,-4.9608,-5.0387,-5.1449,-5.1905,-5.2291,-5.2619,-5.3004,-5.3206,-5.3206,-5.3206,-5.3206,-5.3206,-5.3206,-5.3206,-5.3206,-5.3206,-5.3206,-5.3206,-5.3206,-5.3206,-5.3206,-5.3206,-5.3206,-5.3206,-5.3206,-5.3206,-5.3206,-5.3206,-5.3206,-5.3206,-5.3206,-5.3206,-5.3206,-5.3206,-5.3206,-5.3206,-5.3206,-5.3206,-5.3206,-5.3206,-5.2931,-5.2747,-5.3417,-5.3438,-5.3448,-5.4058,-5.4367,-5.4491,-5.4491,-5.4491,-5.4395,-5.3972,-5.3549,-5.3126,-5.2664,-5.1895,-5.1318,-5.1318,-5.1318,-5.1318,-5.1318,-5.1318,-5.1318,-5.1318,-5.0952,-5.0702,-5.0702,-5.0702,-5.0702,-5.0702,-5.0702,-5.0702,-5.0702,-5.0702,-5.0702,-5.0702,-5.0702,-5.0702,-5.0702,-5.1106,-5.1318,-5.1337,-5.1779,-5.2202,-5.2587,-5.3049,-5.3491,-4.3057,-4.3369,-4.3497,-4.3497,-4.2158,-4.001,-3.678,-3.399,-3.0999,-2.7145,-2.6209,-2.575,-2.4649,-2.7695,-3.065,-3.1513,-3.4633,-3.8212,-4.1791,-4.313,-4.4599,-4.6856,-4.8581,-4.9646,-4.9829,-5.1151,-5.2068,-5.2234,-5.2839,-5.3206,-5.3206,-5.3206,-5.3206,-5.3206,-5.3206,-5.3206,-5.3206,-5.3206,-5.3206,-5.3206,-5.3206,-5.3206,-5.3206,-5.3206,-5.3206,-5.3206,-5.3206,-5.3206,-5.3206,-5.3206,-5.3206,-5.3206,-5.3206,-5.3206,-5.3206,-5.3206,-5.3206,-5.3206,-5.3206,-5.3206,-5.3206,-5.3206,-5.3206,-5.3206,-5.3206,-5.3206,-5.3359,-5.424,-5.4503,-5.4689,-5.5489,-5.5703,-5.5703,-5.5703,-5.5703,-5.553,-5.4895,-5.4626,-5.4299,-5.3606,-5.2779,-5.2183,-5.2183,-5.2183,-5.2183,-5.2183,-5.2183,-5.2183,-5.2183,-5.1625,-5.1241,-5.1241,-5.0914,-5.0702,-5.0702,-5.0702,-5.0702,-5.0702,-5.0702,-5.0702,-5.0702,-5.0856,-5.0952,-5.0952,-5.176,-5.2183,-5.2183,-5.2876,-5.3299,-5.351,-5.4184,-5.4587,-4.2396,-4.2928,-4.3497,-4.3497,-4.1735,-3.9166,-3.5954,-3.2742,-2.9494,-2.6193,-2.4924,-2.4593,-2.5182,-2.6245,-2.8246,-3.1916,-3.4018,-3.6909,-4.1625,-4.3626,-4.5223,-4.6911,-4.8581,-4.9884,-5.0618,-5.1481,-5.2307,-5.3041,-5.317,-5.3206,-5.3206,-5.3206,-5.3206,-5.3206,-5.3206,-5.3206,-5.3206,-5.3206,-5.3206,-5.3206,-5.3206,-5.3206,-5.3206,-5.3206,-5.3206,-5.3206,-5.3206,-5.3206,-5.3206,-5.3206,-5.3206,-5.3206,-5.3206,-5.3206,-5.3206,-5.3206,-5.3206,-5.3206,-5.3206,-5.3206,-5.3206,-5.3206,-5.3206,-5.3206,-5.3206,-5.3206,-5.3359,-5.424,-5.4503,-5.4689,-5.5489,-5.5703,-5.5703,-5.5703,-5.5703,-5.5684,-5.5607,-5.5011,-5.4472,-5.4395,-5.3683,-5.3087,-5.3087,-5.3087,-5.3087,-5.3087,-5.3087,-5.3087,-5.3087,-5.3029,-5.2972,-5.2972,-5.1606,-5.0702,-5.0702,-5.0702,-5.0702,-5.0702,-5.0702,-5.0702,-5.0702,-5.1395,-5.1798,-5.1798,-5.2645,-5.3087,-5.3087,-5.3164,-5.3606,-5.4376,-5.4453,-5.4895,-4.1919,-4.2892,-4.3497,-4.3497,-4.1313,-3.8469,-3.5734,-3.2192,-2.8705,-2.5972,-2.4759,-2.43,-2.4612,-2.5328,-2.6869,-2.9953,-3.1384,-3.366,-3.8065,-4.0487,-4.2598,-4.469,-4.7682,-4.9903,-5.0729,-5.1977,-5.2858,-5.3188,-5.3206,-5.3206,-5.3206,-5.3206,-5.3206,-5.3206,-5.3206,-5.3206,-5.3206,-5.3206,-5.3206,-5.3206,-5.3206,-5.3206,-5.3206,-5.3206,-5.3206,-5.3206,-5.3206,-5.3206,-5.3206,-5.3206,-5.3206,-5.3206,-5.3206,-5.3206,-5.3206,-5.3206,-5.3206,-5.3206,-5.3206,-5.3206,-5.3206,-5.3206,-5.3206,-5.3206,-5.3206,-5.3206,-5.3336,-5.3888,-5.4288,-5.4579,-5.4876,-5.516,-5.5399,-5.564,-5.5703,-5.5703,-5.5703,-5.5453,-5.5222,-5.5222,-5.4549,-5.3972,-5.3972,-5.3972,-5.3972,-5.3972,-5.3972,-5.3972,-5.3972,-5.353,-5.3203,-5.3203,-5.2125,-5.1625,-5.2164,-5.1722,-5.1645,-5.2164,-5.2202,-5.2202,-5.2202,-5.251,-5.2683,-5.2683,-5.3549,-5.3972,-5.3972,-5.4472,-5.4876,-5.5222,-5.5222,-5.5395,-4.0634,-4.1992,-4.2782,-4.2782,-4.0377,-3.7349,-3.4926,-3.1403,-2.797,-2.5529,-2.4575,-2.419,-2.419,-2.4649,-2.5841,-2.8264,-2.9531,-3.1715,-3.6046,-3.8726,-4.1148,-4.3571,-4.6819,-4.9279,-5.0343,-5.2123,-5.3206,-5.3206,-5.3206,-5.3206,-5.3206,-5.3206,-5.3206,-5.3206,-5.3206,-5.3206,-5.3206,-5.3206,-5.3206,-5.3206,-5.3206,-5.3206,-5.3206,-5.3206,-5.3206,-5.3206,-5.3206,-5.3206,-5.3206,-5.3206,-5.3206,-5.3206,-5.3206,-5.3206,-5.3206,-5.3206,-5.3206,-5.3206,-5.3206,-5.3206,-5.3206,-5.3206,-5.3206,-5.3206,-5.3206,-5.3206,-5.3295,-5.3683,-5.4153,-5.4503,-5.4503,-5.4809,-5.5186,-5.5466,-5.5599,-5.5703,-5.5703,-5.5703,-5.5703,-5.5703,-5.5241,-5.4857,-5.4857,-5.4857,-5.4857,-5.4857,-5.4857,-5.4857,-5.4857,-5.4318,-5.3933,-5.3933,-5.3183,-5.2818,-5.3164,-5.2645,-5.2549,-5.3164,-5.3203,-5.3203,-5.3203,-5.3453,-5.3587,-5.3587,-5.4414,-5.4857,-5.4857,-5.5415,-5.5703,-5.5703,-5.5703,-5.5838,-3.8303,-3.9918,-4.113,-4.113,-3.8707,-3.5679,-3.3201,-3.0136,-2.7126,-2.4704,-2.4208,-2.419,-2.419,-2.4208,-2.4997,-2.742,-2.9163,-3.1916,-3.678,-3.957,-4.1992,-4.4415,-4.614,-4.7792,-4.9426,-5.1793,-5.3206,-5.3206,-5.3206,-5.3206,-5.3206,-5.3206,-5.3206,-5.3206,-5.3206,-5.3206,-5.3206,-5.3206,-5.3206,-5.3206,-5.3206,-5.3206,-5.3206,-5.3206,-5.3206,-5.3206,-5.3206,-5.3206,-5.3206,-5.3206,-5.3206,-5.3206,-5.3206,-5.3206,-5.3206,-5.3206,-5.3206,-5.3206,-5.3206,-5.3206,-5.3206,-5.3206,-5.3206,-5.3206,-5.3206,-5.3206,-5.3295,-5.3683,-5.4153,-5.4503,-5.4503,-5.4809,-5.5088,-5.5107,-5.5399,-5.5703,-5.5703,-5.5703,-5.5703,-5.5703,-5.5684,-5.5684,-5.5684,-5.5684,-5.5684,-5.5684,-5.5684,-5.5684,-5.5684,-5.5684,-5.5665,-5.5665,-5.4953,-5.4126,-5.328,-5.3203,-5.3203,-5.3203,-5.3203,-5.3203,-5.3203,-5.403,-5.4491,-5.4491,-5.528,-5.5684,-5.5684,-5.5703,-5.5703,-5.5703,-5.5703,-5.6145,-3.4247,-3.5716,-3.6787,-3.6248,-3.4926,-3.3128,-3.0681,-2.8925,-2.7108,-2.4704,-2.419,-2.419,-2.419,-2.419,-2.5529,-2.9586,-3.0687,-3.2724,-3.7624,-4.0396,-4.2415,-4.3718,-4.7278,-5.027,-5.1903,-5.2766,-5.3206,-5.3206,-5.3206,-5.3206,-5.3206,-5.3206,-5.3206,-5.3206,-5.3206,-5.3206,-5.3206,-5.3206,-5.3206,-5.3206,-5.3206,-5.3206,-5.3206,-5.3206,-5.3206,-5.3206,-5.3206,-5.3206,-5.3206,-5.3206,-5.3206,-5.3206,-5.3206,-5.3206,-5.3206,-5.3206,-5.3206,-5.3206,-5.3206,-5.3206,-5.3206,-5.3206,-5.3206,-5.3206,-5.3206,-5.3206,-5.3295,-5.3683,-5.3924,-5.4083,-5.4439,-5.4809,-5.5088,-5.5088,-5.5399,-5.5703,-5.5703,-5.5703,-5.5703,-5.5703,-5.5703,-5.5703,-5.5703,-5.5703,-5.5703,-5.5703,-5.5703,-5.5703,-5.5703,-5.5703,-5.5703,-5.5703,-5.5472,-5.5203,-5.4934,-5.4395,-5.4318,-5.4876,-5.4914,-5.4914,-5.4914,-5.5164,-5.5318,-5.5318,-5.5568,-5.5703,-5.5703,-5.5703,-5.6011,-5.6588,-5.6588,-5.7049,-3.1237,-3.2651,-3.3532,-3.3018,-3.2063,-3.0779,-2.8962,-2.7695,-2.6374,-2.4575,-2.419,-2.419,-2.419,-2.419,-2.5383,-2.8998,-3.0338,-3.254,-3.7147,-4.0139,-4.2598,-4.4617,-4.8104,-5.0857,-5.2179,-5.2858,-5.3206,-5.3206,-5.3206,-5.3206,-5.3206,-5.3206,-5.3206,-5.3206,-5.3206,-5.3206,-5.3206,-5.3206,-5.3206,-5.3206,-5.3206,-5.3206,-5.3206,-5.3206,-5.3206,-5.3206,-5.3206,-5.3206,0.0,-5.3206,-5.3206,-5.3206,-5.3206,-5.3206,-5.3206,-5.3206,-5.3206,-5.3206,-5.3206,-5.3206,-5.3206,-5.3206,-5.3206,-5.3206,-5.3206,-5.3206,-5.323,-5.3505,-5.3683,-5.3888,-5.4153,-5.4671,-5.5088,-5.5088,-5.5399,-5.5703,-5.5703,-5.5703,-5.5703,-5.5703,-5.5703,-5.5703,-5.5703,-5.5703,-5.5703,-5.5703,-5.5703,-5.5703,-5.5703,-5.5703,-5.5703,-5.5703,-5.5703,-5.5703,-5.5703,-5.5241,-5.5164,-5.5665,-5.5703,-5.5703,-5.5703,-5.5703,-5.5703,-5.5703,-5.5703,-5.5703,-5.5703,-5.603,-5.6626,-5.7492,-5.78,-5.8223,0.0,-3.032,-3.0944,-3.0889,-2.9806,-2.8539,-2.7732,-2.6429,0.0,-2.4373,-2.419,-2.4245,-2.441,-2.4355,-2.4924,-2.6888,-2.909,-3.1971,-3.6064,-3.9423,-4.2928,-4.6911,-4.8728,-5.0013,-5.0894,-5.2325,-5.3206,-5.3206,-5.3206,-5.3206,-5.3206,-5.3206,-5.3206,-5.3206,-5.3206,-5.3206,-5.3206,-5.3206,-5.3206,-5.3206,-5.3206,-5.3206,-5.3206,-5.3206,-5.3206,-5.3206,-5.3206,-5.3206,-5.3206,-5.3206,-5.3206,-5.3206,-5.3206,-5.3206,-5.3206,-5.3206,-5.3206,-5.3206,-5.3206,-5.3206,-5.3206,-5.3206,-5.3206,-5.3206,-5.3206,-5.3206,-5.3206,-5.3206,-5.3505,-5.3851,-5.3814,-5.4478,-5.5134,-5.5107,-5.5399,-5.5703,-5.5703,-5.5703,-5.5703,-5.5703,-5.5703,-5.5703,-5.5703,-5.5703,-5.5703,-5.5703,-5.5703,-5.5703,-5.5703,-5.5703,-5.5703,-5.5703,-5.5703,-5.5703,-5.5703,-5.5703,-5.5703,-5.5703,-5.5703,-5.5703,-5.5703,-5.5703,-5.5703,-5.5703,-5.5761,-5.578,-5.578,-5.6665,-5.753,-5.8396,-5.9146,-5.9531,-2.4502,0.0,-2.667,-2.6043,-2.6062,-2.6025,0.0,-2.5217,-2.5182,-2.4373,-2.419,-2.4759,-2.6612,-2.5933,-2.6851,-3.2148,-3.3486,-3.5312,-3.9405,-4.2745,-4.6067,-4.9517,-5.0288,-5.1077,-5.2509,-5.2986,-5.3206,-5.3206,-5.3206,-5.3206,-5.3206,-5.3206,-5.3206,-5.3206,-5.3206,-5.3206,-5.3206,-5.3206,-5.3206,-5.3206,-5.3206,-5.3206,-5.3206,-5.3206,-5.3206,-5.3206,-5.3206,-5.3206,-5.3206,-5.3206,-5.3206,-5.3206,-5.3206,-5.3206,-5.3206,-5.3206,-5.3206,-5.3206,-5.3206,-5.3206,-5.3206,-5.3206,-5.3206,-5.3206,-5.3206,-5.3206,-5.3206,-5.3206,-5.3758,-5.4255,-5.3869,-5.4663,-5.5489,-5.5186,-5.5399,-5.5703,-5.5703,-5.5703,-5.5703,-5.5703,-5.5703,-5.5703,-5.5703,-5.5703,-5.5703,-5.5703,-5.5703,-5.5703,-5.5703,-5.5703,-5.5703,-5.5703,-5.5703,-5.5703,-5.5703,-5.5703,-5.5703,-5.5703,-5.5703,-5.5703,-5.5703,-5.5703,-5.5703,-5.5703,-5.6338,-5.6684,-5.6684,-5.7569,-5.8415,-5.9223,-5.9415,-5.9858,-2.2997,-2.4171,-2.5384,-2.5328,-2.5346,-2.5384,-2.5328,-2.5071,-2.4722,-2.4281,-2.419,-2.4704,-2.6374,-2.6576,-2.7989,-3.2596,-3.4614,-3.7276,-4.2084,-4.458,-4.6985,-4.9903,-5.0582,-5.1298,-5.2527,-5.2986,-5.3206,-5.3206,-5.3206,-5.3206,-5.3206,-5.3206,-5.3206,-5.3206,-5.3206,-5.3206,-5.3206,-5.3206,-5.3206,-5.3206,-5.3206,-5.3206,-5.3206,-5.3206,-5.3206,-5.3206,-5.3206,-5.3206,-5.3206,-5.3206,-5.3206,-5.3206,-5.3206,-5.3206,-5.3206,-5.3206,-5.3206,-5.3206,-5.3206,-5.3206,-5.3206,-5.3206,-5.3206,-5.323,-5.3422,-5.3484,-5.3484,-5.3484,-5.3979,-5.4484,-5.4414,-5.5042,-5.564,-5.5423,-5.5535,-5.5703,-5.5703,-5.5703,-5.5703,-5.5703,-5.5703,-5.5703,-5.5703,-5.5703,-5.5703,-5.5703,-5.5703,-5.5703,-5.5703,-5.5703,-5.5703,-5.5703,-5.5703,-5.5703,-5.5703,-5.5703,-5.5703,-5.5703,-5.5703,-5.5703,-5.5703,-5.5703,-5.5876,-5.628,-5.6761,-5.7376,-5.8146,-5.8627,-5.9281,-6.0108,-6.0108,-6.0339,-2.3088,-2.4355,-2.5676,-2.6117,-2.5805,-2.5586,-2.6264,-2.5364,-2.441,-2.4538,-2.4575,-2.4961,-2.6245,-2.7493,-2.9255,-3.2045,-3.5147,-3.9019,-4.4158,-4.559,-4.6948,-4.9297,-5.0306,-5.1114,-5.1903,-5.2729,-5.3206,-5.3206,-5.3206,-5.3206,-5.3206,-5.3206,-5.3206,-5.3206,-5.3206,-5.3206,-5.3206,-5.3206,-5.3206,-5.3206,-5.3206,-5.3206,-5.3206,-5.3206,-5.3206,-5.3206,-5.3206,-5.3206,-5.3206,-5.3206,-5.3206,-5.3206,-5.3206,-5.3206,-5.3206,-5.3206,-5.3206,-5.3206,-5.3206,-5.3206,-5.3206,-5.3206,-5.3206,-5.3272,-5.3701,-5.3814,-5.3851,-5.3977,-5.427,-5.4671,-5.5007,-5.5399,-5.5703,-5.5703,-5.5703,-5.5703,-5.5703,-5.5703,-5.5703,-5.5703,-5.5703,-5.5703,-5.5703,-5.5703,-5.5703,-5.5703,-5.5703,-5.5703,-5.5703,-5.5703,-5.5703,-5.5703,-5.5703,-5.5703,-5.5703,-5.5703,-5.5703,-5.5703,-5.5703,-5.5703,-5.5703,-5.5818,-5.6242,-5.6973,-5.7242,-5.8069,-5.9492,-5.9627,-6.0089,-6.08,-6.08,-6.08,-2.3456,-2.5199,-2.6117,-2.4887,-2.4979,-2.5439,-2.5568,-2.5403,-2.5401,-2.6098,-2.6227,-2.731,-3.0852,-3.1146,-3.232,-3.6853,-3.9717,-4.2396,-4.5314,-4.6416,-4.759,-4.937,-5.0306,-5.1114,-5.1903,-5.2729,-5.3206,-5.3206,-5.3206,-5.3206,-5.3206,-5.3206,-5.3206,-5.3206,-5.3206,-5.3206,-5.3206,-5.3206,-5.3206,-5.3206,-5.3206,-5.3206,-5.3206,-5.3206,-5.3206,-5.3206,-5.3206,-5.3206,-5.3206,-5.3206,-5.3206,-5.3206,-5.3206,-5.3206,-5.3206,-5.3206,-5.3206,-5.3206,-5.3206,-5.3206,-5.3206,-5.3206,-5.3206,-5.3272,-5.3701,-5.3814,-5.3923,-5.4682,-5.4933,-5.5034,-5.5088,-5.5399,-5.5703,-5.5703,-5.5703,-5.5703,-5.5703,-5.5703,-5.5703,-5.5703,-5.5703,-5.5703,-5.5703,-5.5703,-5.5703,-5.5703,-5.5703,-5.5703,-5.5703,-5.5703,-5.5703,-5.5703,-5.5703,-5.5703,-5.5703,-5.5703,-5.5703,-5.5703,-5.5703,-5.5703,-5.5703,-5.6395,-5.6857,-5.6992,-5.8396,-5.9242,-5.9492,-6.0242,-6.0666,-6.08,-6.08,-6.08,-2.2464,-2.408,-2.5328,-2.5456,-2.6759,-2.7989,-2.7989,-2.7989,-2.8099,-2.8466,-2.8888,-2.9898,-3.2192,-3.3385,-3.5624,-4.0487,-4.2598,-4.4305,-4.6287,-4.6874,-4.7572,-4.8746,-4.9627,-5.0472,-5.1261,-5.2087,-5.2729,-5.3188,-5.3206,-5.3206,-5.3206,-5.3206,-5.3206,-5.3206,-5.3206,-5.3206,-5.3206,-5.3206,-5.3206,-5.3206,-5.3206,-5.3206,-5.3206,-5.3206,-5.3206,-5.3206,-5.3206,-5.3206,-5.3206,-5.3206,-5.3206,-5.3206,-5.3206,-5.3206,-5.3206,-5.3206,-5.3206,-5.3206,-5.3206,-5.3206,-5.3206,-5.3206,-5.3359,-5.3604,-5.4067,-5.4336,-5.4633,-5.5237,-5.5282,-5.516,-5.5375,-5.5577,-5.5703,-5.5703,-5.5703,-5.5703,-5.5703,-5.5703,-5.5703,-5.5703,-5.5703,-5.5703,-5.5703,-5.5703,-5.5703,-5.5703,-5.5703,-5.5703,-5.5703,-5.5703,-5.5703,-5.5703,-5.5703,-5.5703,-5.5703,-5.5703,-5.5703,-5.5703,-5.5703,-5.5915,-5.6376,-5.678,-5.7415,-5.8319,-5.9108,-5.9723,-6.0204,-6.0589,-6.08,-6.08,-6.08,-6.08,-2.1969,-2.3254,-2.463,-2.6429,-2.7989,-2.9365,-3.0503,-3.0467,-3.0467,-3.1421,-3.2118,-3.2852,-3.3862,-3.6046,-3.9038,-4.3112,-4.447,-4.548,-4.6911,-4.7278,-4.7627,-4.8233,-4.9058,-4.9829,-5.0453,-5.1242,-5.1977,-5.2601,-5.2656,-5.2656,-5.2656,-5.2656,-5.2656,-5.2656,-5.2821,-5.2931,-5.2931,-5.3115,-5.3206,-5.3206,-5.3206,-5.3206,-5.3206,-5.3206,-5.3206,-5.3206,-5.3206,-5.3206,-5.3206,-5.3295,-5.3318,-5.3318,-5.3318,-5.3254,-5.3206,-5.3206,-5.3206,-5.3206,-5.3206,-5.3206,-5.3206,-5.3295,-5.3545,-5.3924,-5.4484,-5.4867,-5.5186,-5.5577,-5.5489,-5.5306,-5.5621,-5.5703,-5.5703,-5.5703,-5.5703,-5.5703,-5.5703,-5.5703,-5.5703,-5.5703,-5.5703,-5.5703,-5.5703,-5.5703,-5.5703,-5.5703,-5.5703,-5.5703,-5.5703,-5.5703,-5.5703,-5.5703,-5.5703,-5.5703,-5.5703,-5.5703,-5.578,-5.5992,-5.5992,-5.6395,-5.7261,-5.7492,-5.8184,-5.9473,-5.9704,-6.0127,-6.08,-6.08,-6.08,-6.08,-6.08,-6.08,-2.318,-2.4116,-2.4759,-2.7126,-2.6704,-2.6906,-3.1421,-3.1274,-3.1274,-3.5073,-3.5899,-3.6413,-3.7973,-4.0249,-4.247,-4.4323,-4.5296,-4.6122,-4.7003,-4.7755,-4.8251,-4.8306,-4.9058,-4.9609,-4.9664,-5.0398,-5.0912,-5.0967,-5.0967,-5.0967,-5.0967,-5.0967,-5.0967,-5.0967,-5.1701,-5.2087,-5.2087,-5.2839,-5.3206,-5.3206,-5.3206,-5.3206,-5.3206,-5.3206,-5.3206,-5.3206,-5.3206,-5.3206,-5.3248,-5.3604,-5.374,-5.374,-5.374,-5.3545,-5.3206,-5.3206,-5.3206,-5.3206,-5.3206,-5.3206,-5.3272,-5.3624,-5.3777,-5.3977,-5.48,-5.5061,-5.5186,-5.5577,-5.5662,-5.5662,-5.5684,-5.5703,-5.5703,-5.5703,-5.5703,-5.5703,-5.5703,-5.5703,-5.5703,-5.5703,-5.5703,-5.5703,-5.5703,-5.5703,-5.5703,-5.5703,-5.5703,-5.5703,-5.5703,-5.5703,-5.5703,-5.5703,-5.5703,-5.5703,-5.5703,-5.5703,-5.6049,-5.6857,-5.6896,-5.73,-5.8165,-5.8915,-5.9377,-5.9492,-6.0281,-6.0742,-6.08,-6.08,-6.08,-6.08,-6.08,-6.08,-2.2079,-2.3786,-2.5401,-2.731,-2.8081,-2.9127,-3.1971,-3.3715,-3.5459,-3.801,-3.8946,-3.9625,-4.0726,-4.168,-4.2983,-4.5094,-4.57,-4.6361,-4.7664,-4.8122,-4.8306,-4.8306,-4.86,-4.9003,-4.9536,-4.9866,-5.0251,-5.0765,-5.0802,-5.0802,-5.0802,-5.0802,-5.0802,-5.0802,-5.1096,-5.1481,-5.1995,-5.2307,-5.2711,-5.3206,-5.3206,-5.3206,-5.3206,-5.3206,-5.3206,-5.3206,-5.3484,-5.3422,-5.323,-5.3943,-5.4048,-5.3814,-5.3814,-5.3565,-5.3206,-5.3206,-5.3359,-5.3565,-5.3565,-5.3777,-5.405,-5.4206,-5.4401,-5.4682,-5.5007,-5.5262,-5.5512,-5.5662,-5.5703,-5.5703,-5.5703,-5.5703,-5.5703,-5.5703,-5.5703,-5.5703,-5.5703,-5.5703,-5.5703,-5.5703,-5.5703,-5.5703,-5.5703,-5.5703,-5.5703,-5.5703,-5.5703,-5.5703,-5.5703,-5.5703,-5.5703,-5.5703,-5.5703,-5.5915,-5.6453,-5.6511,-5.7088,-5.8473,-5.7569,-5.7607,-5.8992,-5.9338,-5.9742,-6.03,-6.0627,-6.08,-6.08,-6.08,-6.08,-6.08,-6.08,-6.08,-2.1712,-2.3382,-2.5199,-2.7585,-2.9384,-3.1219,-3.3605,-3.5679,-3.7863,-4.0487,-4.146,-4.2029,-4.258,-4.2671,-4.3387,-4.5553,-4.5902,-4.6452,-4.8086,-4.8306,-4.8306,-4.8306,-4.8306,-4.8526,-4.9132,-4.9187,-4.9407,-4.9976,-5.0013,-5.0013,-5.0013,-5.0013,-5.0013,-5.0013,-5.0288,-5.0692,-5.1224,-5.1481,-5.1903,-5.2454,-5.2454,-5.2729,-5.3206,-5.3206,-5.3206,-5.3206,-5.3643,-5.3565,-5.3272,-5.4274,-5.4497,-5.4217,-5.4217,-5.396,-5.3584,-5.3584,-5.3777,-5.4013,-5.4013,-5.4221,-5.4535,-5.4659,-5.4895,-5.5115,-5.5237,-5.5489,-5.5703,-5.5703,-5.5703,-5.5703,-5.5703,-5.5703,-5.5703,-5.5703,-5.5703,-5.5703,-5.5703,-5.5703,-5.5703,-5.5703,-5.5703,-5.5703,-5.5703,-5.5703,-5.5703,-5.5703,-5.5703,-5.5703,-5.5703,-5.5703,-5.5703,-5.5703,-5.5953,-5.6338,-5.6934,-5.7242,-5.8011,-5.9415,-5.8415,-5.8434,-5.9858,-5.9915,-6.0185,-6.0781,-6.08,-6.08,-6.08,-6.08,-6.08,-6.08,-6.08,-6.08,-2.2538,-2.3033,-2.3987,-2.7985,-3.0228,-3.2504,-3.656,-3.689,-3.7698,-4.2506,-4.3497,-4.3497,-4.3497,-4.3497,-4.4011,-4.5626,-4.5883,-4.6452,-4.8067,-4.8306,-4.8306,-4.8306,-4.8306,-4.8306,-4.8306,-4.8306,-4.8306,-4.8306,-4.8306,-4.8306,-4.8306,-4.8306,-4.8306,-4.8306,-4.9132,-4.9572,-4.9591,-5.038,-5.0802,-5.0802,-5.0802,-5.1628,-5.3188,-5.3188,-5.3188,-5.3188,-5.3606,-5.3565,-5.3295,-5.456,-5.5088,-5.5088,-5.5088,-5.4848,-5.4503,-5.4503,-5.4503,-5.4503,-5.4503,-5.4503,-5.4597,-5.4979,-5.5107,-5.5186,-5.5577,-5.5703,-5.5703,-5.5703,-5.5703,-5.5703,-5.5703,-5.5703,-5.5703,-5.5703,-5.5703,-5.5703,-5.5703,-5.5703,-5.5703,-5.5703,-5.5703,-5.5703,-5.5703,-5.5703,-5.5703,-5.5703,-5.5703,-5.5703,-5.5703,-5.5703,-5.5703,-5.5703,-5.6492,-5.7011,-5.7011,-5.7819,-5.8665,-5.9454,-5.9511,-5.9896,-6.0762,-6.08,-6.08,-6.08,-6.08,-6.08,-6.08,-6.08,-6.08,-6.08,-6.08,-6.08,-2.2024,-2.4208,-2.6796,-2.8576,-3.1953,-3.5459,-3.7808,-3.9038,-4.0414,-4.2965,-4.3497,-4.3497,-4.3497,-4.3497,-4.3828,-4.4892,-4.5535,-4.6269,-4.7315,-4.7957,-4.8306,-4.8306,-4.8306,-4.8306,-4.8306,-4.8306,-4.8306,-4.8306,-4.8306,-4.8306,-4.8306,-4.8306,-4.8306,-4.8306,-4.8545,-4.8967,-4.9572,-4.9829,-5.0233,-5.0802,-5.0802,-5.1059,-5.1518,-5.1518,-5.1518,-5.1577,-5.2821,-5.3169,-5.2903,-5.4465,-5.5088,-5.5088,-5.5088,-5.4848,-5.4503,-5.4503,-5.4671,-5.4924,-5.4924,-5.5107,-5.5356,-5.5489,-5.5512,-5.5535,-5.5662,-5.5703,-5.5703,-5.5703,-5.5703,-5.5703,-5.5703,-5.5703,-5.5703,-5.5703,-5.5703,-5.5703,-5.5703,-5.5703,-5.5703,-5.5703,-5.5703,-5.5703,-5.5703,-5.5703,-5.5703,-5.5703,-5.5703,-5.5703,-5.5703,-5.6242,-5.6607,-5.6607,-5.7396,-5.8146,-5.8704,-5.8992,-5.9511,-6.0358,-6.0416,-6.0531,-6.0781,-6.08,-6.08,-6.08,-6.08,-6.08,-6.08,-6.08,-6.08,-6.08,-6.08,-6.08,-2.3118,-2.547,-2.8177,-3.0534,-3.3973,-3.7441,-4.001,-4.1368,-4.2323,-4.3296,-4.3497,-4.3497,-4.3497,-4.3497,-4.3754,-4.458,-4.5112,-4.5828,-4.6966,-4.7535,-4.7957,-4.8269,-4.8306,-4.8306,-4.8306,-4.8306,-4.8306,-4.8306,-4.8306,-4.8306,-4.8306,-4.8306,-4.8306,-4.8306,-4.8306,-4.8545,-4.9077,-4.9077,-4.9413,-5.0064,-5.0064,-5.0121,-5.0303,-5.0786,-5.0986,-5.1081,-5.2184,-5.2741,-5.29,-5.3753,-5.4403,-5.4853,-5.4853,-5.49,-5.4979,-5.4979,-5.5134,-5.5331,-5.5331,-5.5489,-5.5703,-5.5703,-5.5703,-5.5703,-5.5703,-5.5703,-5.5703,-5.5703,-5.5703,-5.5703,-5.5703,-5.5703,-5.5703,-5.5703,-5.5703,-5.5703,-5.5703,-5.5703,-5.5703,-5.5703,-5.5703,-5.5703,-5.5703,-5.5703,-5.5703,-5.5703,-5.5703,-5.5703,-5.5703,-5.6453,-5.6992,-5.6992,-5.8069,-5.8973,-5.9454,-5.9819,-6.0242,-6.0762,-6.08,-6.08,-6.08,-6.08,-6.08,-6.08,-6.08,-6.08,-6.08,-6.08,-6.08,-6.08,-6.08,-6.08,-2.4985,-2.6591,-2.8533,-3.3141,-3.6073,-3.8799,-4.2616,-4.3497,-4.3497,-4.3497,-4.3497,-4.3497,-4.3497,-4.3497,-4.3736,-4.447,-4.4654,-4.5223,-4.6691,-4.6966,-4.7297,-4.8104,-4.8196,-4.8233,-4.8306,-4.8306,-4.8306,-4.8306,-4.8306,-4.8306,-4.8306,-4.8306,-4.8306,-4.8306,-4.8306,-4.8306,-4.8306,-4.8344,-4.855,-4.8897,-4.893,-4.9139,-4.9531,-5.0628,-5.1185,-5.1311,-5.1688,-5.2346,-5.3182,-5.2815,-5.3345,-5.4395,-5.4472,-5.4953,-5.5588,-5.5665,-5.5703,-5.5703,-5.5703,-5.5703,-5.5703,-5.5703,-5.5703,-5.5703,-5.5703,-5.5703,-5.5703,-5.5703,-5.5703,-5.5703,-5.5703,-5.5703,-5.5703,-5.5703,-5.5703,-5.5703,-5.5703,-5.5703,-5.5703,-5.5703,-5.5703,-5.5703,-5.5703,-5.5703,-5.5703,-5.5703,-5.5703,-5.5703,-5.5703,-5.653,-5.7107,-5.7107,-5.8607,-5.9627,-5.9627,-6.0339,-6.08,-6.08,-6.08,-6.08,-6.08,-6.08,-6.08,-6.08,-6.08,-6.08,-6.08,-6.08,-6.08,-6.08,-6.08,-6.08,-2.4459,-2.6567,-2.9068,-3.2582,-3.6911,-4.0891,-4.3002,-4.3497,-4.3497,-4.3497,-4.3497,-4.3497,-4.3497,-4.3497,-4.3552,-4.3718,-4.4287,-4.4837,-4.5186,-4.5773,-4.6471,-4.7278,-4.737,-4.7627,-4.8251,-4.8306,-4.8306,-4.8306,-4.8306,-4.8306,-4.8306,-4.8306,-4.8306,-4.8306,-4.8306,-4.8306,-4.8306,-4.8586,-4.8795,-4.8897,-4.9234,-4.9416,-4.9522,-4.9762,-5.0401,-5.1315,-5.1395,-5.2103,-5.3203,-5.3121,-5.3236,-5.3549,-5.4222,-5.4607,-5.4818,-5.5472,-5.5703,-5.5703,-5.5703,-5.5703,-5.5703,-5.5703,-5.5703,-5.5703,-5.5703,-5.5703,-5.5703,-5.5703,-5.5703,-5.5703,-5.5703,-5.5703,-5.5703,-5.5703,-5.5703,-5.5703,-5.5703,-5.5703,-5.5703,-5.5703,-5.5703,-5.5703,-5.5703,-5.5703,-5.5703,-5.5703,-5.5703,-5.5703,-5.5703,-5.7049,-5.803,-5.803,-5.9511,-6.0512,-6.0512,-6.0685,-6.08,-6.08,-6.08,-6.08,-6.08,-6.08,-6.08,-6.08,-6.08,-6.08,-6.08,-6.08,-6.08,-6.08,-6.08,-6.0858,-2.4486,-2.7025,-3.0197,-3.4826,-3.8352,-4.1103,-4.2723,-4.3142,-4.3178,-4.3444,-4.3497,-4.3497,-4.3497,-4.3497,-4.3497,-4.3497,-4.3846,-4.4268,-4.4654,-4.5057,-4.5626,-4.6434,-4.6544,-4.6856,-4.7664,-4.7737,-4.7902,-4.8269,-4.8306,-4.8306,-4.8306,-4.8306,-4.8306,-4.8306,-4.8477,-4.8604,-4.8604,-4.8996,-4.9295,-4.9475,-4.9692,-4.9898,-5.0068,-4.9872,-5.0247,-5.1012,-5.1012,-5.1387,-5.1991,-5.1991,-5.2222,-5.2664,-5.3549,-5.4126,-5.4607,-5.5395,-5.5703,-5.5703,-5.5703,-5.5703,-5.5703,-5.5703,-5.5703,-5.5703,-5.5703,-5.5703,-5.5703,-5.5703,-5.5703,-5.5703,-5.5703,-5.5703,-5.5703,-5.5703,-5.5703,-5.5703,-5.5703,-5.5703,-5.5703,-5.5703,-5.5703,-5.5703,-5.5703,-5.5703,-5.5703,-5.5703,-5.5703,-5.5703,-5.5703,-5.7223,-5.83,-5.83,-5.98,-6.08,-6.08,-6.08,-6.08,-6.08,-6.08,-6.0819,-6.0877,-6.0896,-6.0858,-6.08,-6.0858,-6.0896,-6.0896,-6.0973,-6.1031,-6.1031,-6.1031,-6.1093,-2.4392,-2.746,-3.1351,-3.7174,-3.9355,-4.0488,-4.2134,-4.2603,-4.2864,-4.341,-4.3497,-4.3497,-4.3497,-4.3497,-4.3497,-4.3497,-4.3497,-4.3718,-4.4397,-4.4488,-4.48,-4.5608,-4.5681,-4.6012,-4.6819,-4.6911,-4.7186,-4.7847,-4.7884,-4.7884,-4.7884,-4.8031,-4.8104,-4.8104,-4.8618,-4.8897,-4.8897,-4.9356,-4.9773,-5.0092,-5.0159,-5.0377,-5.0683,-5.0358,-5.0399,-5.0702,-5.0702,-5.0702,-5.0702,-5.0702,-5.1087,-5.1779,-5.2645,-5.3414,-5.4145,-5.4972,-5.5261,-5.528,-5.5434,-5.5491,-5.5511,-5.5645,-5.5703,-5.5703,-5.5703,-5.5703,-5.5703,-5.5703,-5.5703,-5.5703,-5.5703,-5.5703,-5.5703,-5.5703,-5.5703,-5.5703,-5.5703,-5.5703,-5.5703,-5.5703,-5.5703,-5.5703,-5.5703,-5.5703,-5.5703,-5.5703,-5.5703,-5.5703,-5.5703,-5.7223,-5.83,-5.83,-5.98,-6.08,-6.08,-6.0819,-6.0819,-6.0819,-6.0858,-6.0935,-6.1031,-6.1048,-6.0995,-6.0899,-6.1004,-6.1062,-6.1053,-6.1208,-6.1285,-6.1285,-6.1285,-6.1299,-2.3316,-2.7299,-3.1977,-3.5993,-3.8293,-3.9961,-4.1357,-4.2208,-4.2864,-4.341,-4.3497,-4.3497,-4.3497,-4.3497,-4.3497,-4.3497,-4.3497,-4.3534,-4.3644,-4.3644,-4.3956,-4.4764,-4.4874,-4.5186,-4.5975,-4.6067,-4.6104,-4.6214,-4.6214,-4.6214,-4.6214,-4.6893,-4.7278,-4.7278,-4.8322,-4.8897,-4.8897,-4.9645,-5.0043,-5.0092,-5.0442,-5.0663,-5.0702,-5.0624,-5.0663,-5.0702,-5.0702,-5.0702,-5.0702,-5.0702,-5.076,-5.0933,-5.176,-5.2145,-5.2356,-5.3222,-5.353,-5.3645,-5.4395,-5.4664,-5.478,-5.5472,-5.5703,-5.5703,-5.5703,-5.5703,-5.5703,-5.5703,-5.5703,-5.5703,-5.5703,-5.5703,-5.5703,-5.5703,-5.5703,-5.5703,-5.5703,-5.5703,-5.5703,-5.5703,-5.5703,-5.5703,-5.5703,-5.5703,-5.5703,-5.5703,-5.5703,-5.5703,-5.5703,-5.7223,-5.83,-5.83,-5.98,-6.08,-6.08,-6.0896,-6.0954,-6.0954,-6.1151,-6.1247,-6.1266,-6.1245,-6.1253,-6.1233,-6.1253,-6.1272,-6.1253,-6.1291,-6.1291,-6.1291,-6.1291,-6.1361,-2.4863,-2.821,-3.1529,-3.5314,-3.7006,-3.8345,-4.0552,-4.1332,-4.1962,-4.323,-4.3497,-4.3497,-4.3497,-4.3497,-4.3497,-4.3497,-4.3497,-4.3497,-4.3497,-4.3497,-4.3626,-4.3993,-4.403,-4.4342,-4.5149,-4.5241,-4.5406,-4.5865,-4.5902,-4.5902,-4.5902,-4.625,-4.6434,-4.6434,-4.7332,-4.807,-4.857,-4.9319,-4.9942,-5.0442,-5.0624,-5.0702,-5.0702,-5.0702,-5.0702,-5.0702,-5.0702,-5.0702,-5.0702,-5.0702,-5.0702,-5.0779,-5.1587,-5.1914,-5.201,-5.2876,-5.3203,-5.326,-5.3645,-5.4087,-5.4549,-5.4914,-5.5318,-5.5703,-5.5703,-5.5703,-5.5703,-5.5703,-5.5703,-5.5703,-5.5703,-5.5703,-5.5703,-5.5703,-5.5703,-5.5703,-5.5703,-5.5703,-5.5703,-5.5703,-5.5703,-5.5703,-5.5703,-5.5703,-5.5703,-5.5703,-5.5703,-5.5703,-5.5703,-5.7223,-5.83,-5.83,-5.98,-6.0819,-6.0896,-6.0954,-6.1053,-6.115,-6.1245,-6.1331,-6.1424,-6.1408,-6.1449,-6.1523,-6.1447,-6.142,-6.1406,-6.149,-6.1515,-6.1515,-6.1515,-6.1556,-2.5438,-2.7807,-2.9697,-3.3476,-3.4955,-3.6261,-3.9164,-3.9876,-4.0526,-4.272,-4.3098,-4.3118,-4.3442,-4.3497,-4.3497,-4.3497,-4.3497,-4.3497,-4.3497,-4.3497,-4.3497,-4.3497,-4.3497,-4.3736,-4.4342,-4.4397,-4.4635,-4.5241,-4.5278,-4.5278,-4.5278,-4.548,-4.5608,-4.5608,-4.6513,-4.7296,-4.7966,-4.8917,-4.9837,-5.0702,-5.0702,-5.0702,-5.0702,-5.0702,-5.0702,-5.0702,-5.0702,-5.0702,-5.0702,-5.0702,-5.0702,-5.076,-5.1356,-5.1606,-5.1683,-5.2318,-5.2568,-5.2587,-5.2799,-5.3299,-5.3914,-5.4357,-5.4914,-5.5434,-5.5645,-5.5703,-5.5703,-5.5703,-5.5703,-5.5703,-5.5703,-5.5703,-5.5703,-5.5703,-5.5703,-5.5703,-5.5703,-5.5703,-5.5703,-5.5703,-5.5703,-5.5703,-5.5703,-5.5703,-5.5703,-5.5703,-5.5703,-5.5703,-5.5703,-5.7223,-5.83,-5.83,-5.9819,-6.0877,-6.0973,-6.1093,-6.1192,-6.1337,-6.137,-6.1456,-6.1555,-6.1557,-6.1582,-6.1694,-6.1599,-6.1557,-6.1557,-6.1646,-6.1699,-6.1699,-6.1699,-6.1699,-2.3254,-2.4628,-2.5743,-2.9404,-3.1672,-3.3783,-3.6799,-3.7602,-3.8631,-4.1719,-4.1958,-4.1978,-4.3263,-4.3497,-4.3497,-4.3497,-4.3497,-4.3497,-4.3497,-4.3497,-4.3497,-4.3497,-4.3497,-4.3516,-4.3552,-4.3552,-4.3571,-4.3608,-4.3608,-4.3608,-4.3608,-4.436,-4.4764,-4.4764,-4.6214,-4.7013,-4.707,-4.863,-4.9837,-5.0702,-5.0702,-5.0702,-5.0702,-5.0702,-5.0702,-5.0702,-5.0702,-5.0702,-5.0702,-5.0702,-5.0702,-5.0702,-5.0741,-5.076,-5.076,-5.0798,-5.0818,-5.0933,-5.1702,-5.201,-5.2318,-5.3953,-5.453,-5.4703,-5.5472,-5.5703,-5.5703,-5.5703,-5.5703,-5.5703,-5.5703,-5.5703,-5.5703,-5.5703,-5.5703,-5.5703,-5.5703,-5.5703,-5.5703,-5.5703,-5.5703,-5.5703,-5.5703,-5.5703,-5.5703,-5.5703,-5.5703,-5.5703,-5.5703,-5.7223,-5.83,-5.83,-5.9915,-6.0973,-6.0993,-6.1304,-6.1482,-6.1485,-6.1606,-6.1678,-6.1697,-6.1691,-6.1682,-6.1698,-6.1698,-6.1697,-6.1697,-6.1699,-6.1699,-6.1699,-6.1699,-6.1699,-2.2611,-2.4034,-2.5332,-2.8136,-3.0321,-3.2406,-3.4827,-3.6631,-3.8366,-4.0357,-4.1016,-4.1567,-4.2546,-4.3149,-4.3497,-4.3497,-4.3497,-4.3497,-4.3497,-4.3497,-4.3497,-4.3497,-4.3497,-4.3497,-4.3497,-4.3497,-4.3497,-4.3497,-4.3497,-4.3497,-4.3497,-4.3754,-4.392,-4.392,-4.4905,-4.5918,-4.6923,-4.8567,-4.9548,-4.9875,-5.0433,-5.0702,-5.0702,-5.0702,-5.0702,-5.0702,-5.0702,-5.0702,-5.0702,-5.0702,-5.0702,-5.0702,-5.0702,-5.0702,-5.0702,-5.0702,-5.0702,-5.0741,-5.1029,-5.1471,-5.201,-5.2645,-5.3222,-5.3722,-5.401,-5.4491,-5.4934,-5.4934,-5.5299,-5.5703,-5.5703,-5.5703,-5.5703,-5.5703,-5.5703,-5.5703,-5.5703,-5.5703,-5.5703,-5.5703,-5.5703,-5.5703,-5.5703,-5.5703,-5.5703,-5.5703,-5.5703,-5.5895,-5.6453,-5.7569,-5.855,-5.9207,-6.0281,-6.1093,-6.1304,-6.1439,-6.1524,-6.1616,-6.1662,-6.1699,-6.1699,-6.171,-6.1705,-6.1699,-6.1699,-6.1699,-6.1699,-6.1699,-6.1699,-6.1699,-6.1699,-6.1699,-2.1475,-2.2718,-2.4013,-2.7069,-2.8431,-2.9876,-3.317,-3.4842,-3.6294,-3.8632,-3.9603,-4.0416,-4.1666,-4.2323,-4.2873,-4.3406,-4.3497,-4.3497,-4.3497,-4.3497,-4.3497,-4.3497,-4.3497,-4.3497,-4.3497,-4.3497,-4.3497,-4.3497,-4.3497,-4.3497,-4.3497,-4.3497,-4.3597,-4.3836,-4.4337,-4.5337,-4.6876,-4.8009,-4.8702,-4.8971,-4.9856,-5.026,-5.026,-5.0567,-5.0702,-5.0702,-5.0702,-5.0702,-5.0702,-5.0702,-5.0702,-5.0702,-5.0702,-5.0702,-5.0702,-5.0702,-5.0702,-5.0702,-5.0702,-5.1048,-5.1548,-5.1818,-5.2299,-5.2818,-5.3106,-5.3606,-5.4126,-5.4414,-5.4876,-5.5357,-5.5626,-5.5703,-5.5703,-5.5703,-5.5703,-5.5703,-5.5703,-5.5703,-5.5703,-5.5703,-5.5703,-5.5703,-5.5703,-5.5703,-5.5703,-5.5703,-5.5703,-5.6011,-5.6876,-5.78,-5.8745,-5.9707,-6.0631,-6.1266,-6.1478,-6.1543,-6.1604,-6.1698,-6.1699,-6.1699,-6.1699,-6.1699,-6.1699,-6.1699,-6.1699,-6.1699,-6.1699,-6.1699,-6.1699,-6.1699,-6.1699,-6.1699,0.0,0.0,0.0,-2.5894,-2.5829,-2.6188,-3.174,-3.2059,-3.2339,-3.6486,-3.759,-3.8461,-4.061,-4.1038,-4.157,-4.3167,-4.3442,-4.3461,-4.3497,-4.3497,-4.3497,-4.3497,-4.3497,-4.3497,-4.3497,-4.3497,-4.3497,-4.3497,-4.3497,-4.3497,-4.3497,-4.3497,-4.3855,-4.458,-4.458,-4.5318,-4.6837,-4.6894,-4.7298,-4.8086,-4.8952,-4.9356,-4.9394,-5.026,-5.0644,-5.0644,-5.0683,-5.0702,-5.0702,-5.0702,-5.0702,-5.0702,-5.0702,-5.0702,-5.0702,-5.0702,-5.0702,-5.0702,-5.0702,-5.0702,-5.0818,-5.1606,-5.1875,-5.2029,-5.2876,-5.3145,-5.3337,-5.4222,-5.4472,-5.4684,-5.5491,-5.5703,-5.5703,-5.5703,-5.5703,-5.5703,-5.5703,-5.5703,-5.5703,-5.5703,-5.5703,-5.5703,-5.5703,-5.5703,-5.5703,-5.5703,-5.5703,-5.6011,-5.6876,-5.786,-5.8803,-5.9727,-6.0804,-6.1482,-6.1505,-6.1625,-6.1699,-6.1699,-6.1699,-6.1699,-6.1699,-6.1699,-6.1699,-6.1699,-6.1699,-6.1699,-6.1699,-6.1699,-6.1699,-6.1699,-6.1699,-6.1699,-1.9455,0.0,0.0,0.0,0.0,0.0,-2.8067,-2.9489,-3.1146,-3.346,-3.4495,-3.5828,-3.8823,-3.9368,-3.99,-4.1515,-4.2249,-4.2837,-4.3406,-4.3497,-4.3497,-4.3497,-4.3497,-4.3497,-4.3497,-4.3497,-4.3497,-4.3497,-4.3497,-4.3497,-4.3497,-4.3497,-4.3855,-4.458,-4.458,-4.5033,-4.5951,-4.6586,-4.7009,-4.724,-4.8067,-4.8471,-4.849,-4.9356,-4.976,-4.9779,-5.0433,-5.0702,-5.0702,-5.0702,-5.0702,-5.0702,-5.0702,-5.0702,-5.0702,-5.0702,-5.0702,-5.0702,-5.0702,-5.0702,-5.0741,-5.0952,-5.1029,-5.1068,-5.1318,-5.1798,-5.2452,-5.3318,-5.401,-5.4684,-5.5491,-5.5703,-5.5703,-5.5703,-5.5703,-5.5703,-5.5703,-5.5703,-5.5703,-5.5703,-5.5703,-5.5703,-5.5703,-5.5703,-5.5703,-5.5703,-5.5703,-5.6049,-5.7011,-5.7376,-5.8204,-5.9915,-6.0377,-6.0847,-6.1588,-6.169,-6.1699,-6.1699,-6.1699,-6.1699,-6.1699,-6.1699,-6.1699,-6.1699,-6.1699,-6.1699,-6.1699,-6.1699,-6.1699,-6.1699,-6.1699,-6.1699,-2.0225,-2.14,-2.263,-2.318,0.0,0.0,-2.6796,-2.7934,-2.9255,-3.1201,-3.2247,-3.3697,-3.6633,-3.7165,-3.7808,-3.979,-4.0506,-4.1313,-4.2782,-4.3002,-4.3112,-4.3442,-4.3497,-4.3497,-4.3497,-4.3497,-4.3497,-4.3497,-4.3497,-4.3563,-4.3693,-4.3563,-4.3899,-4.4781,-4.4657,-4.4919,-4.5586,-4.6105,-4.6355,-4.6374,-4.7201,-4.7605,-4.7625,-4.8471,-4.9067,-4.9433,-4.9933,-5.0356,-5.0702,-5.0702,-5.0702,-5.0702,-5.0702,-5.0702,-5.0702,-5.0702,-5.0702,-5.0702,-5.0702,-5.0702,-5.0702,-5.0702,-5.0702,-5.0702,-5.0702,-5.1029,-5.1587,-5.2433,-5.3549,-5.4684,-5.5491,-5.5703,-5.5703,-5.5703,-5.5703,-5.5703,-5.5703,-5.5703,-5.5703,-5.5703,-5.5703,-5.5703,-5.5703,-5.5703,-5.5703,-5.5703,-5.5742,-5.6126,-5.7088,-5.7321,-5.7973,-5.9508,-5.974,-6.0156,-6.1073,-6.0859,-6.0801,-6.1133,-6.084,-6.0664,-6.0664,-6.0664,-6.0664,-6.0664,-6.0664,-6.082,-6.1152,-6.1523,-6.1699,-6.1699,-6.1699,-6.1699,-2.1877,-2.2207,-2.2813,-2.4778,-2.4392,0.0,-2.6814,-2.6998,-2.7218,-2.9365,-3.0375,-3.1604,-3.4,-3.4532,-3.5302,-3.7533,-3.8193,-3.9313,-4.1809,-4.2176,-4.2433,-4.3149,-4.3296,-4.3369,-4.3369,-4.3442,-4.3497,-4.3497,-4.3497,-4.3612,-4.3924,-4.3679,-4.3974,-4.5011,-4.4776,-4.4919,-4.5586,-4.5568,-4.5531,-4.555,-4.6282,-4.6647,-4.6742,-4.7492,-4.8299,-4.9125,-4.9183,-4.9721,-5.0548,-5.0548,-5.0606,-5.0702,-5.0702,-5.0702,-5.0702,-5.0702,-5.0702,-5.0702,-5.0702,-5.0702,-5.0702,-5.0702,-5.0702,-5.0702,-5.0702,-5.0702,-5.0856,-5.1683,-5.3164,-5.4664,-5.5376,-5.5626,-5.5703,-5.5703,-5.5703,-5.5703,-5.5703,-5.5703,-5.5703,-5.5703,-5.5703,-5.5703,-5.5703,-5.5703,-5.5703,-5.5722,-5.5818,-5.6184,-5.7011,-5.7382,-5.7867,-5.8699,-5.8955,-5.9375,-6.0195,-5.9609,-5.9512,-6.0215,-5.9609,-5.9199,-5.9199,-5.9199,-5.9199,-5.9199,-5.9199,-5.9551,-6.0273,-6.123,-6.1699,-6.1699,-6.1699,-6.1699,-2.3764,-2.4685,-2.5474,-2.463,-2.5658,0.0,-2.5199,-2.5786,-2.6741,-2.7218,-2.7438,-2.8282,-3.0705,-3.1678,-3.2265,-3.2742,-3.5037,-3.7845,-4.091,-4.135,-4.1405,-4.1552,-4.2139,-4.2525,-4.2525,-4.3112,-4.3497,-4.3497,-4.3497,-4.3513,-4.3597,-4.3548,-4.3868,-4.4657,-4.4631,-4.4919,-4.5586,-4.5322,-4.5201,-4.5201,-4.509,-4.519,-4.5488,-4.6003,-4.666,-4.7414,-4.7773,-4.86,-4.9644,-4.9644,-5.0067,-5.0702,-5.0702,-5.0702,-5.0702,-5.0702,-5.0702,-5.0702,-5.0702,-5.0702,-5.0702,-5.0702,-5.0702,-5.0702,-5.0702,-5.0702,-5.0856,-5.1683,-5.3164,-5.453,-5.4684,-5.5203,-5.5703,-5.5703,-5.5703,-5.5703,-5.5703,-5.5703,-5.5703,-5.5703,-5.5703,-5.5703,-5.5703,-5.5703,-5.5742,-5.5838,-5.5876,-5.6071,-5.6494,-5.6609,-5.7033,-5.7986,-5.8138,-5.8496,-5.9355,-5.9297,-5.9277,-5.9414,-5.9297,-5.9199,-5.9199,-5.9199,-5.9199,-5.9199,-5.9199,-5.9277,-5.9433,-6.0957,-6.1699,-6.1699,-6.1699,-6.1699,-2.5481,-2.5988,-2.6502,-2.6098,-2.63,0.0,0.0,-2.5401,-2.575,-2.6943,-2.6557,-2.6851,-2.9677,-3.021,-3.0467,-3.1256,-3.3458,-3.5477,-3.6707,-3.8964,-4.0653,-4.1056,-4.1479,-4.1699,-4.1699,-4.2433,-4.3057,-4.3461,-4.3497,-4.3646,-4.4035,-4.3712,-4.4004,-4.5055,-4.4587,-4.4638,-4.5342,-4.518,-4.503,-4.4849,-4.4849,-4.4849,-4.4868,-4.5098,-4.5708,-4.6586,-4.6686,-4.7468,-4.876,-4.9044,-4.9527,-5.0087,-5.0529,-5.0702,-5.0702,-5.0702,-5.0702,-5.0702,-5.0702,-5.0702,-5.0702,-5.0702,-5.0702,-5.0702,-5.0702,-5.0702,-5.0856,-5.1683,-5.2529,-5.3395,-5.426,-5.4799,-5.5203,-5.5588,-5.5703,-5.5703,-5.5703,-5.5703,-5.5703,-5.5703,-5.5703,-5.5703,-5.5703,-5.5761,-5.5818,-5.5876,-5.6051,-5.6205,-5.6379,-5.647,-5.6703,-5.7206,-5.7246,-5.7598,-5.8476,-5.8144,-5.8086,-5.8515,-5.8144,-5.789,-5.789,-5.789,-5.789,-5.789,-5.832,-5.8555,-5.8555,-6.0234,-6.1055,-6.1055,-6.1504,-6.1699,-2.7565,-2.764,-2.7769,-2.7787,-2.7163,-2.6465,0.0,0.0,0.0,-2.6759,-2.6211,-2.6193,-2.8796,-2.887,-2.8925,-3.0044,-3.1843,-3.2779,-3.1825,-3.5605,-3.8744,-3.9405,-4.0029,-4.0414,-4.0414,-4.1015,-4.1926,-4.3063,-4.2827,-4.3144,-4.429,-4.3869,-4.4175,-4.5457,-4.4594,-4.4409,-4.5096,-4.5052,-4.4849,-4.4501,-4.4757,-4.4757,-4.4474,-4.4419,-4.4971,-4.594,-4.5621,-4.632,-4.778,-4.8223,-4.8788,-4.949,-5.0356,-5.0702,-5.0702,-5.0702,-5.0702,-5.0702,-5.0702,-5.0702,-5.0702,-5.0702,-5.0702,-5.0702,-5.0702,-5.0702,-5.0837,-5.1491,-5.1779,-5.226,-5.3837,-5.4376,-5.4703,-5.5511,-5.5703,-5.5703,-5.5703,-5.5703,-5.5703,-5.5703,-5.5722,-5.5742,-5.5742,-5.5818,-5.5915,-5.5994,-5.6225,-5.6424,-5.6439,-5.6523,-5.6601,-5.6601,-5.6601,-5.6875,-5.7598,-5.6992,-5.6894,-5.7617,-5.6992,-5.6601,-5.6601,-5.6601,-5.6601,-5.6601,-5.7285,-5.7656,-5.7656,-5.918,-6.0078,-6.043,-6.1289,-6.1699,-3.0659,-3.1384,-3.1274,-2.8484,-2.9255,-2.9622,-2.5419,0.0,-2.6007,-2.485,0.0,-2.5513,-2.588,0.0,0.0,-2.6174,-2.8631,-3.0081,-2.8558,-3.1292,-3.3476,-3.3568,-3.6138,-3.79,-3.79,-3.8161,-3.9295,-4.1657,-4.037,-4.0663,-4.3302,-4.3754,-4.4318,-4.5118,-4.4757,-4.4707,-4.5096,-4.4825,-4.4474,-4.4058,-4.4117,-4.4117,-4.4076,-4.3758,-4.406,-4.4764,-4.4364,-4.5074,-4.6517,-4.6568,-4.7716,-4.949,-5.0356,-5.0702,-5.0702,-5.0702,-5.0702,-5.0702,-5.0702,-5.0702,-5.0702,-5.0702,-5.0702,-5.0702,-5.0702,-5.0702,-5.0721,-5.0798,-5.1356,-5.2125,-5.3106,-5.3914,-5.4703,-5.5511,-5.5703,-5.5703,-5.5703,-5.5703,-5.5703,-5.5703,-5.5799,-5.5876,-5.5876,-5.5876,-5.6013,-5.6302,-5.6379,-5.6433,-5.6552,-5.6599,-5.6601,-5.6601,-5.6601,-5.664,-5.6738,-5.666,-5.664,-5.6738,-5.664,-5.6601,-5.6601,-5.6601,-5.6601,-5.6601,-5.6699,-5.6758,-5.6758,-5.7715,-5.8945,-6.043,-6.1289,-6.1699,-3.0498,-3.1218,-3.1319,-2.9344,-2.9207,-2.8851,-2.62,-2.5383,-2.5273,-2.5548,0.0,0.0,0.0,0.0,0.0,0.0,-2.7622,-2.8246,-2.6612,-2.8778,-3.087,-3.1788,-3.3109,-3.4504,-3.5917,-3.6232,-3.7359,-3.9723,-3.9044,-3.9733,-4.2467,-4.3216,-4.4153,-4.5342,-4.4872,-4.4757,-4.5096,-4.4966,-4.4587,-4.3998,-4.4233,-4.4136,-4.3693,-4.3563,-4.3791,-4.4233,-4.4058,-4.4597,-4.563,-4.6107,-4.6948,-4.8086,-4.9413,-5.024,-5.0702,-5.0702,-5.0702,-5.0702,-5.0702,-5.0702,-5.0702,-5.0702,-5.0702,-5.0702,-5.0702,-5.0702,-5.0702,-5.0702,-5.0933,-5.1395,-5.2241,-5.3087,-5.3953,-5.4799,-5.5357,-5.5703,-5.5703,-5.5761,-5.5818,-5.5818,-5.5974,-5.6109,-5.6186,-5.6186,-5.6244,-5.6379,-5.6476,-5.6537,-5.6581,-5.6601,-5.6601,-5.6601,-5.6601,-5.6601,-5.6601,-5.6601,-5.6601,-5.6601,-5.6601,-5.6601,-5.6601,-5.6601,-5.6601,-5.6601,-5.6601,-5.6601,-5.6601,-5.7388,-5.8137,-5.888,-6.0288,-6.0957,-3.0698,-3.1447,-3.1703,-2.9753,-2.891,-2.8116,-2.6362,-2.5548,-2.5383,-2.6117,-2.6043,0.0,0.0,0.0,-2.6172,-2.6539,0.0,-2.6906,-2.5311,-2.6778,-2.8448,-2.9604,-3.0391,-3.1593,-3.36,-3.3597,-3.4617,-3.7378,-3.6926,-3.7966,-4.1385,-4.244,-4.3684,-4.5184,-4.4919,-4.4849,-4.5096,-4.5096,-4.4713,-4.3998,-4.4419,-4.4194,-4.3479,-4.3597,-4.3772,-4.4016,-4.4117,-4.4535,-4.5154,-4.5726,-4.6336,-4.7048,-4.849,-4.9586,-5.0356,-5.0606,-5.0702,-5.0702,-5.0702,-5.0702,-5.0702,-5.0702,-5.0702,-5.0702,-5.0702,-5.0702,-5.0702,-5.0702,-5.0702,-5.0894,-5.1702,-5.2549,-5.3414,-5.428,-5.5145,-5.5742,-5.5742,-5.5857,-5.5978,-5.5981,-5.6135,-5.6282,-5.6379,-5.6398,-5.6405,-5.6446,-5.6537,-5.6601,-5.6601,-5.6601,-5.6601,-5.6601,-5.6601,-5.6601,-5.6601,-5.6601,-5.6601,-5.6601,-5.6601,-5.6601,-5.6601,-5.6601,-5.6601,-5.6601,-5.6556,-5.6556,-5.6556,-5.7038,-5.7294,-5.7326,-5.9103,-5.9927,-3.2525,-3.3544,-3.3647,-2.9402,-2.8936,-2.8626,-2.5082,-2.6043,-2.7255,-2.5752,-2.7879,-2.9567,-2.8062,-2.775,-2.7475,-2.6722,-2.6631,0.0,0.0,-2.4979,-2.5531,-2.5605,-2.7835,-2.9702,-3.0575,-2.9586,-3.0534,-3.4423,-3.3177,-3.4525,-3.9872,-4.143,-4.2832,-4.4299,-4.4803,-4.5096,-4.5096,-4.5096,-4.4713,-4.3998,-4.4419,-4.4194,-4.3513,-4.3836,-4.3986,-4.3998,-4.4419,-4.4776,-4.5096,-4.5135,-4.5838,-4.699,-4.7817,-4.8663,-4.9529,-5.0375,-5.0702,-5.0702,-5.0702,-5.0702,-5.0702,-5.0702,-5.0702,-5.0702,-5.0702,-5.0702,-5.0702,-5.0702,-5.0702,-5.0894,-5.1702,-5.2549,-5.3414,-5.428,-5.5203,-5.5876,-5.5876,-5.6051,-5.6175,-5.62,-5.6297,-5.6379,-5.6398,-5.6398,-5.6433,-5.6568,-5.6601,-5.6601,-5.6601,-5.6601,-5.6601,-5.6601,-5.6601,-5.6601,-5.6601,-5.6601,-5.6601,-5.6601,-5.6601,-5.6601,-5.6601,-5.6601,-5.6601,-5.6601,-5.6479,-5.6422,-5.6422,-5.6301,-5.6248,-5.6304,-5.7974,-5.8753,-3.3007,-3.3837,-3.3891,-3.097,-3.0016,-2.9098,-2.6407,-2.6833,-2.7328,-2.5733,-2.753,-2.909,-2.7989,-2.7365,-2.6924,-2.6649,-2.6153,-2.5419,0.0,-2.4428,-2.4612,-2.4612,-2.6448,-2.7808,-2.8087,-2.7862,-2.9097,-3.2422,-3.186,-3.3355,-3.7923,-4.038,-4.2201,-4.347,-4.4765,-4.5438,-4.5438,-4.5438,-4.5182,-4.4713,-4.4872,-4.4682,-4.4223,-4.4337,-4.4392,-4.4419,-4.4781,-4.5007,-4.5118,-4.5342,-4.5667,-4.6182,-4.7567,-4.8279,-4.8721,-5.0164,-5.0702,-5.0702,-5.0702,-5.0702,-5.0702,-5.0702,-5.0702,-5.0702,-5.0702,-5.0702,-5.0721,-5.0818,-5.0837,-5.0933,-5.1299,-5.1972,-5.2819,-5.3704,-5.4587,-5.5402,-5.5971,-5.621,-5.6345,-5.6327,-5.6444,-5.6533,-5.6533,-5.6537,-5.6542,-5.6581,-5.6601,-5.6601,-5.6601,-5.6601,-5.6601,-5.6601,-5.6601,-5.6601,-5.6601,-5.6601,-5.6601,-5.6601,-5.6601,-5.6601,-5.6601,-5.6504,-5.647,-5.647,-5.634,-5.6259,-5.6263,-5.6097,-5.6001,-5.6013,-5.6483,-5.7116,-3.3339,-3.3931,-3.3998,-3.1915,-3.0958,-2.9902,-2.7543,-2.8179,-2.8779,-2.7001,-2.8354,-2.9813,-2.9703,-2.8228,-2.7126,-2.742,-2.63,-2.5127,0.0,-2.419,-2.419,-2.419,-2.5301,-2.606,-2.606,-2.6277,-2.7568,-3.0312,-3.0509,-3.2204,-3.6094,-3.8855,-4.0998,-4.2464,-4.4205,-4.5278,-4.5586,-4.5586,-4.5438,-4.5096,-4.4966,-4.4825,-4.458,-4.458,-4.4676,-4.48,-4.5118,-4.5282,-4.5283,-4.5513,-4.5586,-4.574,-4.7124,-4.7855,-4.8317,-5.0048,-5.0702,-5.0702,-5.0702,-5.0702,-5.0702,-5.076,-5.076,-5.0779,-5.0837,-5.0856,-5.0875,-5.0952,-5.0968,-5.1006,-5.1083,-5.1702,-5.2531,-5.3384,-5.4304,-5.5209,-5.6071,-5.6393,-5.6465,-5.6465,-5.6543,-5.6601,-5.6601,-5.6589,-5.6601,-5.6601,-5.6601,-5.6601,-5.6601,-5.6601,-5.6601,-5.6601,-5.6601,-5.6601,-5.6601,-5.6601,-5.6601,-5.6601,-5.6601,-5.6573,-5.6542,-5.6449,-5.6379,-5.6321,-5.6164,-5.6104,-5.609,-5.5915,-5.5818,-5.5818,-5.5742,-5.609]}]]